Wetterdaten: Montag, 24.07.2017
Datum Zeit Temp. A. Pool Temp. Feuchte A. Luftdruck Regen Wind Richtung Richtung Sonnenschein ET UV Solar Taupunkt Windchill Windben Empfang
24.07.2017 00:00 18,6 C 25,6 C 91 % 1013,9 hPa 0,0 l/m 6,6 km/h (2 Bft) SW 226 0 min 0,000 mm 0,0 UV-I 0 W/m 17,1 C 18,5 C 9,7 km/h (2 Bft) 95,74 %
24.07.2017 00:02 18,6 C 25,6 C 91 % 1014,0 hPa 0,0 l/m 6,2 km/h (2 Bft) W 275 0 min 0,000 mm 0,0 UV-I 0 W/m 17,1 C 18,6 C 11,3 km/h (2 Bft) 97,67 %
24.07.2017 00:04 18,6 C 25,6 C 92 % 1014,0 hPa 0,0 l/m 6,9 km/h (2 Bft) W 269 0 min 0,000 mm 0,0 UV-I 0 W/m 17,3 C 18,4 C 11,3 km/h (2 Bft) 91,49 %
24.07.2017 00:06 18,6 C 25,6 C 92 % 1014,0 hPa 0,0 l/m 9,4 km/h (2 Bft) W 259 0 min 0,000 mm 0,0 UV-I 0 W/m 17,3 C 17,3 C 14,5 km/h (3 Bft) 97,87 %
24.07.2017 00:08 18,6 C 25,6 C 92 % 1013,9 hPa 0,0 l/m 8,9 km/h (2 Bft) W-SW 252 0 min 0,000 mm 0,0 UV-I 0 W/m 17,3 C 17,5 C 16,1 km/h (3 Bft) 93,62 %
24.07.2017 00:10 18,6 C 25,6 C 92 % 1013,9 hPa 0,0 l/m 8,4 km/h (2 Bft) W 263 0 min 0,000 mm 0,0 UV-I 0 W/m 17,3 C 17,7 C 14,5 km/h (3 Bft) 97,87 %
24.07.2017 00:12 18,6 C 25,6 C 92 % 1014,0 hPa 0,0 l/m 6,0 km/h (2 Bft) W-SW 244 0 min 0,000 mm 0,0 UV-I 0 W/m 17,3 C 18,6 C 9,7 km/h (2 Bft) 95,74 %
24.07.2017 00:14 18,6 C 25,6 C 92 % 1014,0 hPa 0,0 l/m 7,7 km/h (2 Bft) W-SW 254 0 min 0,000 mm 0,0 UV-I 0 W/m 17,3 C 18,0 C 12,9 km/h (3 Bft) 97,44 %
24.07.2017 00:16 18,6 C 25,6 C 92 % 1014,0 hPa 0,0 l/m 6,0 km/h (2 Bft) W-SW 258 0 min 0,000 mm 0,0 UV-I 0 W/m 17,3 C 18,6 C 11,3 km/h (2 Bft) 97,87 %
24.07.2017 00:18 18,6 C 25,6 C 92 % 1013,9 hPa 0,0 l/m 5,5 km/h (1 Bft) W-SW 251 0 min 0,000 mm 0,0 UV-I 0 W/m 17,3 C 18,6 C 9,7 km/h (2 Bft) 93,62 %
24.07.2017 00:20 18,6 C 25,6 C 92 % 1013,8 hPa 0,0 l/m 4,8 km/h (1 Bft) W 280 0 min 0,000 mm 0,0 UV-I 0 W/m 17,3 C 18,6 C 11,3 km/h (2 Bft) 93,62 %
24.07.2017 00:22 18,6 C 25,6 C 92 % 1013,9 hPa 0,0 l/m 3,7 km/h (1 Bft) W 273 0 min 0,000 mm 0,0 UV-I 0 W/m 17,3 C 18,6 C 6,4 km/h (2 Bft) 97,87 %
24.07.2017 00:24 18,6 C 25,6 C 92 % 1013,8 hPa 0,0 l/m 4,4 km/h (1 Bft) SW 236 0 min 0,000 mm 0,0 UV-I 0 W/m 17,3 C 18,6 C 11,3 km/h (2 Bft) 94,00 %
24.07.2017 00:26 18,6 C 25,6 C 92 % 1013,8 hPa 0,0 l/m 5,5 km/h (1 Bft) W-SW 246 0 min 0,000 mm 0,0 UV-I 0 W/m 17,3 C 18,6 C 14,5 km/h (3 Bft) 93,62 %
24.07.2017 00:28 18,6 C 25,6 C 92 % 1013,7 hPa 0,0 l/m 6,2 km/h (2 Bft) SW 226 0 min 0,000 mm 0,0 UV-I 0 W/m 17,3 C 18,6 C 11,3 km/h (2 Bft) 96,00 %
24.07.2017 00:30 18,6 C 25,6 C 93 % 1013,7 hPa 0,0 l/m 3,2 km/h (1 Bft) NW 320 0 min 0,000 mm 0,0 UV-I 0 W/m 17,4 C 18,6 C 6,4 km/h (2 Bft) 91,49 %
24.07.2017 00:32 18,5 C 25,6 C 92 % 1013,7 hPa 0,0 l/m 3,7 km/h (1 Bft) W-SW 249 0 min 0,000 mm 0,0 UV-I 0 W/m 17,2 C 18,5 C 9,7 km/h (2 Bft) 97,87 %
24.07.2017 00:34 18,4 C 25,6 C 92 % 1013,7 hPa 0,0 l/m 5,3 km/h (1 Bft) N 10 0 min 0,000 mm 0,0 UV-I 0 W/m 17,1 C 18,4 C 17,7 km/h (3 Bft) 95,12 %
24.07.2017 00:36 18,4 C 25,6 C 92 % 1013,7 hPa 0,0 l/m 2,6 km/h (1 Bft) W 266 0 min 0,000 mm 0,0 UV-I 0 W/m 17,1 C 18,4 C 9,7 km/h (2 Bft) 97,87 %
24.07.2017 00:38 18,3 C 25,6 C 93 % 1013,7 hPa 0,0 l/m 1,1 km/h (1 Bft) W-NW 296 0 min 0,000 mm 0,0 UV-I 0 W/m 17,1 C 18,3 C 3,2 km/h (1 Bft) 95,74 %
24.07.2017 00:40 18,3 C 25,6 C 93 % 1013,7 hPa 0,0 l/m 3,6 km/h (1 Bft) NW 308 0 min 0,000 mm 0,0 UV-I 0 W/m 17,1 C 18,3 C 9,7 km/h (2 Bft) 95,74 %
24.07.2017 00:42 18,3 C 25,6 C 93 % 1013,7 hPa 0,0 l/m 3,7 km/h (1 Bft) W-NW 303 0 min 0,000 mm 0,0 UV-I 0 W/m 17,1 C 18,3 C 8,0 km/h (2 Bft) 98,11 %
24.07.2017 00:44 18,2 C 25,6 C 93 % 1013,7 hPa 0,0 l/m 2,0 km/h (1 Bft) N 5 0 min 0,000 mm 0,0 UV-I 0 W/m 17,0 C 18,2 C 4,8 km/h (1 Bft) 95,74 %
24.07.2017 00:46 18,1 C 25,6 C 93 % 1013,7 hPa 0,0 l/m 2,7 km/h (1 Bft) N-NW 327 0 min 0,000 mm 0,0 UV-I 0 W/m 16,9 C 18,1 C 6,4 km/h (2 Bft) 95,74 %
24.07.2017 00:48 18,1 C 25,6 C 93 % 1013,7 hPa 0,0 l/m 3,0 km/h (1 Bft) W-SW 248 0 min 0,000 mm 0,0 UV-I 0 W/m 16,9 C 18,1 C 11,3 km/h (2 Bft) 95,74 %
24.07.2017 00:50 18,0 C 25,6 C 93 % 1013,7 hPa 0,0 l/m 1,9 km/h (1 Bft) N-NW 330 0 min 0,000 mm 0,0 UV-I 0 W/m 16,8 C 18,0 C 12,9 km/h (3 Bft) 93,62 %
24.07.2017 00:52 17,9 C 25,6 C 93 % 1013,7 hPa 0,0 l/m 1,5 km/h (1 Bft) N-NO 17 0 min 0,000 mm 0,0 UV-I 0 W/m 16,8 C 17,9 C 3,2 km/h (1 Bft) 97,87 %
24.07.2017 00:54 17,9 C 25,6 C 93 % 1013,7 hPa 0,0 l/m 3,0 km/h (1 Bft) N 5 0 min 0,000 mm 0,0 UV-I 0 W/m 16,8 C 17,9 C 6,4 km/h (2 Bft) 95,74 %
24.07.2017 00:56 17,8 C 25,6 C 93 % 1013,7 hPa 0,0 l/m 4,1 km/h (1 Bft) W-NW 299 0 min 0,000 mm 0,0 UV-I 0 W/m 16,7 C 17,8 C 14,5 km/h (3 Bft) 97,44 %
24.07.2017 00:58 17,8 C 25,6 C 94 % 1013,7 hPa 0,0 l/m 2,0 km/h (1 Bft) SO 129 0 min 0,000 mm 0,0 UV-I 0 W/m 16,8 C 17,8 C 6,4 km/h (2 Bft) 97,87 %
24.07.2017 00:59 17,8 C 25,6 C 94 % 1013,6 hPa 0,0 l/m 3,4 km/h (1 Bft) N 10 0 min 0,000 mm 0,0 UV-I 0 W/m 16,8 C 17,8 C 6,4 km/h (2 Bft) 97,87 %
24.07.2017 01:02 17,8 C 25,6 C 94 % 1013,6 hPa 0,0 l/m 1,3 km/h (1 Bft) NO 38 0 min 0,000 mm 0,0 UV-I 0 W/m 16,8 C 17,8 C 4,8 km/h (1 Bft) 97,92 %
24.07.2017 01:04 17,7 C 25,6 C 93 % 1013,5 hPa 0,0 l/m 3,5 km/h (1 Bft) N 5 0 min 0,000 mm 0,0 UV-I 0 W/m 16,6 C 17,7 C 8,0 km/h (2 Bft) 95,74 %
24.07.2017 01:06 17,7 C 25,6 C 94 % 1013,5 hPa 0,0 l/m 2,3 km/h (1 Bft) NW 323 0 min 0,000 mm 0,0 UV-I 0 W/m 16,7 C 17,7 C 4,8 km/h (1 Bft) 93,62 %
24.07.2017 01:08 17,6 C 25,6 C 94 % 1013,4 hPa 0,0 l/m 5,1 km/h (1 Bft) N 5 0 min 0,000 mm 0,0 UV-I 0 W/m 16,6 C 17,6 C 11,3 km/h (2 Bft) 97,87 %
24.07.2017 01:10 17,5 C 25,6 C 93 % 1013,4 hPa 0,0 l/m 5,1 km/h (1 Bft) W-NW 301 0 min 0,000 mm 0,0 UV-I 0 W/m 16,4 C 17,5 C 12,9 km/h (3 Bft) 96,00 %
24.07.2017 01:12 17,4 C 25,6 C 93 % 1013,4 hPa 0,0 l/m 2,5 km/h (1 Bft) N-NO 32 0 min 0,000 mm 0,0 UV-I 0 W/m 16,3 C 17,4 C 6,4 km/h (2 Bft) 94,00 %
24.07.2017 01:14 17,3 C 25,6 C 92 % 1013,4 hPa 0,0 l/m 4,6 km/h (1 Bft) NW 317 0 min 0,000 mm 0,0 UV-I 0 W/m 16,0 C 17,3 C 9,7 km/h (2 Bft) 97,87 %
24.07.2017 01:16 17,2 C 25,6 C 91 % 1013,4 hPa 0,0 l/m 4,6 km/h (1 Bft) NW 325 0 min 0,000 mm 0,0 UV-I 0 W/m 15,7 C 17,2 C 9,7 km/h (2 Bft) 95,74 %
24.07.2017 01:18 17,2 C 25,6 C 91 % 1013,4 hPa 0,0 l/m 2,4 km/h (1 Bft) N-NW 339 0 min 0,000 mm 0,0 UV-I 0 W/m 15,7 C 17,2 C 6,4 km/h (2 Bft) 97,87 %
24.07.2017 01:20 17,2 C 25,6 C 91 % 1013,4 hPa 0,0 l/m 1,2 km/h (1 Bft) N 11 0 min 0,000 mm 0,0 UV-I 0 W/m 15,7 C 17,2 C 6,4 km/h (2 Bft) 95,74 %
24.07.2017 01:22 17,2 C 25,6 C 91 % 1013,5 hPa 0,0 l/m 2,2 km/h (1 Bft) N 11 0 min 0,000 mm 0,0 UV-I 0 W/m 15,7 C 17,2 C 4,8 km/h (1 Bft) 95,74 %
24.07.2017 01:24 17,1 C 25,6 C 91 % 1013,5 hPa 0,0 l/m 1,1 km/h (1 Bft) N-NW 332 0 min 0,000 mm 0,0 UV-I 0 W/m 15,6 C 17,1 C 3,2 km/h (1 Bft) 95,65 %
24.07.2017 01:26 17,1 C 25,6 C 91 % 1013,4 hPa 0,0 l/m 0,8 km/h (0 Bft) N-NW 336 0 min 0,000 mm 0,0 UV-I 0 W/m 15,6 C 17,1 C 3,2 km/h (1 Bft) 97,37 %
24.07.2017 01:28 17,1 C 25,6 C 91 % 1013,4 hPa 0,0 l/m 0,1 km/h (0 Bft) N-NW 336 0 min 0,000 mm 0,0 UV-I 0 W/m 15,6 C 17,1 C 1,6 km/h (1 Bft) 93,62 %
24.07.2017 01:30 17,1 C 25,6 C 90 % 1013,4 hPa 0,0 l/m 0,4 km/h (0 Bft) N-NW 336 0 min 0,000 mm 0,0 UV-I 0 W/m 15,4 C 17,1 C 1,6 km/h (1 Bft) 95,74 %
24.07.2017 01:32 17,0 C 25,6 C 90 % 1013,3 hPa 0,0 l/m 0,9 km/h (0 Bft) N-NW 329 0 min 0,000 mm 0,0 UV-I 0 W/m 15,3 C 17,0 C 3,2 km/h (1 Bft) 100,00 %
24.07.2017 01:34 17,1 C 25,6 C 90 % 1013,3 hPa 0,0 l/m 0,4 km/h (0 Bft) N-NW 329 0 min 0,000 mm 0,0 UV-I 0 W/m 15,4 C 17,1 C 3,2 km/h (1 Bft) 97,87 %
24.07.2017 01:36 17,1 C 25,6 C 91 % 1013,3 hPa 0,0 l/m 0,3 km/h (0 Bft) N-NW 329 0 min 0,000 mm 0,0 UV-I 0 W/m 15,6 C 17,1 C 1,6 km/h (1 Bft) 100,00 %
24.07.2017 01:38 17,1 C 25,6 C 90 % 1013,3 hPa 0,0 l/m 0,7 km/h (0 Bft) N-NW 327 0 min 0,000 mm 0,0 UV-I 0 W/m 15,4 C 17,1 C 3,2 km/h (1 Bft) 97,87 %
24.07.2017 01:40 17,0 C 25,6 C 90 % 1013,3 hPa 0,0 l/m 0,1 km/h (0 Bft) N-NW 327 0 min 0,000 mm 0,0 UV-I 0 W/m 15,3 C 17,0 C 1,6 km/h (1 Bft) 97,87 %
24.07.2017 01:43 16,9 C 25,6 C 90 % 1013,2 hPa 0,0 l/m 0,8 km/h (0 Bft) N-NW 327 0 min 0,000 mm 0,0 UV-I 0 W/m 15,2 C 16,9 C 4,8 km/h (1 Bft) 98,63 %
24.07.2017 01:44 16,9 C 25,6 C 90 % 1013,2 hPa 0,0 l/m 1,1 km/h (1 Bft) N-NW 327 0 min 0,000 mm 0,0 UV-I 0 W/m 15,2 C 16,9 C 3,2 km/h (1 Bft) 100,00 %
24.07.2017 01:46 16,9 C 25,6 C 90 % 1013,2 hPa 0,0 l/m 0,3 km/h (0 Bft) N-NW 327 0 min 0,000 mm 0,0 UV-I 0 W/m 15,2 C 16,9 C 1,6 km/h (1 Bft) 97,87 %
24.07.2017 01:48 16,9 C 25,6 C 90 % 1013,2 hPa 0,0 l/m 0,4 km/h (0 Bft) N-NW 327 0 min 0,000 mm 0,0 UV-I 0 W/m 15,2 C 16,9 C 1,6 km/h (1 Bft) 100,00 %
24.07.2017 01:50 16,9 C 25,6 C 90 % 1013,2 hPa 0,0 l/m 0,0 km/h (0 Bft) N-NW 327 0 min 0,000 mm 0,0 UV-I 0 W/m 15,2 C 16,9 C 0,0 km/h (0 Bft) 100,00 %
24.07.2017 01:52 16,9 C 25,6 C 90 % 1013,3 hPa 0,0 l/m 0,0 km/h (0 Bft) N-NW 327 0 min 0,000 mm 0,0 UV-I 0 W/m 15,2 C 16,9 C 0,0 km/h (0 Bft) 95,74 %
24.07.2017 01:54 16,9 C 25,6 C 91 % 1013,3 hPa 0,0 l/m 0,0 km/h (0 Bft) N-NW 327 0 min 0,000 mm 0,0 UV-I 0 W/m 15,4 C 16,9 C 0,0 km/h (0 Bft) 97,87 %
24.07.2017 01:56 16,9 C 25,6 C 90 % 1013,2 hPa 0,0 l/m 0,0 km/h (0 Bft) N-NW 327 0 min 0,000 mm 0,0 UV-I 0 W/m 15,2 C 16,9 C 0,0 km/h (0 Bft) 97,87 %
24.07.2017 01:58 16,9 C 25,6 C 90 % 1013,2 hPa 0,0 l/m 0,4 km/h (0 Bft) N-NW 327 0 min 0,000 mm 0,0 UV-I 0 W/m 15,2 C 16,9 C 1,6 km/h (1 Bft) 93,62 %
24.07.2017 02:00 17,0 C 25,6 C 91 % 1013,2 hPa 0,0 l/m 0,9 km/h (0 Bft) N-NW 327 0 min 0,000 mm 0,0 UV-I 0 W/m 15,5 C 17,0 C 3,2 km/h (1 Bft) 93,62 %
24.07.2017 02:02 16,9 C 25,6 C 90 % 1013,2 hPa 0,0 l/m 0,0 km/h (0 Bft) N-NW 327 0 min 0,000 mm 0,0 UV-I 0 W/m 15,2 C 16,9 C 0,0 km/h (0 Bft) 95,74 %
24.07.2017 02:04 17,0 C 25,6 C 90 % 1013,2 hPa 0,0 l/m 0,2 km/h (0 Bft) N-NW 327 0 min 0,000 mm 0,0 UV-I 0 W/m 15,3 C 17,0 C 1,6 km/h (1 Bft) 97,37 %
24.07.2017 02:06 17,0 C 25,6 C 90 % 1013,1 hPa 0,0 l/m 0,1 km/h (0 Bft) N-NW 327 0 min 0,000 mm 0,0 UV-I 0 W/m 15,3 C 17,0 C 1,6 km/h (1 Bft) 95,74 %
24.07.2017 02:08 17,0 C 25,6 C 90 % 1013,1 hPa 0,0 l/m 1,1 km/h (1 Bft) N-NW 327 0 min 0,000 mm 0,0 UV-I 0 W/m 15,3 C 17,0 C 3,2 km/h (1 Bft) 94,92 %
24.07.2017 02:10 17,0 C 25,6 C 90 % 1013,0 hPa 0,0 l/m 0,5 km/h (0 Bft) N-NW 327 0 min 0,000 mm 0,0 UV-I 0 W/m 15,3 C 17,0 C 1,6 km/h (1 Bft) 97,22 %
24.07.2017 02:12 16,9 C 25,6 C 91 % 1012,9 hPa 0,0 l/m 0,0 km/h (0 Bft) N-NW 327 0 min 0,000 mm 0,0 UV-I 0 W/m 15,4 C 16,9 C 1,6 km/h (1 Bft) 97,92 %
24.07.2017 02:14 17,0 C 25,6 C 91 % 1012,9 hPa 0,0 l/m 0,0 km/h (0 Bft) N-NW 327 0 min 0,000 mm 0,0 UV-I 0 W/m 15,5 C 17,0 C 0,0 km/h (0 Bft) 95,74 %
24.07.2017 02:16 16,9 C 25,6 C 91 % 1012,9 hPa 0,0 l/m 0,0 km/h (0 Bft) N-NW 327 0 min 0,000 mm 0,0 UV-I 0 W/m 15,4 C 16,9 C 0,0 km/h (0 Bft) 97,87 %
24.07.2017 02:18 16,9 C 25,6 C 91 % 1012,8 hPa 0,0 l/m 0,0 km/h (0 Bft) N-NW 327 0 min 0,000 mm 0,0 UV-I 0 W/m 15,4 C 16,9 C 0,0 km/h (0 Bft) 97,87 %
24.07.2017 02:20 16,9 C 25,6 C 92 % 1012,9 hPa 0,0 l/m 0,4 km/h (0 Bft) N-NW 327 0 min 0,000 mm 0,0 UV-I 0 W/m 15,6 C 16,9 C 1,6 km/h (1 Bft) 95,74 %
24.07.2017 02:22 16,9 C 25,6 C 92 % 1012,8 hPa 0,0 l/m 0,7 km/h (0 Bft) N-NW 327 0 min 0,000 mm 0,0 UV-I 0 W/m 15,6 C 16,9 C 3,2 km/h (1 Bft) 94,12 %
24.07.2017 02:24 16,9 C 25,6 C 91 % 1012,8 hPa 0,0 l/m 0,8 km/h (0 Bft) N-NW 327 0 min 0,000 mm 0,0 UV-I 0 W/m 15,4 C 16,9 C 3,2 km/h (1 Bft) 93,62 %
24.07.2017 02:26 16,9 C 25,6 C 91 % 1012,8 hPa 0,0 l/m 0,0 km/h (0 Bft) N-NW 327 0 min 0,000 mm 0,0 UV-I 0 W/m 15,4 C 16,9 C 1,6 km/h (1 Bft) 97,87 %
24.07.2017 02:28 16,9 C 25,6 C 91 % 1012,8 hPa 0,0 l/m 0,0 km/h (0 Bft) N-NW 327 0 min 0,000 mm 0,0 UV-I 0 W/m 15,4 C 16,9 C 0,0 km/h (0 Bft) 93,62 %
24.07.2017 02:30 16,9 C 25,6 C 91 % 1012,7 hPa 0,0 l/m 0,7 km/h (0 Bft) N-NW 327 0 min 0,000 mm 0,0 UV-I 0 W/m 15,4 C 16,9 C 1,6 km/h (1 Bft) 95,74 %
24.07.2017 02:32 16,9 C 25,6 C 90 % 1012,7 hPa 0,0 l/m 0,0 km/h (0 Bft) N-NW 327 0 min 0,000 mm 0,0 UV-I 0 W/m 15,2 C 16,9 C 0,0 km/h (0 Bft) 100,00 %
24.07.2017 02:34 16,9 C 25,6 C 90 % 1012,7 hPa 0,0 l/m 0,0 km/h (0 Bft) N-NW 327 0 min 0,000 mm 0,0 UV-I 0 W/m 15,2 C 16,9 C 1,6 km/h (1 Bft) 97,37 %
24.07.2017 02:36 16,9 C 25,6 C 91 % 1012,7 hPa 0,0 l/m 1,1 km/h (1 Bft) N-NW 327 0 min 0,000 mm 0,0 UV-I 0 W/m 15,4 C 16,9 C 3,2 km/h (1 Bft) 97,87 %
24.07.2017 02:38 16,9 C 25,6 C 91 % 1012,7 hPa 0,0 l/m 2,7 km/h (1 Bft) N-NW 327 0 min 0,000 mm 0,0 UV-I 0 W/m 15,4 C 16,9 C 4,8 km/h (1 Bft) 97,87 %
24.07.2017 02:40 17,0 C 25,6 C 91 % 1012,7 hPa 0,0 l/m 3,7 km/h (1 Bft) NW 305 0 min 0,000 mm 0,0 UV-I 0 W/m 15,5 C 17,0 C 4,8 km/h (1 Bft) 100,00 %
24.07.2017 02:42 17,0 C 25,6 C 91 % 1012,7 hPa 0,0 l/m 2,3 km/h (1 Bft) NW 305 0 min 0,000 mm 0,0 UV-I 0 W/m 15,5 C 17,0 C 3,2 km/h (1 Bft) 97,87 %
24.07.2017 02:44 16,9 C 25,6 C 91 % 1012,7 hPa 0,0 l/m 1,6 km/h (1 Bft) NW 305 0 min 0,000 mm 0,0 UV-I 0 W/m 15,4 C 16,9 C 3,2 km/h (1 Bft) 95,74 %
24.07.2017 02:46 16,9 C 25,6 C 91 % 1012,7 hPa 0,0 l/m 3,9 km/h (1 Bft) W-SW 243 0 min 0,000 mm 0,0 UV-I 0 W/m 15,4 C 16,9 C 8,0 km/h (2 Bft) 96,00 %
24.07.2017 02:48 16,9 C 25,6 C 91 % 1012,7 hPa 0,0 l/m 1,9 km/h (1 Bft) W-SW 243 0 min 0,000 mm 0,0 UV-I 0 W/m 15,4 C 16,9 C 3,2 km/h (1 Bft) 97,87 %
24.07.2017 02:50 16,9 C 25,6 C 91 % 1012,7 hPa 0,0 l/m 1,8 km/h (1 Bft) W-SW 243 0 min 0,000 mm 0,0 UV-I 0 W/m 15,4 C 16,9 C 3,2 km/h (1 Bft) 100,00 %
24.07.2017 02:52 16,9 C 25,6 C 91 % 1012,7 hPa 0,0 l/m 3,5 km/h (1 Bft) W-SW 243 0 min 0,000 mm 0,0 UV-I 0 W/m 15,4 C 16,9 C 6,4 km/h (2 Bft) 100,00 %
24.07.2017 02:54 16,9 C 25,6 C 91 % 1012,7 hPa 0,0 l/m 2,4 km/h (1 Bft) W-SW 243 0 min 0,000 mm 0,0 UV-I 0 W/m 15,4 C 16,9 C 3,2 km/h (1 Bft) 100,00 %
24.07.2017 02:56 16,9 C 25,6 C 91 % 1012,7 hPa 0,0 l/m 0,3 km/h (0 Bft) W-SW 243 0 min 0,000 mm 0,0 UV-I 0 W/m 15,4 C 16,9 C 1,6 km/h (1 Bft) 100,00 %
24.07.2017 02:58 16,9 C 25,6 C 91 % 1012,7 hPa 0,0 l/m 1,1 km/h (1 Bft) W-SW 241 0 min 0,000 mm 0,0 UV-I 0 W/m 15,4 C 16,9 C 3,2 km/h (1 Bft) 100,00 %
24.07.2017 03:00 16,9 C 25,6 C 91 % 1012,7 hPa 0,0 l/m 1,3 km/h (1 Bft) W-SW 241 0 min 0,000 mm 0,0 UV-I 0 W/m 15,4 C 16,9 C 3,2 km/h (1 Bft) 97,87 %
24.07.2017 03:02 16,9 C 25,6 C 91 % 1012,6 hPa 0,2 l/m 1,6 km/h (1 Bft) S-SW 203 0 min 0,000 mm 0,0 UV-I 0 W/m 15,4 C 16,9 C 4,8 km/h (1 Bft) 95,74 %
24.07.2017 03:04 16,9 C 25,6 C 92 % 1012,6 hPa 0,0 l/m 3,3 km/h (1 Bft) S-SW 202 0 min 0,000 mm 0,0 UV-I 0 W/m 15,6 C 16,9 C 4,8 km/h (1 Bft) 95,74 %
24.07.2017 03:06 16,9 C 25,6 C 92 % 1012,5 hPa 0,0 l/m 3,9 km/h (1 Bft) S-SW 202 0 min 0,000 mm 0,0 UV-I 0 W/m 15,6 C 16,9 C 4,8 km/h (1 Bft) 100,00 %
24.07.2017 03:08 16,9 C 25,6 C 92 % 1012,5 hPa 0,0 l/m 2,5 km/h (1 Bft) S-SW 202 0 min 0,000 mm 0,0 UV-I 0 W/m 15,6 C 16,9 C 4,8 km/h (1 Bft) 100,00 %
24.07.2017 03:10 16,9 C 25,6 C 93 % 1012,6 hPa 0,2 l/m 0,1 km/h (0 Bft) S-SW 202 0 min 0,000 mm 0,0 UV-I 0 W/m 15,8 C 16,9 C 1,6 km/h (1 Bft) 97,87 %
24.07.2017 03:12 16,9 C 25,6 C 93 % 1012,5 hPa 0,2 l/m 1,9 km/h (1 Bft) S-SW 202 0 min 0,000 mm 0,0 UV-I 0 W/m 15,8 C 16,9 C 3,2 km/h (1 Bft) 100,00 %
24.07.2017 03:14 16,8 C 25,6 C 93 % 1012,5 hPa 0,0 l/m 2,4 km/h (1 Bft) S-SW 202 0 min 0,000 mm 0,0 UV-I 0 W/m 15,7 C 16,8 C 4,8 km/h (1 Bft) 100,00 %
24.07.2017 03:16 16,8 C 25,6 C 93 % 1012,5 hPa 0,2 l/m 2,1 km/h (1 Bft) S-SW 200 0 min 0,000 mm 0,0 UV-I 0 W/m 15,7 C 16,8 C 4,8 km/h (1 Bft) 97,87 %
24.07.2017 03:18 16,7 C 25,6 C 93 % 1012,4 hPa 0,2 l/m 1,0 km/h (0 Bft) S-SW 200 0 min 0,000 mm 0,0 UV-I 0 W/m 15,6 C 16,7 C 3,2 km/h (1 Bft) 95,74 %
24.07.2017 03:20 16,7 C 25,6 C 93 % 1012,4 hPa 0,2 l/m 0,6 km/h (0 Bft) S-SW 200 0 min 0,000 mm 0,0 UV-I 0 W/m 15,6 C 16,7 C 3,2 km/h (1 Bft) 100,00 %
24.07.2017 03:22 16,7 C 25,6 C 93 % 1012,5 hPa 0,2 l/m 3,0 km/h (1 Bft) W-NW 292 0 min 0,000 mm 0,0 UV-I 0 W/m 15,6 C 16,7 C 4,8 km/h (1 Bft) 97,87 %
24.07.2017 03:24 16,7 C 25,6 C 93 % 1012,5 hPa 0,6 l/m 4,3 km/h (1 Bft) W 279 0 min 0,000 mm 0,0 UV-I 0 W/m 15,6 C 16,7 C 6,4 km/h (2 Bft) 100,00 %
24.07.2017 03:26 16,6 C 25,0 C 93 % 1012,5 hPa 0,6 l/m 4,1 km/h (1 Bft) W 260 0 min 0,000 mm 0,0 UV-I 0 W/m 15,5 C 16,6 C 6,4 km/h (2 Bft) 95,74 %
24.07.2017 03:28 16,5 C 25,0 C 93 % 1012,4 hPa 0,8 l/m 2,5 km/h (1 Bft) S-SW 196 0 min 0,000 mm 0,0 UV-I 0 W/m 15,4 C 16,5 C 6,4 km/h (2 Bft) 100,00 %
24.07.2017 03:30 16,5 C 25,0 C 94 % 1012,4 hPa 0,6 l/m 0,0 km/h (0 Bft) S-SW 196 0 min 0,000 mm 0,0 UV-I 0 W/m 15,5 C 16,5 C 1,6 km/h (1 Bft) 97,22 %
24.07.2017 03:32 16,4 C 25,0 C 94 % 1012,4 hPa 0,2 l/m 1,5 km/h (1 Bft) S-SW 196 0 min 0,000 mm 0,0 UV-I 0 W/m 15,4 C 16,4 C 4,8 km/h (1 Bft) 100,00 %
24.07.2017 03:34 16,4 C 25,0 C 94 % 1012,4 hPa 0,2 l/m 1,5 km/h (1 Bft) S-SW 196 0 min 0,000 mm 0,0 UV-I 0 W/m 15,4 C 16,4 C 3,2 km/h (1 Bft) 97,87 %
24.07.2017 03:36 16,3 C 25,0 C 94 % 1012,3 hPa 0,2 l/m 0,1 km/h (0 Bft) S-SW 196 0 min 0,000 mm 0,0 UV-I 0 W/m 15,3 C 16,3 C 1,6 km/h (1 Bft) 100,00 %
24.07.2017 03:38 16,3 C 25,0 C 94 % 1012,3 hPa 0,0 l/m 0,3 km/h (0 Bft) S-SW 196 0 min 0,000 mm 0,0 UV-I 0 W/m 15,3 C 16,3 C 3,2 km/h (1 Bft) 95,74 %
24.07.2017 03:40 16,2 C 25,0 C 94 % 1012,3 hPa 0,2 l/m 0,4 km/h (0 Bft) S-SW 196 0 min 0,000 mm 0,0 UV-I 0 W/m 15,2 C 16,2 C 3,2 km/h (1 Bft) 97,87 %
24.07.2017 03:42 16,2 C 25,0 C 94 % 1012,3 hPa 0,0 l/m 0,8 km/h (0 Bft) S-SW 196 0 min 0,000 mm 0,0 UV-I 0 W/m 15,2 C 16,2 C 1,6 km/h (1 Bft) 100,00 %
24.07.2017 03:44 16,2 C 25,0 C 94 % 1012,2 hPa 0,2 l/m 1,4 km/h (1 Bft) S-SW 196 0 min 0,000 mm 0,0 UV-I 0 W/m 15,2 C 16,2 C 4,8 km/h (1 Bft) 96,00 %
24.07.2017 03:46 16,2 C 25,0 C 94 % 1012,2 hPa 0,0 l/m 4,3 km/h (1 Bft) S-SW 196 0 min 0,000 mm 0,0 UV-I 0 W/m 15,2 C 16,2 C 6,4 km/h (2 Bft) 100,00 %
24.07.2017 03:48 16,2 C 25,0 C 94 % 1012,2 hPa 0,0 l/m 5,3 km/h (1 Bft) NO 42 0 min 0,000 mm 0,0 UV-I 0 W/m 15,2 C 16,2 C 8,0 km/h (2 Bft) 97,87 %
24.07.2017 03:50 16,2 C 25,0 C 94 % 1012,2 hPa 0,0 l/m 3,5 km/h (1 Bft) NO 42 0 min 0,000 mm 0,0 UV-I 0 W/m 15,2 C 16,2 C 6,4 km/h (2 Bft) 100,00 %
24.07.2017 03:52 16,2 C 25,0 C 94 % 1012,2 hPa 0,2 l/m 2,9 km/h (1 Bft) NO 42 0 min 0,000 mm 0,0 UV-I 0 W/m 15,2 C 16,2 C 4,8 km/h (1 Bft) 98,15 %
24.07.2017 03:54 16,2 C 25,0 C 95 % 1012,2 hPa 0,0 l/m 3,4 km/h (1 Bft) NO 44 0 min 0,000 mm 0,0 UV-I 0 W/m 15,4 C 16,2 C 4,8 km/h (1 Bft) 100,00 %
24.07.2017 03:56 16,2 C 25,0 C 95 % 1012,2 hPa 0,0 l/m 4,1 km/h (1 Bft) O 89 0 min 0,000 mm 0,0 UV-I 0 W/m 15,4 C 16,2 C 6,4 km/h (2 Bft) 96,00 %
24.07.2017 03:58 16,2 C 25,0 C 95 % 1012,2 hPa 0,0 l/m 4,9 km/h (1 Bft) O-SO 106 0 min 0,000 mm 0,0 UV-I 0 W/m 15,4 C 16,2 C 6,4 km/h (2 Bft) 95,74 %
24.07.2017 04:00 16,2 C 25,0 C 95 % 1012,1 hPa 0,0 l/m 5,0 km/h (1 Bft) O 100 0 min 0,000 mm 0,0 UV-I 0 W/m 15,4 C 16,2 C 6,4 km/h (2 Bft) 95,74 %
24.07.2017 04:02 16,2 C 25,0 C 95 % 1012,0 hPa 0,2 l/m 5,6 km/h (1 Bft) O 99 0 min 0,000 mm 0,0 UV-I 0 W/m 15,4 C 16,2 C 9,7 km/h (2 Bft) 100,00 %
24.07.2017 04:04 16,2 C 25,0 C 95 % 1012,1 hPa 0,0 l/m 5,0 km/h (1 Bft) O 99 0 min 0,000 mm 0,0 UV-I 0 W/m 15,4 C 16,2 C 6,4 km/h (2 Bft) 94,00 %
24.07.2017 04:06 16,2 C 25,0 C 95 % 1012,1 hPa 0,0 l/m 5,0 km/h (1 Bft) O 91 0 min 0,000 mm 0,0 UV-I 0 W/m 15,4 C 16,2 C 6,4 km/h (2 Bft) 97,87 %
24.07.2017 04:08 16,1 C 25,0 C 95 % 1012,0 hPa 0,0 l/m 5,1 km/h (1 Bft) O 101 0 min 0,000 mm 0,0 UV-I 0 W/m 15,3 C 16,1 C 6,4 km/h (2 Bft) 97,22 %
24.07.2017 04:10 16,1 C 25,0 C 95 % 1011,9 hPa 0,0 l/m 6,5 km/h (2 Bft) O 82 0 min 0,000 mm 0,0 UV-I 0 W/m 15,3 C 16,1 C 9,7 km/h (2 Bft) 95,74 %
24.07.2017 04:12 16,1 C 25,0 C 95 % 1011,9 hPa 0,0 l/m 5,9 km/h (2 Bft) O-SO 105 0 min 0,000 mm 0,0 UV-I 0 W/m 15,3 C 16,1 C 9,7 km/h (2 Bft) 95,74 %
24.07.2017 04:14 16,1 C 25,0 C 95 % 1011,9 hPa 0,0 l/m 6,6 km/h (2 Bft) O-SO 109 0 min 0,000 mm 0,0 UV-I 0 W/m 15,3 C 16,0 C 9,7 km/h (2 Bft) 95,74 %
24.07.2017 04:16 16,1 C 25,0 C 95 % 1011,9 hPa 0,0 l/m 6,8 km/h (2 Bft) O-SO 123 0 min 0,000 mm 0,0 UV-I 0 W/m 15,3 C 15,9 C 9,7 km/h (2 Bft) 93,62 %
24.07.2017 04:18 16,1 C 25,0 C 95 % 1011,8 hPa 0,0 l/m 4,5 km/h (1 Bft) O-SO 121 0 min 0,000 mm 0,0 UV-I 0 W/m 15,3 C 16,1 C 6,4 km/h (2 Bft) 94,00 %
24.07.2017 04:20 16,1 C 25,0 C 95 % 1011,7 hPa 0,0 l/m 4,9 km/h (1 Bft) O-SO 104 0 min 0,000 mm 0,0 UV-I 0 W/m 15,3 C 16,1 C 6,4 km/h (2 Bft) 95,74 %
24.07.2017 04:22 16,1 C 25,0 C 95 % 1011,6 hPa 0,0 l/m 2,5 km/h (1 Bft) O-SO 104 0 min 0,000 mm 0,0 UV-I 0 W/m 15,3 C 16,1 C 3,2 km/h (1 Bft) 96,00 %
24.07.2017 04:24 16,1 C 25,0 C 95 % 1011,6 hPa 0,0 l/m 4,0 km/h (1 Bft) O 81 0 min 0,000 mm 0,0 UV-I 0 W/m 15,3 C 16,1 C 8,0 km/h (2 Bft) 91,49 %
24.07.2017 04:26 16,0 C 25,0 C 95 % 1011,6 hPa 0,0 l/m 4,8 km/h (1 Bft) O-NO 76 0 min 0,000 mm 0,0 UV-I 0 W/m 15,2 C 16,0 C 6,4 km/h (2 Bft) 93,62 %
24.07.2017 04:28 16,1 C 25,0 C 95 % 1011,6 hPa 0,0 l/m 5,4 km/h (1 Bft) O 81 0 min 0,000 mm 0,0 UV-I 0 W/m 15,3 C 16,1 C 8,0 km/h (2 Bft) 97,87 %
24.07.2017 04:30 16,1 C 25,0 C 95 % 1011,7 hPa 0,0 l/m 4,4 km/h (1 Bft) O-SO 109 0 min 0,000 mm 0,0 UV-I 0 W/m 15,3 C 16,1 C 6,4 km/h (2 Bft) 97,87 %
24.07.2017 04:32 16,1 C 25,0 C 95 % 1011,7 hPa 0,0 l/m 3,8 km/h (1 Bft) O-SO 114 0 min 0,000 mm 0,0 UV-I 0 W/m 15,3 C 16,1 C 4,8 km/h (1 Bft) 96,00 %
24.07.2017 04:34 16,1 C 25,0 C 95 % 1011,7 hPa 0,0 l/m 1,5 km/h (1 Bft) O-SO 114 0 min 0,000 mm 0,0 UV-I 0 W/m 15,3 C 16,1 C 3,2 km/h (1 Bft) 94,29 %
24.07.2017 04:36 16,1 C 25,0 C 95 % 1011,6 hPa 0,0 l/m 2,2 km/h (1 Bft) O-SO 114 0 min 0,000 mm 0,0 UV-I 0 W/m 15,3 C 16,1 C 3,2 km/h (1 Bft) 96,00 %
24.07.2017 04:38 16,1 C 25,0 C 95 % 1011,6 hPa 0,0 l/m 1,8 km/h (1 Bft) O-SO 114 0 min 0,000 mm 0,0 UV-I 0 W/m 15,3 C 16,1 C 3,2 km/h (1 Bft) 97,87 %
24.07.2017 04:40 16,1 C 25,0 C 95 % 1011,6 hPa 0,0 l/m 0,7 km/h (0 Bft) O-SO 114 0 min 0,000 mm 0,0 UV-I 0 W/m 15,3 C 16,1 C 3,2 km/h (1 Bft) 93,62 %
24.07.2017 04:42 16,1 C 25,0 C 95 % 1011,6 hPa 0,0 l/m 0,2 km/h (0 Bft) O-SO 114 0 min 0,000 mm 0,0 UV-I 0 W/m 15,3 C 16,1 C 1,6 km/h (1 Bft) 97,87 %
24.07.2017 04:44 16,1 C 25,0 C 95 % 1011,6 hPa 0,0 l/m 0,5 km/h (0 Bft) O-SO 114 0 min 0,000 mm 0,0 UV-I 0 W/m 15,3 C 16,1 C 3,2 km/h (1 Bft) 95,74 %
24.07.2017 04:46 16,1 C 25,0 C 95 % 1011,5 hPa 0,0 l/m 0,8 km/h (0 Bft) O-SO 114 0 min 0,000 mm 0,0 UV-I 0 W/m 15,3 C 16,1 C 3,2 km/h (1 Bft) 93,62 %
24.07.2017 04:48 16,1 C 25,0 C 95 % 1011,5 hPa 0,0 l/m 0,4 km/h (0 Bft) O-SO 114 0 min 0,000 mm 0,0 UV-I 0 W/m 15,3 C 16,1 C 1,6 km/h (1 Bft) 97,87 %
24.07.2017 04:50 16,1 C 25,0 C 95 % 1011,5 hPa 0,0 l/m 0,0 km/h (0 Bft) O-SO 114 0 min 0,000 mm 0,0 UV-I 0 W/m 15,3 C 16,1 C 1,6 km/h (1 Bft) 95,83 %
24.07.2017 04:52 16,1 C 25,0 C 95 % 1011,5 hPa 0,0 l/m 0,2 km/h (0 Bft) O-SO 114 0 min 0,000 mm 0,0 UV-I 0 W/m 15,3 C 16,1 C 1,6 km/h (1 Bft) 95,74 %
24.07.2017 04:54 16,1 C 25,0 C 95 % 1011,5 hPa 0,0 l/m 0,0 km/h (0 Bft) O-SO 114 0 min 0,000 mm 0,0 UV-I 0 W/m 15,3 C 16,1 C 0,0 km/h (0 Bft) 95,74 %
24.07.2017 04:56 16,2 C 25,0 C 95 % 1011,5 hPa 0,0 l/m 0,5 km/h (0 Bft) O-SO 114 0 min 0,000 mm 0,0 UV-I 0 W/m 15,4 C 16,2 C 3,2 km/h (1 Bft) 97,87 %
24.07.2017 04:58 16,2 C 25,0 C 95 % 1011,4 hPa 0,0 l/m 0,1 km/h (0 Bft) O-SO 114 0 min 0,000 mm 0,0 UV-I 0 W/m 15,4 C 16,2 C 1,6 km/h (1 Bft) 95,74 %
24.07.2017 05:00 16,1 C 25,0 C 95 % 1011,3 hPa 0,0 l/m 0,0 km/h (0 Bft) O-SO 114 0 min 0,000 mm 0,0 UV-I 0 W/m 15,3 C 16,1 C 1,6 km/h (1 Bft) 95,74 %
24.07.2017 05:02 16,2 C 25,0 C 95 % 1011,3 hPa 0,0 l/m 1,8 km/h (1 Bft) O-SO 114 0 min 0,000 mm 0,0 UV-I 0 W/m 15,4 C 16,2 C 3,2 km/h (1 Bft) 97,87 %
24.07.2017 05:04 16,2 C 25,0 C 95 % 1011,3 hPa 0,0 l/m 2,0 km/h (1 Bft) O-SO 114 0 min 0,000 mm 0,0 UV-I 0 W/m 15,4 C 16,2 C 3,2 km/h (1 Bft) 93,62 %
24.07.2017 05:06 16,2 C 25,0 C 95 % 1011,2 hPa 0,0 l/m 3,0 km/h (1 Bft) O-SO 114 0 min 0,000 mm 0,0 UV-I 0 W/m 15,4 C 16,2 C 4,8 km/h (1 Bft) 95,74 %
24.07.2017 05:08 16,2 C 25,0 C 95 % 1011,1 hPa 0,0 l/m 1,8 km/h (1 Bft) O-SO 114 0 min 0,000 mm 0,0 UV-I 0 W/m 15,4 C 16,2 C 3,2 km/h (1 Bft) 95,74 %
24.07.2017 05:10 16,1 C 25,0 C 95 % 1011,1 hPa 0,0 l/m 2,7 km/h (1 Bft) O-SO 114 0 min 0,000 mm 0,0 UV-I 0 W/m 15,3 C 16,1 C 4,8 km/h (1 Bft) 95,74 %
24.07.2017 05:12 16,1 C 25,0 C 95 % 1011,0 hPa 0,0 l/m 2,7 km/h (1 Bft) O-SO 114 0 min 0,000 mm 0,0 UV-I 0 W/m 15,3 C 16,1 C 4,8 km/h (1 Bft) 95,74 %
24.07.2017 05:14 16,1 C 25,0 C 95 % 1010,9 hPa 0,0 l/m 2,7 km/h (1 Bft) O-SO 114 0 min 0,000 mm 0,0 UV-I 0 W/m 15,3 C 16,1 C 4,8 km/h (1 Bft) 97,87 %
24.07.2017 05:16 16,1 C 25,0 C 95 % 1010,8 hPa 0,0 l/m 3,4 km/h (1 Bft) O-SO 114 0 min 0,000 mm 0,0 UV-I 0 W/m 15,3 C 16,1 C 4,8 km/h (1 Bft) 95,74 %
24.07.2017 05:18 16,1 C 25,0 C 95 % 1010,8 hPa 0,0 l/m 3,4 km/h (1 Bft) O-SO 114 0 min 0,000 mm 0,0 UV-I 0 W/m 15,3 C 16,1 C 4,8 km/h (1 Bft) 97,87 %
24.07.2017 05:20 16,1 C 25,0 C 95 % 1010,8 hPa 0,0 l/m 3,4 km/h (1 Bft) O-SO 114 0 min 0,000 mm 0,0 UV-I 0 W/m 15,3 C 16,1 C 4,8 km/h (1 Bft) 98,00 %
24.07.2017 05:22 16,1 C 25,0 C 95 % 1010,7 hPa 0,0 l/m 3,2 km/h (1 Bft) O-SO 114 0 min 0,000 mm 0,0 UV-I 0 W/m 15,3 C 16,1 C 4,8 km/h (1 Bft) 97,87 %
24.07.2017 05:24 16,1 C 25,0 C 95 % 1010,7 hPa 0,0 l/m 2,4 km/h (1 Bft) O-SO 114 0 min 0,000 mm 0,0 UV-I 0 W/m 15,3 C 16,1 C 4,8 km/h (1 Bft) 100,00 %
24.07.2017 05:26 16,1 C 25,0 C 95 % 1010,6 hPa 0,0 l/m 0,2 km/h (0 Bft) O-SO 114 0 min 0,000 mm 0,0 UV-I 3 W/m 15,3 C 16,1 C 1,6 km/h (1 Bft) 97,87 %
24.07.2017 05:28 16,1 C 25,0 C 95 % 1010,7 hPa 0,0 l/m 0,7 km/h (0 Bft) O-SO 114 0 min 0,000 mm 0,0 UV-I 5 W/m 15,3 C 16,1 C 3,2 km/h (1 Bft) 97,87 %
24.07.2017 05:30 16,1 C 25,0 C 96 % 1010,7 hPa 0,0 l/m 0,6 km/h (0 Bft) O-SO 114 0 min 0,000 mm 0,0 UV-I 5 W/m 15,5 C 16,1 C 3,2 km/h (1 Bft) 97,30 %
24.07.2017 05:32 16,2 C 25,0 C 96 % 1010,8 hPa 0,0 l/m 0,9 km/h (0 Bft) O-SO 114 0 min 0,000 mm 0,0 UV-I 4 W/m 15,6 C 16,2 C 3,2 km/h (1 Bft) 96,00 %
24.07.2017 05:34 16,2 C 25,0 C 96 % 1010,8 hPa 0,0 l/m 1,4 km/h (1 Bft) O-SO 115 0 min 0,000 mm 0,0 UV-I 0 W/m 15,6 C 16,2 C 3,2 km/h (1 Bft) 100,00 %
24.07.2017 05:36 16,2 C 25,0 C 96 % 1010,7 hPa 0,0 l/m 1,1 km/h (1 Bft) O-SO 115 0 min 0,000 mm 0,0 UV-I 0 W/m 15,6 C 16,2 C 3,2 km/h (1 Bft) 97,87 %
24.07.2017 05:38 16,2 C 25,0 C 96 % 1010,7 hPa 0,0 l/m 1,1 km/h (1 Bft) O-SO 115 0 min 0,000 mm 0,0 UV-I 0 W/m 15,6 C 16,2 C 3,2 km/h (1 Bft) 97,87 %
24.07.2017 05:40 16,2 C 25,0 C 96 % 1010,7 hPa 0,0 l/m 0,3 km/h (0 Bft) O-SO 115 0 min 0,000 mm 0,0 UV-I 0 W/m 15,6 C 16,2 C 1,6 km/h (1 Bft) 100,00 %
24.07.2017 05:42 16,2 C 25,0 C 96 % 1010,6 hPa 0,0 l/m 0,2 km/h (0 Bft) O-SO 115 0 min 0,000 mm 0,0 UV-I 5 W/m 15,6 C 16,2 C 1,6 km/h (1 Bft) 98,00 %
24.07.2017 05:44 16,3 C 25,0 C 96 % 1010,6 hPa 0,0 l/m 0,1 km/h (0 Bft) O-SO 115 0 min 0,000 mm 0,0 UV-I 5 W/m 15,7 C 16,3 C 1,6 km/h (1 Bft) 100,00 %
24.07.2017 05:46 16,3 C 25,0 C 96 % 1010,6 hPa 0,0 l/m 0,4 km/h (0 Bft) O-SO 115 0 min 0,000 mm 0,0 UV-I 5 W/m 15,7 C 16,3 C 3,2 km/h (1 Bft) 98,00 %
24.07.2017 05:48 16,3 C 25,0 C 96 % 1010,5 hPa 0,0 l/m 0,5 km/h (0 Bft) O-SO 115 0 min 0,000 mm 0,0 UV-I 5 W/m 15,7 C 16,3 C 1,6 km/h (1 Bft) 100,00 %
24.07.2017 05:50 16,3 C 25,0 C 96 % 1010,5 hPa 0,0 l/m 0,9 km/h (0 Bft) O-SO 115 0 min 0,000 mm 0,0 UV-I 5 W/m 15,7 C 16,3 C 3,2 km/h (1 Bft) 93,62 %
24.07.2017 05:52 16,3 C 25,0 C 96 % 1010,5 hPa 0,0 l/m 2,4 km/h (1 Bft) O-SO 115 0 min 0,000 mm 0,0 UV-I 5 W/m 15,7 C 16,3 C 4,8 km/h (1 Bft) 100,00 %
24.07.2017 05:54 16,3 C 25,0 C 96 % 1010,5 hPa 0,0 l/m 0,7 km/h (0 Bft) O-SO 115 0 min 0,000 mm 0,0 UV-I 5 W/m 15,7 C 16,3 C 3,2 km/h (1 Bft) 95,74 %
24.07.2017 05:56 16,3 C 25,0 C 96 % 1010,4 hPa 0,0 l/m 1,6 km/h (1 Bft) O-SO 115 0 min 0,000 mm 0,0 UV-I 5 W/m 15,7 C 16,3 C 3,2 km/h (1 Bft) 97,87 %
24.07.2017 05:58 16,3 C 25,0 C 96 % 1010,4 hPa 0,0 l/m 0,9 km/h (0 Bft) O-SO 115 0 min 0,000 mm 0,0 UV-I 6 W/m 15,7 C 16,3 C 3,2 km/h (1 Bft) 93,62 %
24.07.2017 06:00 16,3 C 25,0 C 96 % 1010,4 hPa 0,0 l/m 2,2 km/h (1 Bft) O-SO 115 0 min 0,000 mm 0,0 UV-I 7 W/m 15,7 C 16,3 C 3,2 km/h (1 Bft) 95,74 %
24.07.2017 06:02 16,3 C 25,0 C 96 % 1010,3 hPa 0,0 l/m 3,0 km/h (1 Bft) O-SO 115 0 min 0,000 mm 0,0 UV-I 7 W/m 15,7 C 16,3 C 4,8 km/h (1 Bft) 94,00 %
24.07.2017 06:04 16,3 C 25,0 C 96 % 1010,3 hPa 0,0 l/m 2,4 km/h (1 Bft) O-SO 115 0 min 0,000 mm 0,0 UV-I 9 W/m 15,7 C 16,3 C 4,8 km/h (1 Bft) 97,87 %
24.07.2017 06:06 16,4 C 25,0 C 96 % 1010,3 hPa 0,0 l/m 1,3 km/h (1 Bft) O-SO 115 0 min 0,000 mm 0,0 UV-I 10 W/m 15,8 C 16,4 C 3,2 km/h (1 Bft) 94,87 %
24.07.2017 06:08 16,4 C 25,0 C 96 % 1010,3 hPa 0,0 l/m 0,8 km/h (0 Bft) O-SO 115 0 min 0,000 mm 0,0 UV-I 11 W/m 15,8 C 16,4 C 1,6 km/h (1 Bft) 96,00 %
24.07.2017 06:10 16,4 C 25,0 C 96 % 1010,3 hPa 0,0 l/m 0,0 km/h (0 Bft) O-SO 115 0 min 0,000 mm 0,0 UV-I 11 W/m 15,8 C 16,4 C 0,0 km/h (0 Bft) 91,49 %
24.07.2017 06:12 16,3 C 25,0 C 96 % 1010,3 hPa 0,0 l/m 0,0 km/h (0 Bft) O-SO 115 0 min 0,000 mm 0,0 UV-I 12 W/m 15,7 C 16,3 C 0,0 km/h (0 Bft) 93,62 %
24.07.2017 06:14 16,3 C 25,0 C 96 % 1010,3 hPa 0,0 l/m 0,0 km/h (0 Bft) O-SO 115 0 min 0,000 mm 0,0 UV-I 12 W/m 15,7 C 16,3 C 0,0 km/h (0 Bft) 96,00 %
24.07.2017 06:16 16,4 C 25,0 C 96 % 1010,3 hPa 0,0 l/m 0,0 km/h (0 Bft) O-SO 115 0 min 0,000 mm 0,0 UV-I 12 W/m 15,8 C 16,4 C 0,0 km/h (0 Bft) 95,74 %
24.07.2017 06:18 16,4 C 25,0 C 96 % 1010,3 hPa 0,0 l/m 0,5 km/h (0 Bft) O-SO 115 0 min 0,000 mm 0,0 UV-I 11 W/m 15,8 C 16,4 C 1,6 km/h (1 Bft) 95,65 %
24.07.2017 06:20 16,4 C 25,0 C 96 % 1010,3 hPa 0,0 l/m 2,0 km/h (1 Bft) O-SO 115 0 min 0,000 mm 0,0 UV-I 10 W/m 15,8 C 16,4 C 3,2 km/h (1 Bft) 96,92 %
24.07.2017 06:22 16,4 C 25,0 C 96 % 1010,3 hPa 0,0 l/m 2,2 km/h (1 Bft) O-SO 114 0 min 0,000 mm 0,0 UV-I 9 W/m 15,8 C 16,4 C 3,2 km/h (1 Bft) 98,00 %
24.07.2017 06:24 16,4 C 25,0 C 96 % 1010,3 hPa 0,0 l/m 2,9 km/h (1 Bft) W-NW 290 0 min 0,000 mm 0,0 UV-I 9 W/m 15,8 C 16,4 C 4,8 km/h (1 Bft) 95,74 %
24.07.2017 06:26 16,3 C 25,0 C 96 % 1010,4 hPa 0,0 l/m 3,7 km/h (1 Bft) W-NW 287 0 min 0,000 mm 0,0 UV-I 9 W/m 15,7 C 16,3 C 6,4 km/h (2 Bft) 93,75 %
24.07.2017 06:28 16,4 C 25,0 C 96 % 1010,3 hPa 0,0 l/m 2,8 km/h (1 Bft) W-NW 287 0 min 0,000 mm 0,0 UV-I 9 W/m 15,8 C 16,4 C 4,8 km/h (1 Bft) 97,87 %
24.07.2017 06:30 16,4 C 25,0 C 96 % 1010,3 hPa 0,0 l/m 3,5 km/h (1 Bft) W-NW 284 0 min 0,000 mm 0,0 UV-I 9 W/m 15,8 C 16,4 C 4,8 km/h (1 Bft) 100,00 %
24.07.2017 06:32 16,4 C 25,0 C 96 % 1010,3 hPa 0,0 l/m 2,7 km/h (1 Bft) W-NW 284 0 min 0,000 mm 0,0 UV-I 9 W/m 15,8 C 16,4 C 4,8 km/h (1 Bft) 100,00 %
24.07.2017 06:34 16,4 C 25,0 C 96 % 1010,3 hPa 0,0 l/m 1,9 km/h (1 Bft) W-NW 284 0 min 0,000 mm 0,0 UV-I 10 W/m 15,8 C 16,4 C 3,2 km/h (1 Bft) 100,00 %
24.07.2017 06:36 16,3 C 25,0 C 96 % 1010,3 hPa 0,0 l/m 1,3 km/h (1 Bft) W-NW 284 0 min 0,000 mm 0,0 UV-I 11 W/m 15,7 C 16,3 C 3,2 km/h (1 Bft) 97,92 %
24.07.2017 06:38 16,3 C 25,0 C 96 % 1010,3 hPa 0,0 l/m 0,7 km/h (0 Bft) W-NW 284 0 min 0,000 mm 0,0 UV-I 11 W/m 15,7 C 16,3 C 3,2 km/h (1 Bft) 95,74 %
24.07.2017 06:40 16,3 C 25,0 C 96 % 1010,2 hPa 0,2 l/m 0,0 km/h (0 Bft) W-NW 284 0 min 0,000 mm 0,0 UV-I 11 W/m 15,7 C 16,3 C 0,0 km/h (0 Bft) 100,00 %
24.07.2017 06:42 16,3 C 25,0 C 96 % 1010,2 hPa 0,0 l/m 1,1 km/h (1 Bft) W-NW 292 0 min 0,000 mm 0,0 UV-I 12 W/m 15,7 C 16,3 C 4,8 km/h (1 Bft) 97,87 %
24.07.2017 06:44 16,3 C 25,0 C 96 % 1010,1 hPa 0,0 l/m 1,1 km/h (1 Bft) W-NW 300 0 min 0,000 mm 0,0 UV-I 14 W/m 15,7 C 16,3 C 3,2 km/h (1 Bft) 95,74 %
24.07.2017 06:46 16,3 C 25,0 C 96 % 1010,0 hPa 0,2 l/m 0,5 km/h (0 Bft) NW 306 0 min 0,000 mm 0,0 UV-I 16 W/m 15,7 C 16,3 C 3,2 km/h (1 Bft) 95,83 %
24.07.2017 06:48 16,3 C 25,0 C 96 % 1010,0 hPa 0,2 l/m 0,2 km/h (0 Bft) NW 306 0 min 0,000 mm 0,0 UV-I 18 W/m 15,7 C 16,3 C 1,6 km/h (1 Bft) 97,87 %
24.07.2017 06:50 16,3 C 25,0 C 96 % 1010,0 hPa 0,2 l/m 1,5 km/h (1 Bft) NW 321 0 min 0,000 mm 0,0 UV-I 19 W/m 15,7 C 16,3 C 6,4 km/h (2 Bft) 100,00 %
24.07.2017 06:52 16,3 C 25,0 C 96 % 1010,0 hPa 0,0 l/m 1,5 km/h (1 Bft) N-NW 343 0 min 0,000 mm 0,0 UV-I 20 W/m 15,7 C 16,3 C 4,8 km/h (1 Bft) 97,87 %
24.07.2017 06:54 16,2 C 25,0 C 96 % 1010,0 hPa 0,2 l/m 0,4 km/h (0 Bft) N-NW 343 0 min 0,000 mm 0,0 UV-I 21 W/m 15,6 C 16,2 C 3,2 km/h (1 Bft) 100,00 %
24.07.2017 06:56 16,2 C 25,0 C 96 % 1009,9 hPa 0,0 l/m 1,2 km/h (1 Bft) N-NW 343 0 min 0,000 mm 0,0 UV-I 21 W/m 15,6 C 16,2 C 3,2 km/h (1 Bft) 100,00 %
24.07.2017 06:58 16,2 C 25,0 C 96 % 1009,9 hPa 0,2 l/m 0,8 km/h (0 Bft) N-NW 342 0 min 0,000 mm 0,0 UV-I 21 W/m 15,6 C 16,2 C 1,6 km/h (1 Bft) 97,87 %
24.07.2017 07:00 16,2 C 25,0 C 96 % 1009,9 hPa 0,2 l/m 1,1 km/h (1 Bft) N-NW 339 0 min 0,000 mm 0,0 UV-I 19 W/m 15,6 C 16,2 C 3,2 km/h (1 Bft) 100,00 %
24.07.2017 07:02 16,1 C 25,0 C 96 % 1009,8 hPa 0,0 l/m 2,8 km/h (1 Bft) N-NW 335 0 min 0,000 mm 0,0 UV-I 19 W/m 15,5 C 16,1 C 6,4 km/h (2 Bft) 97,87 %
24.07.2017 07:04 16,1 C 25,0 C 96 % 1009,8 hPa 0,2 l/m 1,1 km/h (1 Bft) N-NW 338 0 min 0,000 mm 0,0 UV-I 19 W/m 15,5 C 16,1 C 3,2 km/h (1 Bft) 97,87 %
24.07.2017 07:06 16,1 C 25,0 C 96 % 1009,7 hPa 0,0 l/m 0,6 km/h (0 Bft) N-NW 338 0 min 0,000 mm 0,0 UV-I 21 W/m 15,5 C 16,1 C 3,2 km/h (1 Bft) 97,87 %
24.07.2017 07:08 16,1 C 25,0 C 96 % 1009,7 hPa 0,2 l/m 0,9 km/h (0 Bft) N-NW 340 0 min 0,000 mm 0,0 UV-I 23 W/m 15,5 C 16,1 C 3,2 km/h (1 Bft) 100,00 %
24.07.2017 07:10 16,2 C 25,0 C 96 % 1009,7 hPa 0,2 l/m 0,5 km/h (0 Bft) N-NW 339 0 min 0,000 mm 0,0 UV-I 22 W/m 15,6 C 16,2 C 1,6 km/h (1 Bft) 100,00 %
24.07.2017 07:12 16,2 C 25,0 C 96 % 1009,7 hPa 0,0 l/m 0,8 km/h (0 Bft) NW 308 0 min 0,000 mm 0,0 UV-I 19 W/m 15,6 C 16,2 C 3,2 km/h (1 Bft) 100,00 %
24.07.2017 07:14 16,2 C 25,0 C 96 % 1009,7 hPa 0,2 l/m 1,2 km/h (1 Bft) N-NW 329 0 min 0,000 mm 0,0 UV-I 18 W/m 15,6 C 16,2 C 4,8 km/h (1 Bft) 97,37 %
24.07.2017 07:16 16,2 C 25,0 C 96 % 1009,7 hPa 0,0 l/m 0,6 km/h (0 Bft) N-NW 329 0 min 0,000 mm 0,0 UV-I 14 W/m 15,6 C 16,2 C 3,2 km/h (1 Bft) 97,87 %
24.07.2017 07:18 16,2 C 25,0 C 96 % 1009,5 hPa 0,2 l/m 1,3 km/h (1 Bft) N-NW 329 0 min 0,000 mm 0,0 UV-I 14 W/m 15,6 C 16,2 C 3,2 km/h (1 Bft) 100,00 %
24.07.2017 07:20 16,1 C 25,0 C 96 % 1009,5 hPa 0,0 l/m 0,6 km/h (0 Bft) N-NW 329 0 min 0,000 mm 0,0 UV-I 14 W/m 15,5 C 16,1 C 3,2 km/h (1 Bft) 97,87 %
24.07.2017 07:23 16,2 C 25,0 C 96 % 1009,3 hPa 0,2 l/m 4,3 km/h (1 Bft) N-NO 29 0 min 0,000 mm 0,0 UV-I 16 W/m 15,6 C 16,2 C 8,0 km/h (2 Bft) 98,65 %
24.07.2017 07:24 16,2 C 25,0 C 96 % 1009,2 hPa 0,0 l/m 7,2 km/h (2 Bft) N-NO 26 0 min 0,000 mm 0,0 UV-I 16 W/m 15,6 C 15,8 C 8,0 km/h (2 Bft) 95,65 %
24.07.2017 07:26 16,2 C 25,0 C 96 % 1009,2 hPa 0,0 l/m 6,2 km/h (2 Bft) N-NO 28 0 min 0,000 mm 0,0 UV-I 13 W/m 15,6 C 16,2 C 9,7 km/h (2 Bft) 95,83 %
24.07.2017 07:28 16,2 C 25,0 C 96 % 1009,2 hPa 0,2 l/m 6,1 km/h (2 Bft) N-NO 25 0 min 0,000 mm 0,0 UV-I 15 W/m 15,6 C 16,2 C 11,3 km/h (2 Bft) 97,96 %
24.07.2017 07:30 16,2 C 25,0 C 96 % 1009,2 hPa 0,0 l/m 2,6 km/h (1 Bft) N-NO 22 0 min 0,000 mm 0,0 UV-I 15 W/m 15,6 C 16,2 C 4,8 km/h (1 Bft) 95,92 %
24.07.2017 07:32 16,2 C 25,0 C 96 % 1009,3 hPa 0,2 l/m 3,0 km/h (1 Bft) N-NO 20 0 min 0,000 mm 0,0 UV-I 12 W/m 15,6 C 16,2 C 4,8 km/h (1 Bft) 97,87 %
24.07.2017 07:34 16,2 C 25,0 C 96 % 1009,3 hPa 0,2 l/m 4,8 km/h (1 Bft) N-NO 13 0 min 0,000 mm 0,0 UV-I 13 W/m 15,6 C 16,2 C 6,4 km/h (2 Bft) 95,74 %
24.07.2017 07:36 16,1 C 25,0 C 96 % 1009,3 hPa 0,0 l/m 2,1 km/h (1 Bft) N-NO 13 0 min 0,000 mm 0,0 UV-I 13 W/m 15,5 C 16,1 C 4,8 km/h (1 Bft) 97,14 %
24.07.2017 07:38 16,1 C 25,0 C 96 % 1009,3 hPa 0,0 l/m 0,9 km/h (0 Bft) N 11 0 min 0,000 mm 0,0 UV-I 15 W/m 15,5 C 16,1 C 3,2 km/h (1 Bft) 100,00 %
24.07.2017 07:40 16,0 C 25,0 C 96 % 1009,2 hPa 0,2 l/m 2,6 km/h (1 Bft) N 11 0 min 0,000 mm 0,0 UV-I 19 W/m 15,4 C 16,0 C 4,8 km/h (1 Bft) 100,00 %
24.07.2017 07:42 16,0 C 25,0 C 96 % 1009,2 hPa 0,0 l/m 1,0 km/h (0 Bft) N 11 0 min 0,000 mm 0,0 UV-I 26 W/m 15,4 C 16,0 C 4,8 km/h (1 Bft) 97,87 %
24.07.2017 07:44 16,0 C 25,0 C 96 % 1009,2 hPa 0,0 l/m 0,3 km/h (0 Bft) N 11 0 min 0,000 mm 0,0 UV-I 34 W/m 15,4 C 16,0 C 1,6 km/h (1 Bft) 90,00 %
24.07.2017 07:46 16,1 C 25,0 C 96 % 1009,1 hPa 0,0 l/m 0,2 km/h (0 Bft) N 11 0 min 0,000 mm 0,0 UV-I 37 W/m 15,5 C 16,1 C 3,2 km/h (1 Bft) 98,00 %
24.07.2017 07:48 16,1 C 25,0 C 96 % 1009,1 hPa 0,0 l/m 1,4 km/h (1 Bft) NO 34 0 min 0,000 mm 0,0 UV-I 39 W/m 15,5 C 16,1 C 6,4 km/h (2 Bft) 100,00 %
24.07.2017 07:50 16,1 C 25,0 C 96 % 1009,0 hPa 0,0 l/m 6,3 km/h (2 Bft) NO 35 0 min 0,000 mm 0,0 UV-I 36 W/m 15,5 C 16,1 C 8,0 km/h (2 Bft) 95,74 %
24.07.2017 07:52 16,1 C 25,0 C 96 % 1009,0 hPa 0,0 l/m 5,0 km/h (1 Bft) NO 34 0 min 0,000 mm 0,0 UV-I 33 W/m 15,5 C 16,1 C 8,0 km/h (2 Bft) 100,00 %
24.07.2017 07:54 16,1 C 25,0 C 96 % 1009,0 hPa 0,0 l/m 5,1 km/h (1 Bft) NO 42 0 min 0,000 mm 0,0 UV-I 32 W/m 15,5 C 16,1 C 8,0 km/h (2 Bft) 91,49 %
24.07.2017 07:56 16,1 C 25,0 C 96 % 1009,0 hPa 0,0 l/m 5,2 km/h (1 Bft) NO 46 0 min 0,000 mm 0,0 UV-I 30 W/m 15,5 C 16,1 C 6,4 km/h (2 Bft) 95,74 %
24.07.2017 07:58 16,1 C 25,0 C 96 % 1008,9 hPa 0,0 l/m 4,2 km/h (1 Bft) NO 46 0 min 0,000 mm 0,0 UV-I 28 W/m 15,5 C 16,1 C 6,4 km/h (2 Bft) 95,74 %
24.07.2017 08:00 16,0 C 25,0 C 96 % 1008,9 hPa 0,0 l/m 4,1 km/h (1 Bft) NO 44 0 min 0,025 mm 0,0 UV-I 28 W/m 15,4 C 16,0 C 6,4 km/h (2 Bft) 95,74 %
24.07.2017 08:02 16,0 C 25,0 C 96 % 1009,0 hPa 0,0 l/m 3,8 km/h (1 Bft) NO 44 0 min 0,000 mm 0,0 UV-I 28 W/m 15,4 C 16,0 C 6,4 km/h (2 Bft) 93,62 %
24.07.2017 08:04 15,9 C 25,0 C 96 % 1008,9 hPa 0,0 l/m 4,2 km/h (1 Bft) NO 44 0 min 0,000 mm 0,0 UV-I 28 W/m 15,3 C 15,9 C 6,4 km/h (2 Bft) 97,92 %
24.07.2017 08:06 15,9 C 25,0 C 96 % 1008,8 hPa 0,0 l/m 3,5 km/h (1 Bft) NO 44 0 min 0,000 mm 0,0 UV-I 26 W/m 15,3 C 15,9 C 4,8 km/h (1 Bft) 93,62 %
24.07.2017 08:08 15,9 C 25,0 C 96 % 1008,8 hPa 0,0 l/m 3,7 km/h (1 Bft) NO 44 0 min 0,000 mm 0,0 UV-I 24 W/m 15,3 C 15,9 C 6,4 km/h (2 Bft) 92,00 %
24.07.2017 08:10 16,0 C 25,0 C 96 % 1008,8 hPa 0,0 l/m 2,6 km/h (1 Bft) NO 44 0 min 0,000 mm 0,0 UV-I 22 W/m 15,4 C 16,0 C 4,8 km/h (1 Bft) 93,62 %
24.07.2017 08:12 16,0 C 25,0 C 96 % 1008,8 hPa 0,0 l/m 3,1 km/h (1 Bft) NO 44 0 min 0,000 mm 0,0 UV-I 21 W/m 15,4 C 16,0 C 6,4 km/h (2 Bft) 95,74 %
24.07.2017 08:14 15,9 C 25,0 C 96 % 1008,7 hPa 0,0 l/m 1,9 km/h (1 Bft) NO 44 0 min 0,000 mm 0,0 UV-I 21 W/m 15,3 C 15,9 C 4,8 km/h (1 Bft) 95,74 %
24.07.2017 08:16 15,9 C 25,0 C 96 % 1008,7 hPa 0,0 l/m 1,7 km/h (1 Bft) NO 44 0 min 0,000 mm 0,0 UV-I 24 W/m 15,3 C 15,9 C 3,2 km/h (1 Bft) 93,62 %
24.07.2017 08:18 16,0 C 25,0 C 96 % 1008,7 hPa 0,2 l/m 0,6 km/h (0 Bft) NO 44 0 min 0,000 mm 0,0 UV-I 25 W/m 15,4 C 16,0 C 1,6 km/h (1 Bft) 95,74 %
24.07.2017 08:20 16,0 C 25,0 C 96 % 1008,7 hPa 0,0 l/m 0,0 km/h (0 Bft) NO 44 0 min 0,000 mm 0,0 UV-I 28 W/m 15,4 C 16,0 C 1,6 km/h (1 Bft) 91,49 %
24.07.2017 08:22 16,0 C 25,0 C 96 % 1008,7 hPa 0,4 l/m 0,0 km/h (0 Bft) NO 36 0 min 0,000 mm 0,0 UV-I 27 W/m 15,4 C 16,0 C 0,0 km/h (0 Bft) 93,62 %
24.07.2017 08:24 16,0 C 25,0 C 96 % 1008,6 hPa 0,4 l/m 0,8 km/h (0 Bft) N-NO 21 0 min 0,000 mm 0,0 UV-I 28 W/m 15,4 C 16,0 C 3,2 km/h (1 Bft) 93,62 %
24.07.2017 08:26 15,9 C 25,0 C 96 % 1008,6 hPa 0,2 l/m 1,6 km/h (1 Bft) N-NW 334 0 min 0,000 mm 0,0 UV-I 31 W/m 15,3 C 15,9 C 4,8 km/h (1 Bft) 92,11 %
24.07.2017 08:28 15,9 C 25,0 C 96 % 1008,6 hPa 0,2 l/m 1,0 km/h (0 Bft) N-NW 338 0 min 0,000 mm 0,0 UV-I 33 W/m 15,3 C 15,9 C 3,2 km/h (1 Bft) 95,74 %
24.07.2017 08:30 15,9 C 24,4 C 96 % 1008,6 hPa 0,4 l/m 1,6 km/h (1 Bft) NW 313 0 min 0,000 mm 0,0 UV-I 33 W/m 15,3 C 15,9 C 4,8 km/h (1 Bft) 97,87 %
24.07.2017 08:32 15,8 C 25,0 C 96 % 1008,6 hPa 0,2 l/m 3,4 km/h (1 Bft) N 11 0 min 0,000 mm 0,0 UV-I 33 W/m 15,2 C 15,8 C 4,8 km/h (1 Bft) 93,62 %
24.07.2017 08:34 15,8 C 24,4 C 96 % 1008,5 hPa 0,0 l/m 1,4 km/h (1 Bft) N 355 0 min 0,000 mm 0,0 UV-I 34 W/m 15,2 C 15,8 C 4,8 km/h (1 Bft) 97,87 %
24.07.2017 08:36 15,8 C 24,4 C 96 % 1008,5 hPa 0,0 l/m 0,8 km/h (0 Bft) N 355 0 min 0,000 mm 0,0 UV-I 38 W/m 15,2 C 15,8 C 3,2 km/h (1 Bft) 98,00 %
24.07.2017 08:38 15,8 C 24,4 C 96 % 1008,6 hPa 0,0 l/m 1,4 km/h (1 Bft) N-NW 330 0 min 0,000 mm 0,0 UV-I 43 W/m 15,2 C 15,8 C 6,4 km/h (2 Bft) 94,00 %
24.07.2017 08:40 15,8 C 24,4 C 96 % 1008,6 hPa 0,0 l/m 2,5 km/h (1 Bft) N-NW 333 0 min 0,000 mm 0,0 UV-I 47 W/m 15,2 C 15,8 C 8,0 km/h (2 Bft) 98,00 %
24.07.2017 08:42 15,8 C 24,4 C 97 % 1008,5 hPa 0,0 l/m 0,3 km/h (0 Bft) N-NW 333 0 min 0,000 mm 0,0 UV-I 45 W/m 15,3 C 15,8 C 1,6 km/h (1 Bft) 94,87 %
24.07.2017 08:44 15,8 C 24,4 C 96 % 1008,5 hPa 0,2 l/m 1,3 km/h (1 Bft) NW 315 0 min 0,000 mm 0,0 UV-I 42 W/m 15,2 C 15,8 C 4,8 km/h (1 Bft) 97,87 %
24.07.2017 08:46 15,9 C 24,4 C 96 % 1008,5 hPa 0,0 l/m 0,0 km/h (0 Bft) NW 315 0 min 0,000 mm 0,0 UV-I 41 W/m 15,3 C 15,9 C 1,6 km/h (1 Bft) 94,00 %
24.07.2017 08:48 15,9 C 24,4 C 97 % 1008,5 hPa 0,0 l/m 0,4 km/h (0 Bft) NW 315 0 min 0,000 mm 0,0 UV-I 44 W/m 15,4 C 15,9 C 1,6 km/h (1 Bft) 94,00 %
24.07.2017 08:50 15,9 C 24,4 C 97 % 1008,4 hPa 0,0 l/m 0,3 km/h (0 Bft) NW 315 0 min 0,000 mm 0,0 UV-I 49 W/m 15,4 C 15,9 C 1,6 km/h (1 Bft) 94,74 %
24.07.2017 08:52 15,9 C 24,4 C 96 % 1008,4 hPa 0,0 l/m 0,4 km/h (0 Bft) NW 315 0 min 0,000 mm 0,0 UV-I 52 W/m 15,3 C 15,9 C 3,2 km/h (1 Bft) 93,62 %
24.07.2017 08:54 15,9 C 24,4 C 96 % 1008,3 hPa 0,0 l/m 2,2 km/h (1 Bft) NW 315 0 min 0,000 mm 0,0 UV-I 53 W/m 15,3 C 15,9 C 4,8 km/h (1 Bft) 91,49 %
24.07.2017 08:56 15,9 C 24,4 C 96 % 1008,2 hPa 0,2 l/m 1,2 km/h (1 Bft) N-NW 333 0 min 0,000 mm 0,0 UV-I 52 W/m 15,3 C 15,9 C 3,2 km/h (1 Bft) 95,74 %
24.07.2017 08:58 15,9 C 24,4 C 96 % 1008,2 hPa 0,0 l/m 1,0 km/h (0 Bft) N-NO 30 0 min 0,000 mm 0,0 UV-I 49 W/m 15,3 C 15,9 C 4,8 km/h (1 Bft) 93,62 %
24.07.2017 09:00 15,9 C 24,4 C 96 % 1008,2 hPa 0,0 l/m 1,2 km/h (1 Bft) N-NO 30 0 min 0,026 mm 0,0 UV-I 50 W/m 15,3 C 15,9 C 3,2 km/h (1 Bft) 95,74 %
24.07.2017 09:02 15,9 C 24,4 C 96 % 1008,2 hPa 0,0 l/m 1,2 km/h (1 Bft) N-NO 30 0 min 0,000 mm 0,0 UV-I 55 W/m 15,3 C 15,9 C 3,2 km/h (1 Bft) 93,62 %
24.07.2017 09:04 15,8 C 24,4 C 96 % 1008,2 hPa 0,0 l/m 2,2 km/h (1 Bft) N-NO 28 0 min 0,000 mm 0,0 UV-I 59 W/m 15,2 C 15,8 C 4,8 km/h (1 Bft) 97,87 %
24.07.2017 09:06 15,8 C 24,4 C 96 % 1008,2 hPa 0,0 l/m 4,1 km/h (1 Bft) NO 38 0 min 0,000 mm 0,0 UV-I 60 W/m 15,2 C 15,8 C 8,0 km/h (2 Bft) 95,74 %
24.07.2017 09:08 15,9 C 24,4 C 96 % 1008,2 hPa 0,0 l/m 2,2 km/h (1 Bft) NO 38 0 min 0,000 mm 0,0 UV-I 63 W/m 15,3 C 15,9 C 4,8 km/h (1 Bft) 96,00 %
24.07.2017 09:10 15,9 C 24,4 C 96 % 1008,1 hPa 0,0 l/m 3,7 km/h (1 Bft) N-NO 26 0 min 0,000 mm 0,0 UV-I 58 W/m 15,3 C 15,9 C 6,4 km/h (2 Bft) 96,00 %
24.07.2017 09:12 15,9 C 24,4 C 96 % 1008,1 hPa 0,0 l/m 3,7 km/h (1 Bft) N-NO 17 0 min 0,000 mm 0,0 UV-I 56 W/m 15,3 C 15,9 C 6,4 km/h (2 Bft) 97,87 %
24.07.2017 09:14 15,9 C 24,4 C 96 % 1008,1 hPa 0,0 l/m 4,4 km/h (1 Bft) N-NO 28 0 min 0,000 mm 0,0 UV-I 54 W/m 15,3 C 15,9 C 9,7 km/h (2 Bft) 97,87 %
24.07.2017 09:16 15,9 C 24,4 C 96 % 1008,1 hPa 0,0 l/m 8,4 km/h (2 Bft) NO 34 0 min 0,000 mm 0,0 UV-I 51 W/m 15,3 C 14,8 C 14,5 km/h (3 Bft) 100,00 %
24.07.2017 09:18 15,9 C 24,4 C 96 % 1008,1 hPa 0,0 l/m 4,3 km/h (1 Bft) N-NO 21 0 min 0,000 mm 0,0 UV-I 50 W/m 15,3 C 15,9 C 6,4 km/h (2 Bft) 97,87 %
24.07.2017 09:20 15,9 C 24,4 C 96 % 1008,1 hPa 0,2 l/m 6,3 km/h (2 Bft) N-NO 33 0 min 0,000 mm 0,0 UV-I 49 W/m 15,3 C 15,9 C 9,7 km/h (2 Bft) 100,00 %
24.07.2017 09:22 15,8 C 24,4 C 96 % 1008,0 hPa 0,0 l/m 7,4 km/h (2 Bft) N-NO 18 0 min 0,000 mm 0,0 UV-I 51 W/m 15,2 C 15,3 C 12,9 km/h (3 Bft) 98,00 %
24.07.2017 09:24 15,8 C 24,4 C 96 % 1008,1 hPa 0,0 l/m 3,7 km/h (1 Bft) N-NO 27 0 min 0,000 mm 0,0 UV-I 53 W/m 15,2 C 15,8 C 8,0 km/h (2 Bft) 100,00 %
24.07.2017 09:26 15,8 C 24,4 C 96 % 1008,0 hPa 0,0 l/m 4,0 km/h (1 Bft) N-NO 32 0 min 0,000 mm 0,0 UV-I 51 W/m 15,2 C 15,8 C 8,0 km/h (2 Bft) 95,74 %
24.07.2017 09:28 15,8 C 24,4 C 96 % 1008,0 hPa 0,0 l/m 4,6 km/h (1 Bft) N-NO 32 0 min 0,000 mm 0,0 UV-I 44 W/m 15,2 C 15,8 C 9,7 km/h (2 Bft) 97,87 %
24.07.2017 09:30 15,8 C 24,4 C 96 % 1007,9 hPa 0,0 l/m 3,1 km/h (1 Bft) N-NO 32 0 min 0,000 mm 0,0 UV-I 36 W/m 15,2 C 15,8 C 6,4 km/h (2 Bft) 97,87 %
24.07.2017 09:32 15,8 C 24,4 C 96 % 1007,9 hPa 0,0 l/m 6,5 km/h (2 Bft) NO 54 0 min 0,000 mm 0,0 UV-I 34 W/m 15,2 C 15,8 C 9,7 km/h (2 Bft) 97,87 %
24.07.2017 09:34 15,7 C 24,4 C 96 % 1007,8 hPa 0,0 l/m 6,3 km/h (2 Bft) NO 34 0 min 0,000 mm 0,0 UV-I 36 W/m 15,1 C 15,7 C 11,3 km/h (2 Bft) 97,87 %
24.07.2017 09:36 15,8 C 24,4 C 96 % 1007,8 hPa 0,0 l/m 6,1 km/h (2 Bft) N 11 0 min 0,000 mm 0,0 UV-I 40 W/m 15,2 C 15,8 C 9,7 km/h (2 Bft) 95,74 %
24.07.2017 09:38 15,8 C 24,4 C 96 % 1007,7 hPa 0,0 l/m 2,1 km/h (1 Bft) N-NO 17 0 min 0,000 mm 0,0 UV-I 44 W/m 15,2 C 15,8 C 6,4 km/h (2 Bft) 97,87 %
24.07.2017 09:40 15,8 C 24,4 C 96 % 1007,7 hPa 0,2 l/m 5,0 km/h (1 Bft) N-NO 29 0 min 0,000 mm 0,0 UV-I 46 W/m 15,2 C 15,8 C 8,0 km/h (2 Bft) 100,00 %
24.07.2017 09:42 15,8 C 24,4 C 96 % 1007,7 hPa 0,2 l/m 3,9 km/h (1 Bft) N 5 0 min 0,000 mm 0,0 UV-I 45 W/m 15,2 C 15,8 C 6,4 km/h (2 Bft) 97,87 %
24.07.2017 09:44 15,8 C 24,4 C 96 % 1007,7 hPa 0,2 l/m 3,8 km/h (1 Bft) N-NO 32 0 min 0,000 mm 0,0 UV-I 41 W/m 15,2 C 15,8 C 6,4 km/h (2 Bft) 98,00 %
24.07.2017 09:46 15,8 C 24,4 C 96 % 1007,7 hPa 0,2 l/m 6,4 km/h (2 Bft) N-NO 31 0 min 0,000 mm 0,0 UV-I 37 W/m 15,2 C 15,8 C 8,0 km/h (2 Bft) 97,87 %
24.07.2017 09:48 15,7 C 24,4 C 96 % 1007,7 hPa 0,0 l/m 4,1 km/h (1 Bft) N-NO 30 0 min 0,000 mm 0,0 UV-I 33 W/m 15,1 C 15,7 C 6,4 km/h (2 Bft) 93,62 %
24.07.2017 09:50 15,7 C 24,4 C 96 % 1007,7 hPa 0,4 l/m 3,2 km/h (1 Bft) N-NO 22 0 min 0,000 mm 0,0 UV-I 34 W/m 15,1 C 15,7 C 8,0 km/h (2 Bft) 94,74 %
24.07.2017 09:55 15,7 C 24,4 C 96 % 1007,6 hPa 0,2 l/m 1,6 km/h (1 Bft) N-NO 22 0 min 0,000 mm 0,0 UV-I 37 W/m 15,1 C 15,7 C 6,4 km/h (2 Bft) 93,86 %
24.07.2017 10:03 15,7 C 24,4 C 96 % 1007,5 hPa 0,2 l/m 3,2 km/h (1 Bft) NO 44 0 min 0,025 mm 0,0 UV-I 37 W/m 15,1 C 15,7 C 3,2 km/h (1 Bft) 100,00 %
24.07.2017 10:04 15,6 C 24,4 C 96 % 1007,5 hPa 1,0 l/m 2,7 km/h (1 Bft) NO 44 0 min 0,000 mm 0,0 UV-I 35 W/m 15,0 C 15,6 C 3,2 km/h (1 Bft) 91,67 %
24.07.2017 10:06 15,6 C 24,4 C 96 % 1007,4 hPa 0,2 l/m 4,2 km/h (1 Bft) NO 51 0 min 0,000 mm 0,0 UV-I 35 W/m 15,0 C 15,6 C 6,4 km/h (2 Bft) 94,00 %
24.07.2017 10:08 15,6 C 24,4 C 97 % 1007,3 hPa 0,2 l/m 5,5 km/h (1 Bft) NO 52 0 min 0,000 mm 0,0 UV-I 36 W/m 15,1 C 15,6 C 8,0 km/h (2 Bft) 96,00 %
24.07.2017 10:10 15,7 C 24,4 C 97 % 1007,3 hPa 0,4 l/m 5,9 km/h (2 Bft) NO 40 0 min 0,000 mm 0,0 UV-I 39 W/m 15,2 C 15,7 C 8,0 km/h (2 Bft) 94,00 %
24.07.2017 10:12 15,7 C 24,4 C 97 % 1007,3 hPa 0,4 l/m 5,7 km/h (1 Bft) NO 43 0 min 0,000 mm 0,0 UV-I 40 W/m 15,2 C 15,7 C 8,0 km/h (2 Bft) 97,37 %
24.07.2017 10:14 15,7 C 24,4 C 97 % 1007,2 hPa 0,4 l/m 5,6 km/h (1 Bft) O-NO 69 0 min 0,000 mm 0,0 UV-I 39 W/m 15,2 C 15,7 C 8,0 km/h (2 Bft) 92,45 %
24.07.2017 10:16 15,6 C 24,4 C 97 % 1007,2 hPa 0,6 l/m 6,3 km/h (2 Bft) O-NO 72 0 min 0,000 mm 0,0 UV-I 37 W/m 15,1 C 15,6 C 11,3 km/h (2 Bft) 94,74 %
24.07.2017 10:18 15,6 C 24,4 C 97 % 1007,2 hPa 0,2 l/m 6,8 km/h (2 Bft) O 86 0 min 0,000 mm 0,0 UV-I 34 W/m 15,1 C 15,4 C 8,0 km/h (2 Bft) 96,00 %
24.07.2017 10:20 15,6 C 24,4 C 97 % 1007,2 hPa 0,2 l/m 5,2 km/h (1 Bft) O-NO 69 0 min 0,000 mm 0,0 UV-I 31 W/m 15,1 C 15,6 C 8,0 km/h (2 Bft) 92,00 %
24.07.2017 10:22 15,6 C 24,4 C 97 % 1007,2 hPa 0,2 l/m 2,7 km/h (1 Bft) O-NO 61 0 min 0,000 mm 0,0 UV-I 32 W/m 15,1 C 15,6 C 4,8 km/h (1 Bft) 98,11 %
24.07.2017 10:24 15,7 C 24,4 C 97 % 1007,2 hPa 0,2 l/m 3,2 km/h (1 Bft) O-NO 59 0 min 0,000 mm 0,0 UV-I 30 W/m 15,2 C 15,7 C 4,8 km/h (1 Bft) 97,37 %
24.07.2017 10:26 15,7 C 24,4 C 97 % 1007,2 hPa 0,0 l/m 2,2 km/h (1 Bft) NO 52 0 min 0,000 mm 0,0 UV-I 26 W/m 15,2 C 15,7 C 4,8 km/h (1 Bft) 90,57 %
24.07.2017 10:28 15,7 C 24,4 C 97 % 1007,1 hPa 0,2 l/m 1,8 km/h (1 Bft) NO 44 0 min 0,000 mm 0,0 UV-I 21 W/m 15,2 C 15,7 C 4,8 km/h (1 Bft) 100,00 %
24.07.2017 10:30 15,7 C 24,4 C 97 % 1007,1 hPa 0,0 l/m 1,8 km/h (1 Bft) NO 44 0 min 0,000 mm 0,0 UV-I 21 W/m 15,2 C 15,7 C 4,8 km/h (1 Bft) 97,73 %
24.07.2017 10:32 15,7 C 24,4 C 97 % 1007,1 hPa 0,0 l/m 1,9 km/h (1 Bft) NO 44 0 min 0,000 mm 0,0 UV-I 22 W/m 15,2 C 15,7 C 4,8 km/h (1 Bft) 97,44 %
24.07.2017 10:34 15,7 C 24,4 C 97 % 1007,1 hPa 0,0 l/m 0,3 km/h (0 Bft) NO 44 0 min 0,000 mm 0,0 UV-I 25 W/m 15,2 C 15,7 C 1,6 km/h (1 Bft) 98,00 %
24.07.2017 10:36 15,7 C 24,4 C 97 % 1007,1 hPa 0,2 l/m 1,9 km/h (1 Bft) NO 44 0 min 0,000 mm 0,0 UV-I 25 W/m 15,2 C 15,7 C 4,8 km/h (1 Bft) 100,00 %
24.07.2017 10:38 15,7 C 24,4 C 97 % 1007,1 hPa 0,0 l/m 3,3 km/h (1 Bft) NO 44 0 min 0,000 mm 0,0 UV-I 24 W/m 15,2 C 15,7 C 4,8 km/h (1 Bft) 100,00 %
24.07.2017 10:40 15,7 C 24,4 C 97 % 1007,1 hPa 0,2 l/m 2,4 km/h (1 Bft) O-NO 64 0 min 0,000 mm 0,0 UV-I 25 W/m 15,2 C 15,7 C 6,4 km/h (2 Bft) 95,74 %
24.07.2017 10:42 15,7 C 24,4 C 97 % 1007,1 hPa 0,2 l/m 3,1 km/h (1 Bft) O-NO 64 0 min 0,000 mm 0,0 UV-I 25 W/m 15,2 C 15,7 C 4,8 km/h (1 Bft) 97,87 %
24.07.2017 10:44 15,7 C 24,4 C 97 % 1007,0 hPa 0,2 l/m 3,8 km/h (1 Bft) O-NO 70 0 min 0,000 mm 0,0 UV-I 26 W/m 15,2 C 15,7 C 6,4 km/h (2 Bft) 97,56 %
24.07.2017 10:46 15,6 C 24,4 C 97 % 1007,0 hPa 0,4 l/m 4,7 km/h (1 Bft) O-NO 66 0 min 0,000 mm 0,0 UV-I 30 W/m 15,1 C 15,6 C 6,4 km/h (2 Bft) 100,00 %
24.07.2017 10:48 15,6 C 24,4 C 97 % 1007,0 hPa 0,2 l/m 4,4 km/h (1 Bft) O-NO 66 0 min 0,000 mm 0,0 UV-I 30 W/m 15,1 C 15,6 C 6,4 km/h (2 Bft) 96,00 %
24.07.2017 10:50 15,6 C 24,4 C 97 % 1007,0 hPa 0,2 l/m 3,8 km/h (1 Bft) O-NO 66 0 min 0,000 mm 0,0 UV-I 28 W/m 15,1 C 15,6 C 6,4 km/h (2 Bft) 97,87 %
24.07.2017 10:52 15,6 C 24,4 C 97 % 1007,0 hPa 0,2 l/m 3,5 km/h (1 Bft) O 86 0 min 0,000 mm 0,0 UV-I 31 W/m 15,1 C 15,6 C 4,8 km/h (1 Bft) 95,74 %
24.07.2017 10:54 15,7 C 24,4 C 97 % 1007,0 hPa 0,0 l/m 5,6 km/h (1 Bft) O 97 0 min 0,000 mm 0,0 UV-I 33 W/m 15,2 C 15,7 C 9,7 km/h (2 Bft) 98,11 %
24.07.2017 10:56 15,7 C 24,4 C 97 % 1007,1 hPa 0,4 l/m 3,5 km/h (1 Bft) O 97 0 min 0,000 mm 0,0 UV-I 32 W/m 15,2 C 15,7 C 4,8 km/h (1 Bft) 85,71 %
24.07.2017 10:58 15,7 C 24,4 C 97 % 1007,1 hPa 0,2 l/m 1,9 km/h (1 Bft) O 97 0 min 0,000 mm 0,0 UV-I 28 W/m 15,2 C 15,7 C 3,2 km/h (1 Bft) 92,45 %
24.07.2017 11:00 15,7 C 24,4 C 97 % 1007,1 hPa 0,4 l/m 0,9 km/h (0 Bft) O 97 0 min 0,026 mm 0,0 UV-I 23 W/m 15,2 C 15,7 C 3,2 km/h (1 Bft) 98,00 %
24.07.2017 11:02 15,7 C 24,4 C 97 % 1007,1 hPa 0,2 l/m 1,6 km/h (1 Bft) O 97 0 min 0,000 mm 0,0 UV-I 20 W/m 15,2 C 15,7 C 3,2 km/h (1 Bft) 95,12 %
24.07.2017 11:04 15,7 C 24,4 C 97 % 1007,2 hPa 0,2 l/m 1,4 km/h (1 Bft) O-SO 107 0 min 0,000 mm 0,0 UV-I 18 W/m 15,2 C 15,7 C 3,2 km/h (1 Bft) 95,74 %
24.07.2017 11:06 15,7 C 24,4 C 97 % 1007,2 hPa 0,4 l/m 1,6 km/h (1 Bft) S-SO 148 0 min 0,000 mm 0,0 UV-I 19 W/m 15,2 C 15,7 C 4,8 km/h (1 Bft) 91,67 %
24.07.2017 11:08 15,7 C 24,4 C 97 % 1007,2 hPa 0,8 l/m 1,9 km/h (1 Bft) S-SO 150 0 min 0,000 mm 0,0 UV-I 21 W/m 15,2 C 15,7 C 4,8 km/h (1 Bft) 95,38 %
24.07.2017 11:10 15,7 C 24,4 C 97 % 1007,2 hPa 1,0 l/m 0,8 km/h (0 Bft) S-SO 150 0 min 0,000 mm 0,0 UV-I 28 W/m 15,2 C 15,7 C 3,2 km/h (1 Bft) 97,44 %
24.07.2017 11:12 15,7 C 24,4 C 97 % 1007,1 hPa 0,6 l/m 1,5 km/h (1 Bft) S-SO 150 0 min 0,000 mm 0,0 UV-I 33 W/m 15,2 C 15,7 C 3,2 km/h (1 Bft) 94,34 %
24.07.2017 11:14 15,6 C 24,4 C 97 % 1007,1 hPa 0,4 l/m 3,1 km/h (1 Bft) SO 145 0 min 0,000 mm 0,0 UV-I 31 W/m 15,1 C 15,6 C 4,8 km/h (1 Bft) 100,00 %
24.07.2017 11:16 15,6 C 24,4 C 97 % 1007,0 hPa 0,6 l/m 4,0 km/h (1 Bft) SO 136 0 min 0,000 mm 0,0 UV-I 29 W/m 15,1 C 15,6 C 6,4 km/h (2 Bft) 98,00 %
24.07.2017 11:18 15,6 C 24,4 C 97 % 1006,9 hPa 0,4 l/m 4,4 km/h (1 Bft) O-SO 119 0 min 0,000 mm 0,0 UV-I 33 W/m 15,1 C 15,6 C 8,0 km/h (2 Bft) 94,74 %
24.07.2017 11:20 15,6 C 24,4 C 97 % 1006,9 hPa 0,6 l/m 7,9 km/h (2 Bft) O-SO 110 0 min 0,000 mm 0,0 UV-I 40 W/m 15,1 C 14,8 C 11,3 km/h (2 Bft) 96,00 %
24.07.2017 11:22 15,6 C 24,4 C 97 % 1006,8 hPa 0,6 l/m 6,0 km/h (2 Bft) O 93 0 min 0,000 mm 0,0 UV-I 45 W/m 15,1 C 15,6 C 11,3 km/h (2 Bft) 100,00 %
24.07.2017 11:24 15,6 C 24,4 C 97 % 1006,7 hPa 0,4 l/m 5,6 km/h (1 Bft) O-SO 105 0 min 0,000 mm 0,0 UV-I 48 W/m 15,1 C 15,6 C 9,7 km/h (2 Bft) 98,31 %
24.07.2017 11:26 15,6 C 24,4 C 97 % 1006,7 hPa 0,6 l/m 2,1 km/h (1 Bft) O-SO 104 0 min 0,000 mm 0,0 UV-I 53 W/m 15,1 C 15,6 C 4,8 km/h (1 Bft) 97,14 %
24.07.2017 11:28 15,6 C 24,4 C 97 % 1006,7 hPa 0,4 l/m 0,6 km/h (0 Bft) O-SO 104 0 min 0,000 mm 0,1 UV-I 58 W/m 15,1 C 15,6 C 3,2 km/h (1 Bft) 92,86 %
24.07.2017 11:30 15,7 C 24,4 C 97 % 1006,7 hPa 0,6 l/m 0,0 km/h (0 Bft) O-SO 104 0 min 0,000 mm 0,5 UV-I 63 W/m 15,2 C 15,7 C 0,0 km/h (0 Bft) 96,00 %
24.07.2017 11:32 15,7 C 24,4 C 97 % 1006,7 hPa 0,2 l/m 3,6 km/h (1 Bft) W-SW 241 0 min 0,000 mm 0,5 UV-I 67 W/m 15,2 C 15,7 C 4,8 km/h (1 Bft) 97,56 %
24.07.2017 11:34 15,7 C 24,4 C 97 % 1006,7 hPa 0,4 l/m 3,4 km/h (1 Bft) W-SW 241 0 min 0,000 mm 0,2 UV-I 57 W/m 15,2 C 15,7 C 4,8 km/h (1 Bft) 95,12 %
24.07.2017 11:36 15,8 C 24,4 C 97 % 1006,7 hPa 0,4 l/m 3,0 km/h (1 Bft) W-SW 241 0 min 0,000 mm 0,0 UV-I 34 W/m 15,3 C 15,8 C 4,8 km/h (1 Bft) 94,64 %
24.07.2017 11:38 15,7 C 24,4 C 97 % 1006,7 hPa 0,4 l/m 1,5 km/h (1 Bft) W-SW 241 0 min 0,000 mm 0,0 UV-I 30 W/m 15,2 C 15,7 C 3,2 km/h (1 Bft) 96,30 %
24.07.2017 11:40 15,7 C 24,4 C 97 % 1006,7 hPa 0,2 l/m 1,4 km/h (1 Bft) W-SW 241 0 min 0,000 mm 0,0 UV-I 32 W/m 15,2 C 15,7 C 3,2 km/h (1 Bft) 98,51 %
24.07.2017 11:42 15,7 C 24,4 C 97 % 1006,6 hPa 0,2 l/m 1,0 km/h (0 Bft) W-SW 241 0 min 0,000 mm 0,0 UV-I 45 W/m 15,2 C 15,7 C 3,2 km/h (1 Bft) 97,87 %
24.07.2017 11:44 15,7 C 24,4 C 97 % 1006,6 hPa 0,4 l/m 2,1 km/h (1 Bft) W-SW 241 0 min 0,000 mm 0,2 UV-I 61 W/m 15,2 C 15,7 C 4,8 km/h (1 Bft) 98,00 %
24.07.2017 11:46 15,7 C 23,9 C 97 % 1006,6 hPa 0,4 l/m 0,8 km/h (0 Bft) SW 232 0 min 0,000 mm 0,5 UV-I 71 W/m 15,2 C 15,7 C 3,2 km/h (1 Bft) 100,00 %
24.07.2017 11:48 15,7 C 23,9 C 97 % 1006,6 hPa 0,2 l/m 0,7 km/h (0 Bft) SW 232 0 min 0,000 mm 0,6 UV-I 76 W/m 15,2 C 15,7 C 3,2 km/h (1 Bft) 97,44 %
24.07.2017 11:50 15,8 C 24,4 C 97 % 1006,6 hPa 0,2 l/m 0,0 km/h (0 Bft) SW 232 0 min 0,000 mm 0,6 UV-I 74 W/m 15,3 C 15,8 C 0,0 km/h (0 Bft) 100,00 %
24.07.2017 11:52 15,8 C 24,4 C 97 % 1006,6 hPa 0,0 l/m 2,0 km/h (1 Bft) SW 232 0 min 0,000 mm 0,5 UV-I 74 W/m 15,3 C 15,8 C 6,4 km/h (2 Bft) 97,37 %
24.07.2017 11:54 15,8 C 24,4 C 97 % 1006,5 hPa 0,2 l/m 3,7 km/h (1 Bft) SW 227 0 min 0,000 mm 0,6 UV-I 86 W/m 15,3 C 15,8 C 6,4 km/h (2 Bft) 98,04 %
24.07.2017 11:56 15,9 C 23,9 C 97 % 1006,5 hPa 0,2 l/m 2,7 km/h (1 Bft) S 178 0 min 0,000 mm 0,7 UV-I 100 W/m 15,4 C 15,9 C 6,4 km/h (2 Bft) 94,34 %
24.07.2017 11:58 15,9 C 23,9 C 97 % 1006,5 hPa 0,0 l/m 3,1 km/h (1 Bft) S 177 0 min 0,000 mm 0,9 UV-I 112 W/m 15,4 C 15,9 C 6,4 km/h (2 Bft) 95,74 %
24.07.2017 12:00 15,9 C 23,9 C 97 % 1006,4 hPa 0,0 l/m 1,5 km/h (1 Bft) S 177 0 min 0,025 mm 0,9 UV-I 119 W/m 15,4 C 15,9 C 3,2 km/h (1 Bft) 98,00 %
24.07.2017 12:02 16,0 C 24,4 C 97 % 1006,4 hPa 0,2 l/m 1,8 km/h (1 Bft) S 177 0 min 0,000 mm 0,9 UV-I 114 W/m 15,5 C 16,0 C 4,8 km/h (1 Bft) 94,74 %
24.07.2017 12:04 16,1 C 24,4 C 97 % 1006,4 hPa 0,0 l/m 1,8 km/h (1 Bft) S 177 0 min 0,000 mm 0,8 UV-I 106 W/m 15,6 C 16,1 C 3,2 km/h (1 Bft) 98,11 %
24.07.2017 12:06 16,1 C 23,9 C 97 % 1006,4 hPa 0,0 l/m 2,9 km/h (1 Bft) S 177 0 min 0,000 mm 0,7 UV-I 92 W/m 15,6 C 16,1 C 4,8 km/h (1 Bft) 91,43 %
24.07.2017 12:08 16,1 C 23,9 C 97 % 1006,5 hPa 0,0 l/m 3,4 km/h (1 Bft) S 188 0 min 0,000 mm 0,6 UV-I 78 W/m 15,6 C 16,1 C 4,8 km/h (1 Bft) 92,45 %
24.07.2017 12:10 16,2 C 23,9 C 97 % 1006,5 hPa 0,2 l/m 3,7 km/h (1 Bft) S-SW 213 0 min 0,000 mm 0,4 UV-I 65 W/m 15,7 C 16,2 C 6,4 km/h (2 Bft) 92,45 %
24.07.2017 12:12 16,2 C 23,9 C 97 % 1006,5 hPa 0,0 l/m 4,9 km/h (1 Bft) SW 215 0 min 0,000 mm 0,0 UV-I 54 W/m 15,7 C 16,2 C 6,4 km/h (2 Bft) 97,56 %
24.07.2017 12:14 16,1 C 23,9 C 97 % 1006,5 hPa 0,0 l/m 2,9 km/h (1 Bft) S 188 0 min 0,000 mm 0,0 UV-I 44 W/m 15,6 C 16,1 C 4,8 km/h (1 Bft) 92,00 %
24.07.2017 12:16 16,2 C 23,9 C 97 % 1006,5 hPa 0,2 l/m 2,1 km/h (1 Bft) S 188 0 min 0,000 mm 0,0 UV-I 42 W/m 15,7 C 16,2 C 4,8 km/h (1 Bft) 92,00 %
24.07.2017 12:18 16,2 C 23,9 C 97 % 1006,4 hPa 0,0 l/m 3,3 km/h (1 Bft) S-SW 209 0 min 0,000 mm 0,0 UV-I 42 W/m 15,7 C 16,2 C 4,8 km/h (1 Bft) 94,74 %
24.07.2017 12:20 16,2 C 23,9 C 97 % 1006,4 hPa 0,2 l/m 3,2 km/h (1 Bft) S-SW 209 0 min 0,000 mm 0,0 UV-I 55 W/m 15,7 C 16,2 C 4,8 km/h (1 Bft) 93,62 %
24.07.2017 12:22 16,2 C 23,9 C 97 % 1006,4 hPa 0,4 l/m 3,9 km/h (1 Bft) SW 224 0 min 0,000 mm 0,7 UV-I 82 W/m 15,7 C 16,2 C 6,4 km/h (2 Bft) 93,62 %
24.07.2017 12:24 16,2 C 23,9 C 97 % 1006,4 hPa 0,2 l/m 2,8 km/h (1 Bft) SW 224 0 min 0,000 mm 0,7 UV-I 93 W/m 15,7 C 16,2 C 4,8 km/h (1 Bft) 95,56 %
24.07.2017 12:26 16,2 C 23,9 C 97 % 1006,4 hPa 0,0 l/m 4,4 km/h (1 Bft) SW 224 0 min 0,000 mm 0,3 UV-I 70 W/m 15,7 C 16,2 C 6,4 km/h (2 Bft) 96,00 %
24.07.2017 12:28 16,2 C 23,9 C 97 % 1006,4 hPa 0,2 l/m 4,3 km/h (1 Bft) SW 224 0 min 0,000 mm 0,0 UV-I 54 W/m 15,7 C 16,2 C 6,4 km/h (2 Bft) 96,15 %
24.07.2017 12:30 16,2 C 23,9 C 97 % 1006,4 hPa 0,0 l/m 5,6 km/h (1 Bft) SW 221 0 min 0,000 mm 0,2 UV-I 63 W/m 15,7 C 16,2 C 8,0 km/h (2 Bft) 98,00 %
24.07.2017 12:32 16,2 C 23,9 C 97 % 1006,3 hPa 0,0 l/m 4,2 km/h (1 Bft) SW 221 0 min 0,000 mm 0,5 UV-I 71 W/m 15,7 C 16,2 C 6,4 km/h (2 Bft) 95,24 %
24.07.2017 12:34 16,2 C 23,9 C 97 % 1006,3 hPa 0,0 l/m 3,8 km/h (1 Bft) SW 221 0 min 0,000 mm 0,6 UV-I 82 W/m 15,7 C 16,2 C 6,4 km/h (2 Bft) 97,56 %
24.07.2017 12:36 16,3 C 23,9 C 97 % 1006,3 hPa 0,0 l/m 5,9 km/h (2 Bft) SW 225 0 min 0,000 mm 0,7 UV-I 90 W/m 15,8 C 16,3 C 9,7 km/h (2 Bft) 95,45 %
24.07.2017 12:38 16,3 C 23,9 C 97 % 1006,3 hPa 0,2 l/m 7,0 km/h (2 Bft) S-SW 200 0 min 0,000 mm 0,6 UV-I 86 W/m 15,8 C 16,0 C 11,3 km/h (2 Bft) 91,53 %
24.07.2017 12:40 16,3 C 23,9 C 97 % 1006,3 hPa 0,0 l/m 6,4 km/h (2 Bft) SW 220 0 min 0,000 mm 0,6 UV-I 80 W/m 15,8 C 16,3 C 9,7 km/h (2 Bft) 92,11 %
24.07.2017 12:42 16,2 C 23,9 C 97 % 1006,2 hPa 0,0 l/m 4,3 km/h (1 Bft) SW 223 0 min 0,000 mm 0,6 UV-I 86 W/m 15,7 C 16,2 C 8,0 km/h (2 Bft) 91,49 %
24.07.2017 12:44 16,2 C 23,9 C 97 % 1006,2 hPa 0,0 l/m 3,0 km/h (1 Bft) SW 223 0 min 0,000 mm 0,8 UV-I 104 W/m 15,7 C 16,2 C 4,8 km/h (1 Bft) 97,87 %
24.07.2017 12:46 16,2 C 23,9 C 97 % 1006,1 hPa 0,0 l/m 2,5 km/h (1 Bft) SW 223 0 min 0,000 mm 0,9 UV-I 126 W/m 15,7 C 16,2 C 4,8 km/h (1 Bft) 96,00 %
24.07.2017 12:48 16,3 C 23,9 C 97 % 1006,1 hPa 0,0 l/m 2,9 km/h (1 Bft) SW 223 0 min 0,000 mm 1,1 UV-I 141 W/m 15,8 C 16,3 C 6,4 km/h (2 Bft) 97,87 %
24.07.2017 12:50 16,3 C 23,9 C 97 % 1006,0 hPa 0,0 l/m 3,4 km/h (1 Bft) SW 223 0 min 0,000 mm 1,1 UV-I 150 W/m 15,8 C 16,3 C 4,8 km/h (1 Bft) 96,00 %
24.07.2017 12:52 16,3 C 23,9 C 97 % 1006,0 hPa 0,0 l/m 2,5 km/h (1 Bft) SW 226 0 min 0,000 mm 1,1 UV-I 149 W/m 15,8 C 16,3 C 4,8 km/h (1 Bft) 96,00 %
24.07.2017 12:54 16,3 C 23,9 C 96 % 1006,0 hPa 0,2 l/m 1,1 km/h (1 Bft) SW 226 0 min 0,000 mm 1,1 UV-I 142 W/m 15,7 C 16,3 C 3,2 km/h (1 Bft) 97,37 %
24.07.2017 12:56 16,4 C 23,9 C 96 % 1006,1 hPa 0,0 l/m 2,2 km/h (1 Bft) SW 226 0 min 0,000 mm 1,0 UV-I 141 W/m 15,8 C 16,4 C 3,2 km/h (1 Bft) 96,00 %
24.07.2017 12:58 16,5 C 23,9 C 96 % 1006,0 hPa 0,0 l/m 2,9 km/h (1 Bft) SW 226 0 min 0,000 mm 1,1 UV-I 147 W/m 15,9 C 16,5 C 4,8 km/h (1 Bft) 98,00 %
24.07.2017 13:00 16,6 C 23,9 C 96 % 1006,0 hPa 0,0 l/m 4,4 km/h (1 Bft) W-SW 242 0 min 0,051 mm 1,1 UV-I 149 W/m 16,0 C 16,6 C 9,7 km/h (2 Bft) 94,44 %
24.07.2017 13:02 16,6 C 23,9 C 96 % 1006,0 hPa 0,0 l/m 2,5 km/h (1 Bft) W-SW 251 0 min 0,000 mm 1,1 UV-I 148 W/m 16,0 C 16,6 C 4,8 km/h (1 Bft) 94,00 %
24.07.2017 13:04 16,6 C 23,9 C 97 % 1006,0 hPa 0,0 l/m 1,6 km/h (1 Bft) W-SW 251 0 min 0,000 mm 1,1 UV-I 150 W/m 16,1 C 16,6 C 3,2 km/h (1 Bft) 96,15 %
24.07.2017 13:06 16,5 C 23,9 C 96 % 1006,0 hPa 0,2 l/m 0,1 km/h (0 Bft) W-SW 251 0 min 0,000 mm 1,1 UV-I 155 W/m 15,9 C 16,5 C 1,6 km/h (1 Bft) 95,83 %
24.07.2017 13:08 16,5 C 23,9 C 96 % 1005,9 hPa 0,0 l/m 1,2 km/h (1 Bft) W-SW 251 0 min 0,000 mm 1,2 UV-I 160 W/m 15,9 C 16,5 C 3,2 km/h (1 Bft) 97,96 %
24.07.2017 13:10 16,5 C 23,9 C 96 % 1005,9 hPa 0,0 l/m 2,7 km/h (1 Bft) W-SW 251 0 min 0,000 mm 1,2 UV-I 164 W/m 15,9 C 16,5 C 4,8 km/h (1 Bft) 95,24 %
24.07.2017 13:12 16,6 C 23,9 C 96 % 1005,9 hPa 0,2 l/m 1,7 km/h (1 Bft) W-SW 251 0 min 0,000 mm 1,2 UV-I 167 W/m 16,0 C 16,6 C 4,8 km/h (1 Bft) 95,74 %
24.07.2017 13:14 16,6 C 23,9 C 96 % 1006,0 hPa 0,0 l/m 3,4 km/h (1 Bft) W-SW 251 0 min 0,000 mm 1,2 UV-I 165 W/m 16,0 C 16,6 C 4,8 km/h (1 Bft) 100,00 %
24.07.2017 13:16 16,6 C 23,9 C 96 % 1006,0 hPa 0,0 l/m 2,9 km/h (1 Bft) W-SW 252 0 min 0,000 mm 1,2 UV-I 168 W/m 16,0 C 16,6 C 6,4 km/h (2 Bft) 97,37 %
24.07.2017 13:18 16,6 C 23,9 C 96 % 1005,9 hPa 0,2 l/m 2,4 km/h (1 Bft) W-SW 252 0 min 0,000 mm 1,3 UV-I 172 W/m 16,0 C 16,6 C 4,8 km/h (1 Bft) 100,00 %
24.07.2017 13:20 16,6 C 23,9 C 96 % 1005,9 hPa 0,0 l/m 3,9 km/h (1 Bft) W 274 0 min 0,000 mm 1,2 UV-I 163 W/m 16,0 C 16,6 C 6,4 km/h (2 Bft) 100,00 %
24.07.2017 13:22 16,5 C 23,9 C 96 % 1005,9 hPa 0,0 l/m 3,6 km/h (1 Bft) W 268 0 min 0,000 mm 1,1 UV-I 152 W/m 15,9 C 16,5 C 6,4 km/h (2 Bft) 95,74 %
24.07.2017 13:24 16,6 C 23,9 C 96 % 1005,9 hPa 0,2 l/m 3,5 km/h (1 Bft) W 269 0 min 0,000 mm 1,2 UV-I 159 W/m 16,0 C 16,6 C 6,4 km/h (2 Bft) 97,37 %
24.07.2017 13:26 16,6 C 23,9 C 96 % 1005,9 hPa 0,0 l/m 3,2 km/h (1 Bft) W-SW 257 0 min 0,000 mm 1,2 UV-I 163 W/m 16,0 C 16,6 C 6,4 km/h (2 Bft) 100,00 %
24.07.2017 13:28 16,6 C 23,9 C 96 % 1005,9 hPa 0,0 l/m 3,8 km/h (1 Bft) W-SW 240 0 min 0,000 mm 1,1 UV-I 153 W/m 16,0 C 16,6 C 6,4 km/h (2 Bft) 97,87 %
24.07.2017 13:30 16,6 C 23,9 C 96 % 1005,9 hPa 0,2 l/m 3,0 km/h (1 Bft) W-SW 240 0 min 0,000 mm 1,1 UV-I 145 W/m 16,0 C 16,6 C 4,8 km/h (1 Bft) 100,00 %
24.07.2017 13:32 16,6 C 23,9 C 97 % 1005,9 hPa 0,0 l/m 6,6 km/h (2 Bft) W 264 0 min 0,000 mm 1,1 UV-I 147 W/m 16,1 C 16,5 C 12,9 km/h (3 Bft) 100,00 %
24.07.2017 13:34 16,6 C 23,9 C 96 % 1005,9 hPa 0,0 l/m 7,6 km/h (2 Bft) W 273 0 min 0,000 mm 1,2 UV-I 162 W/m 16,0 C 16,0 C 11,3 km/h (2 Bft) 96,00 %
24.07.2017 13:36 16,5 C 23,9 C 96 % 1005,9 hPa 0,2 l/m 4,2 km/h (1 Bft) W 259 0 min 0,000 mm 1,3 UV-I 170 W/m 15,9 C 16,5 C 8,0 km/h (2 Bft) 100,00 %
24.07.2017 13:38 16,5 C 23,9 C 96 % 1005,9 hPa 0,0 l/m 7,2 km/h (2 Bft) W 262 0 min 0,000 mm 1,1 UV-I 155 W/m 15,9 C 16,1 C 12,9 km/h (3 Bft) 98,11 %
24.07.2017 13:40 16,5 C 23,9 C 96 % 1005,8 hPa 0,0 l/m 4,9 km/h (1 Bft) NW 311 0 min 0,000 mm 0,9 UV-I 130 W/m 15,9 C 16,5 C 9,7 km/h (2 Bft) 95,12 %
24.07.2017 13:42 16,6 C 23,9 C 96 % 1005,8 hPa 0,0 l/m 3,3 km/h (1 Bft) SW 232 0 min 0,000 mm 0,9 UV-I 127 W/m 16,0 C 16,6 C 6,4 km/h (2 Bft) 96,23 %
24.07.2017 13:44 16,6 C 23,9 C 96 % 1005,8 hPa 0,0 l/m 4,6 km/h (1 Bft) W 268 0 min 0,000 mm 1,1 UV-I 147 W/m 16,0 C 16,6 C 6,4 km/h (2 Bft) 100,00 %
24.07.2017 13:46 16,5 C 23,9 C 96 % 1005,8 hPa 0,0 l/m 3,2 km/h (1 Bft) W 266 0 min 0,000 mm 1,2 UV-I 165 W/m 15,9 C 16,5 C 6,4 km/h (2 Bft) 94,92 %
24.07.2017 13:48 16,6 C 23,9 C 96 % 1005,8 hPa 0,0 l/m 2,5 km/h (1 Bft) W-NW 298 0 min 0,000 mm 1,5 UV-I 206 W/m 16,0 C 16,6 C 4,8 km/h (1 Bft) 94,34 %
24.07.2017 13:50 16,6 C 23,9 C 96 % 1005,8 hPa 0,0 l/m 2,2 km/h (1 Bft) W-NW 299 0 min 0,000 mm 1,8 UV-I 241 W/m 16,0 C 16,6 C 4,8 km/h (1 Bft) 92,00 %
24.07.2017 13:52 16,6 C 23,9 C 96 % 1005,8 hPa 0,0 l/m 1,7 km/h (1 Bft) NW 305 0 min 0,000 mm 2,0 UV-I 261 W/m 16,0 C 16,6 C 6,4 km/h (2 Bft) 97,37 %
24.07.2017 13:54 16,6 C 23,9 C 96 % 1005,8 hPa 0,0 l/m 2,4 km/h (1 Bft) W-NW 284 0 min 0,000 mm 2,0 UV-I 266 W/m 16,0 C 16,6 C 4,8 km/h (1 Bft) 95,74 %
24.07.2017 13:56 16,7 C 23,9 C 96 % 1005,7 hPa 0,0 l/m 2,4 km/h (1 Bft) W-NW 295 0 min 0,000 mm 2,0 UV-I 261 W/m 16,1 C 16,7 C 4,8 km/h (1 Bft) 94,00 %
24.07.2017 13:58 16,7 C 23,9 C 96 % 1005,7 hPa 0,0 l/m 5,3 km/h (1 Bft) W-SW 238 0 min 0,000 mm 2,1 UV-I 275 W/m 16,1 C 16,7 C 9,7 km/h (2 Bft) 97,56 %
24.07.2017 14:00 16,7 C 23,9 C 95 % 1005,7 hPa 0,0 l/m 3,2 km/h (1 Bft) W 279 0 min 0,000 mm 2,2 UV-I 290 W/m 15,9 C 16,7 C 4,8 km/h (1 Bft) 94,00 %
24.07.2017 14:02 16,7 C 23,9 C 95 % 1005,7 hPa 0,0 l/m 3,3 km/h (1 Bft) W-NW 284 0 min 0,101 mm 2,3 UV-I 296 W/m 15,9 C 16,7 C 9,7 km/h (2 Bft) 97,56 %
24.07.2017 14:04 16,8 C 23,9 C 96 % 1005,7 hPa 0,2 l/m 3,3 km/h (1 Bft) SW 236 0 min 0,000 mm 2,2 UV-I 296 W/m 16,2 C 16,8 C 6,4 km/h (2 Bft) 96,23 %
24.07.2017 14:06 16,8 C 23,9 C 95 % 1005,8 hPa 0,0 l/m 6,2 km/h (2 Bft) W-SW 242 0 min 0,000 mm 2,3 UV-I 302 W/m 16,0 C 16,8 C 8,0 km/h (2 Bft) 98,00 %
24.07.2017 14:08 16,8 C 23,9 C 95 % 1005,8 hPa 0,0 l/m 4,2 km/h (1 Bft) W 266 0 min 0,000 mm 2,1 UV-I 288 W/m 16,0 C 16,8 C 9,7 km/h (2 Bft) 98,00 %
24.07.2017 14:10 16,9 C 23,9 C 96 % 1005,7 hPa 0,0 l/m 3,8 km/h (1 Bft) W-SW 242 0 min 0,000 mm 2,3 UV-I 301 W/m 16,3 C 16,9 C 8,0 km/h (2 Bft) 97,87 %
24.07.2017 14:12 17,0 C 23,9 C 96 % 1005,7 hPa 0,0 l/m 6,6 km/h (2 Bft) W-SW 249 0 min 0,000 mm 2,4 UV-I 324 W/m 16,4 C 16,9 C 9,7 km/h (2 Bft) 95,12 %
24.07.2017 14:14 17,0 C 23,9 C 95 % 1005,7 hPa 0,0 l/m 6,3 km/h (2 Bft) W-NW 285 0 min 0,000 mm 2,3 UV-I 313 W/m 16,2 C 17,0 C 9,7 km/h (2 Bft) 96,00 %
24.07.2017 14:16 17,0 C 23,9 C 95 % 1005,7 hPa 0,0 l/m 5,6 km/h (1 Bft) W-SW 255 0 min 0,000 mm 2,2 UV-I 293 W/m 16,2 C 17,0 C 9,7 km/h (2 Bft) 95,12 %
24.07.2017 14:18 16,9 C 23,9 C 95 % 1005,7 hPa 0,0 l/m 4,5 km/h (1 Bft) W-SW 251 0 min 0,000 mm 1,8 UV-I 245 W/m 16,1 C 16,9 C 8,0 km/h (2 Bft) 96,23 %
24.07.2017 14:20 16,9 C 23,9 C 95 % 1005,7 hPa 0,0 l/m 5,7 km/h (1 Bft) W-SW 241 0 min 0,000 mm 1,7 UV-I 229 W/m 16,1 C 16,9 C 11,3 km/h (2 Bft) 97,56 %
24.07.2017 14:22 16,8 C 23,9 C 95 % 1005,7 hPa 0,0 l/m 4,4 km/h (1 Bft) W 260 0 min 0,000 mm 1,6 UV-I 214 W/m 16,0 C 16,8 C 9,7 km/h (2 Bft) 96,00 %
24.07.2017 14:24 16,8 C 23,9 C 95 % 1005,7 hPa 0,0 l/m 4,2 km/h (1 Bft) W-NW 303 0 min 0,000 mm 1,3 UV-I 184 W/m 16,0 C 16,8 C 6,4 km/h (2 Bft) 100,00 %
24.07.2017 14:26 16,8 C 23,9 C 95 % 1005,6 hPa 0,0 l/m 3,1 km/h (1 Bft) W 273 0 min 0,000 mm 1,2 UV-I 172 W/m 16,0 C 16,8 C 6,4 km/h (2 Bft) 98,11 %
24.07.2017 14:28 16,8 C 23,9 C 95 % 1005,6 hPa 0,0 l/m 3,9 km/h (1 Bft) W 262 0 min 0,000 mm 1,4 UV-I 204 W/m 16,0 C 16,8 C 6,4 km/h (2 Bft) 100,00 %
24.07.2017 14:30 16,8 C 23,9 C 95 % 1005,6 hPa 0,0 l/m 4,6 km/h (1 Bft) W-SW 242 0 min 0,000 mm 1,6 UV-I 224 W/m 16,0 C 16,8 C 9,7 km/h (2 Bft) 98,11 %
24.07.2017 14:32 16,8 C 23,9 C 95 % 1005,5 hPa 0,0 l/m 5,1 km/h (1 Bft) W 263 0 min 0,000 mm 1,7 UV-I 236 W/m 16,0 C 16,8 C 6,4 km/h (2 Bft) 97,56 %
24.07.2017 14:34 16,9 C 23,9 C 96 % 1005,5 hPa 0,0 l/m 3,4 km/h (1 Bft) W 259 0 min 0,000 mm 1,7 UV-I 243 W/m 16,3 C 16,9 C 4,8 km/h (1 Bft) 100,00 %
24.07.2017 14:36 16,9 C 23,9 C 95 % 1005,4 hPa 0,0 l/m 3,9 km/h (1 Bft) W-SW 248 0 min 0,000 mm 1,7 UV-I 239 W/m 16,1 C 16,9 C 6,4 km/h (2 Bft) 100,00 %
24.07.2017 14:38 16,9 C 23,9 C 96 % 1005,4 hPa 0,0 l/m 8,0 km/h (2 Bft) W-SW 248 0 min 0,000 mm 1,6 UV-I 234 W/m 16,3 C 16,1 C 14,5 km/h (3 Bft) 97,56 %
24.07.2017 14:40 16,9 C 23,9 C 95 % 1005,5 hPa 0,0 l/m 5,6 km/h (1 Bft) W 269 0 min 0,000 mm 1,6 UV-I 236 W/m 16,1 C 16,9 C 9,7 km/h (2 Bft) 96,00 %
24.07.2017 14:42 17,0 C 23,9 C 95 % 1005,4 hPa 0,0 l/m 5,2 km/h (1 Bft) W 263 0 min 0,000 mm 1,6 UV-I 242 W/m 16,2 C 17,0 C 9,7 km/h (2 Bft) 97,37 %
24.07.2017 14:44 16,9 C 23,9 C 95 % 1005,5 hPa 0,0 l/m 5,4 km/h (1 Bft) W-SW 238 0 min 0,000 mm 1,6 UV-I 242 W/m 16,1 C 16,9 C 8,0 km/h (2 Bft) 98,21 %
24.07.2017 14:46 16,9 C 23,9 C 95 % 1005,4 hPa 0,0 l/m 5,0 km/h (1 Bft) W-SW 240 0 min 0,000 mm 1,9 UV-I 278 W/m 16,1 C 16,9 C 8,0 km/h (2 Bft) 95,12 %
24.07.2017 14:48 17,1 C 23,9 C 96 % 1005,4 hPa 0,0 l/m 3,6 km/h (1 Bft) W-SW 244 0 min 0,000 mm 2,3 UV-I 317 W/m 16,5 C 17,1 C 11,3 km/h (2 Bft) 100,00 %
24.07.2017 14:50 17,1 C 23,9 C 95 % 1005,3 hPa 0,0 l/m 6,1 km/h (2 Bft) W-SW 242 0 min 0,000 mm 2,4 UV-I 327 W/m 16,3 C 17,1 C 12,9 km/h (3 Bft) 97,56 %
24.07.2017 14:52 16,9 C 23,9 C 95 % 1005,4 hPa 0,2 l/m 5,8 km/h (2 Bft) SW 234 0 min 0,000 mm 2,3 UV-I 315 W/m 16,1 C 16,9 C 11,3 km/h (2 Bft) 100,00 %
24.07.2017 14:54 16,9 C 23,9 C 95 % 1005,4 hPa 0,0 l/m 5,7 km/h (1 Bft) W-SW 247 0 min 0,000 mm 2,2 UV-I 291 W/m 16,1 C 16,9 C 11,3 km/h (2 Bft) 98,11 %
24.07.2017 14:56 16,9 C 23,9 C 95 % 1005,4 hPa 0,0 l/m 6,6 km/h (2 Bft) W-NW 292 0 min 0,000 mm 2,1 UV-I 276 W/m 16,1 C 16,8 C 11,3 km/h (2 Bft) 95,45 %
24.07.2017 14:58 16,8 C 23,9 C 94 % 1005,4 hPa 0,0 l/m 6,8 km/h (2 Bft) W-SW 242 0 min 0,000 mm 2,0 UV-I 269 W/m 15,8 C 16,6 C 14,5 km/h (3 Bft) 100,00 %
24.07.2017 15:00 16,9 C 23,9 C 95 % 1005,4 hPa 0,0 l/m 6,3 km/h (2 Bft) SW 235 0 min 0,000 mm 2,0 UV-I 268 W/m 16,1 C 16,9 C 12,9 km/h (3 Bft) 97,14 %
24.07.2017 15:02 16,9 C 23,9 C 94 % 1005,5 hPa 0,0 l/m 6,7 km/h (2 Bft) W-SW 249 0 min 0,153 mm 1,9 UV-I 264 W/m 15,9 C 16,8 C 9,7 km/h (2 Bft) 97,78 %
24.07.2017 15:04 16,9 C 23,9 C 94 % 1005,5 hPa 0,0 l/m 8,6 km/h (2 Bft) SW 229 0 min 0,000 mm 1,8 UV-I 255 W/m 15,9 C 15,8 C 14,5 km/h (3 Bft) 100,00 %
24.07.2017 15:06 16,9 C 23,9 C 94 % 1005,5 hPa 0,0 l/m 7,4 km/h (2 Bft) W 262 0 min 0,000 mm 1,8 UV-I 242 W/m 15,9 C 16,4 C 12,9 km/h (3 Bft) 100,00 %
24.07.2017 15:08 17,1 C 23,9 C 94 % 1005,4 hPa 0,0 l/m 7,1 km/h (2 Bft) W-SW 242 0 min 0,000 mm 1,7 UV-I 234 W/m 16,1 C 16,7 C 11,3 km/h (2 Bft) 100,00 %
24.07.2017 15:10 17,1 C 23,9 C 93 % 1005,4 hPa 0,0 l/m 5,5 km/h (1 Bft) W-NW 296 0 min 0,000 mm 1,6 UV-I 227 W/m 16,0 C 17,1 C 9,7 km/h (2 Bft) 97,37 %
24.07.2017 15:12 17,2 C 23,9 C 94 % 1005,4 hPa 0,0 l/m 4,3 km/h (1 Bft) W 271 0 min 0,000 mm 1,6 UV-I 215 W/m 16,2 C 17,2 C 6,4 km/h (2 Bft) 98,21 %
24.07.2017 15:14 17,2 C 23,9 C 94 % 1005,4 hPa 0,0 l/m 6,6 km/h (2 Bft) W-SW 241 0 min 0,000 mm 1,5 UV-I 199 W/m 16,2 C 17,1 C 12,9 km/h (3 Bft) 100,00 %
24.07.2017 15:16 17,2 C 23,9 C 94 % 1005,4 hPa 0,0 l/m 4,1 km/h (1 Bft) W 273 0 min 0,000 mm 1,4 UV-I 192 W/m 16,2 C 17,2 C 8,0 km/h (2 Bft) 98,39 %
24.07.2017 15:18 17,2 C 23,9 C 94 % 1005,4 hPa 0,0 l/m 5,5 km/h (1 Bft) SW 234 0 min 0,000 mm 1,4 UV-I 191 W/m 16,2 C 17,2 C 9,7 km/h (2 Bft) 97,73 %
24.07.2017 15:20 17,2 C 23,9 C 93 % 1005,4 hPa 0,0 l/m 4,8 km/h (1 Bft) W-SW 252 0 min 0,000 mm 1,4 UV-I 192 W/m 16,1 C 17,2 C 8,0 km/h (2 Bft) 100,00 %
24.07.2017 15:22 17,3 C 23,9 C 94 % 1005,4 hPa 0,0 l/m 5,5 km/h (1 Bft) W-SW 257 0 min 0,000 mm 1,4 UV-I 191 W/m 16,3 C 17,3 C 8,0 km/h (2 Bft) 100,00 %
24.07.2017 15:24 17,3 C 23,9 C 93 % 1005,4 hPa 0,0 l/m 4,7 km/h (1 Bft) W 259 0 min 0,000 mm 1,3 UV-I 185 W/m 16,2 C 17,3 C 9,7 km/h (2 Bft) 98,00 %
24.07.2017 15:26 17,3 C 23,9 C 93 % 1005,5 hPa 0,0 l/m 5,8 km/h (2 Bft) W 268 0 min 0,000 mm 1,3 UV-I 179 W/m 16,2 C 17,3 C 9,7 km/h (2 Bft) 100,00 %
24.07.2017 15:28 17,3 C 23,9 C 93 % 1005,4 hPa 0,0 l/m 5,2 km/h (1 Bft) W-SW 248 0 min 0,000 mm 1,3 UV-I 184 W/m 16,2 C 17,3 C 9,7 km/h (2 Bft) 98,00 %
24.07.2017 15:30 17,3 C 23,9 C 93 % 1005,4 hPa 0,0 l/m 5,6 km/h (1 Bft) W-SW 253 0 min 0,000 mm 1,4 UV-I 194 W/m 16,2 C 17,3 C 11,3 km/h (2 Bft) 96,00 %
24.07.2017 15:32 17,3 C 23,9 C 93 % 1005,5 hPa 0,0 l/m 5,4 km/h (1 Bft) W 265 0 min 0,000 mm 1,4 UV-I 196 W/m 16,2 C 17,3 C 9,7 km/h (2 Bft) 100,00 %
24.07.2017 15:34 17,4 C 23,9 C 93 % 1005,5 hPa 0,0 l/m 4,9 km/h (1 Bft) W 261 0 min 0,000 mm 1,3 UV-I 188 W/m 16,3 C 17,4 C 9,7 km/h (2 Bft) 98,00 %
24.07.2017 15:36 17,4 C 23,9 C 92 % 1005,5 hPa 0,0 l/m 5,4 km/h (1 Bft) W 271 0 min 0,000 mm 1,2 UV-I 180 W/m 16,1 C 17,4 C 9,7 km/h (2 Bft) 100,00 %
24.07.2017 15:38 17,4 C 23,9 C 93 % 1005,5 hPa 0,0 l/m 4,4 km/h (1 Bft) W 261 0 min 0,000 mm 1,2 UV-I 176 W/m 16,3 C 17,4 C 6,4 km/h (2 Bft) 98,00 %
24.07.2017 15:40 17,4 C 23,9 C 93 % 1005,5 hPa 0,0 l/m 3,9 km/h (1 Bft) W-SW 258 0 min 0,000 mm 1,2 UV-I 175 W/m 16,3 C 17,4 C 9,7 km/h (2 Bft) 97,56 %
24.07.2017 15:42 17,5 C 23,9 C 93 % 1005,5 hPa 0,0 l/m 5,7 km/h (1 Bft) W-SW 246 0 min 0,000 mm 1,2 UV-I 171 W/m 16,4 C 17,5 C 11,3 km/h (2 Bft) 97,92 %
24.07.2017 15:44 17,5 C 23,9 C 92 % 1005,5 hPa 0,0 l/m 6,1 km/h (2 Bft) W-SW 238 0 min 0,000 mm 1,1 UV-I 168 W/m 16,2 C 17,5 C 11,3 km/h (2 Bft) 100,00 %
24.07.2017 15:46 17,6 C 23,9 C 92 % 1005,5 hPa 0,0 l/m 6,9 km/h (2 Bft) SW 231 0 min 0,000 mm 1,2 UV-I 172 W/m 16,3 C 17,4 C 11,3 km/h (2 Bft) 96,43 %
24.07.2017 15:48 17,6 C 23,9 C 92 % 1005,5 hPa 0,0 l/m 5,2 km/h (1 Bft) W-SW 254 0 min 0,000 mm 1,2 UV-I 173 W/m 16,3 C 17,6 C 9,7 km/h (2 Bft) 98,00 %
24.07.2017 15:50 17,7 C 23,9 C 92 % 1005,6 hPa 0,0 l/m 6,0 km/h (2 Bft) W 262 0 min 0,000 mm 1,1 UV-I 167 W/m 16,4 C 17,7 C 9,7 km/h (2 Bft) 94,74 %
24.07.2017 15:52 17,7 C 23,9 C 92 % 1005,6 hPa 0,0 l/m 7,4 km/h (2 Bft) W-SW 240 0 min 0,000 mm 1,1 UV-I 168 W/m 16,4 C 17,2 C 12,9 km/h (3 Bft) 97,87 %
24.07.2017 15:54 17,7 C 23,9 C 91 % 1005,6 hPa 0,0 l/m 6,8 km/h (2 Bft) W-SW 238 0 min 0,000 mm 1,2 UV-I 179 W/m 16,2 C 17,5 C 11,3 km/h (2 Bft) 96,00 %
24.07.2017 15:56 17,8 C 23,9 C 91 % 1005,6 hPa 0,0 l/m 6,3 km/h (2 Bft) W-SW 243 0 min 0,000 mm 1,2 UV-I 194 W/m 16,3 C 17,8 C 11,3 km/h (2 Bft) 96,23 %
24.07.2017 15:58 17,8 C 23,9 C 91 % 1005,6 hPa 0,0 l/m 8,7 km/h (2 Bft) W-SW 244 0 min 0,000 mm 1,4 UV-I 216 W/m 16,3 C 16,7 C 16,1 km/h (3 Bft) 95,65 %
24.07.2017 16:00 17,8 C 23,9 C 90 % 1005,6 hPa 0,0 l/m 8,7 km/h (2 Bft) W-SW 249 0 min 0,101 mm 1,5 UV-I 226 W/m 16,1 C 16,7 C 14,5 km/h (3 Bft) 94,74 %
24.07.2017 16:02 17,9 C 23,9 C 91 % 1005,6 hPa 0,0 l/m 8,6 km/h (2 Bft) SW 227 0 min 0,000 mm 1,4 UV-I 218 W/m 16,4 C 16,9 C 14,5 km/h (3 Bft) 94,00 %
24.07.2017 16:04 18,0 C 23,9 C 91 % 1005,6 hPa 0,0 l/m 8,9 km/h (2 Bft) SW 228 0 min 0,000 mm 1,3 UV-I 201 W/m 16,5 C 16,9 C 14,5 km/h (3 Bft) 96,00 %
24.07.2017 16:06 18,0 C 23,9 C 91 % 1005,6 hPa 0,0 l/m 10,3 km/h (2 Bft) W-SW 246 0 min 0,000 mm 1,3 UV-I 197 W/m 16,5 C 16,3 C 16,1 km/h (3 Bft) 97,56 %
24.07.2017 16:08 18,0 C 23,9 C 91 % 1005,6 hPa 0,0 l/m 10,2 km/h (2 Bft) W-SW 247 0 min 0,000 mm 1,3 UV-I 212 W/m 16,5 C 16,4 C 14,5 km/h (3 Bft) 94,64 %
24.07.2017 16:10 18,0 C 23,9 C 91 % 1005,6 hPa 0,0 l/m 8,4 km/h (2 Bft) SW 225 0 min 0,000 mm 1,5 UV-I 236 W/m 16,5 C 17,1 C 12,9 km/h (3 Bft) 95,12 %
24.07.2017 16:12 18,0 C 23,9 C 90 % 1005,6 hPa 0,0 l/m 13,1 km/h (3 Bft) S-SW 211 0 min 0,000 mm 1,5 UV-I 236 W/m 16,3 C 15,4 C 22,5 km/h (4 Bft) 90,57 %
24.07.2017 16:14 17,9 C 23,9 C 89 % 1005,6 hPa 0,0 l/m 10,7 km/h (2 Bft) SW 234 0 min 0,000 mm 1,4 UV-I 214 W/m 16,1 C 16,1 C 17,7 km/h (3 Bft) 92,68 %
24.07.2017 16:16 17,9 C 23,9 C 90 % 1005,7 hPa 0,0 l/m 12,7 km/h (3 Bft) W-SW 244 0 min 0,000 mm 1,3 UV-I 213 W/m 16,2 C 15,4 C 19,3 km/h (3 Bft) 94,00 %
24.07.2017 16:18 18,0 C 23,9 C 90 % 1005,6 hPa 0,0 l/m 11,8 km/h (2 Bft) W 268 0 min 0,000 mm 1,4 UV-I 224 W/m 16,3 C 15,8 C 17,7 km/h (3 Bft) 92,31 %
24.07.2017 16:20 18,0 C 23,9 C 90 % 1005,6 hPa 0,0 l/m 13,5 km/h (3 Bft) W-SW 243 0 min 0,000 mm 1,4 UV-I 221 W/m 16,3 C 15,3 C 20,9 km/h (4 Bft) 93,62 %
24.07.2017 16:22 18,0 C 23,9 C 90 % 1005,7 hPa 0,0 l/m 14,1 km/h (3 Bft) W-SW 246 0 min 0,000 mm 1,3 UV-I 204 W/m 16,3 C 15,1 C 22,5 km/h (4 Bft) 98,00 %
24.07.2017 16:24 18,0 C 23,9 C 91 % 1005,7 hPa 0,0 l/m 9,9 km/h (2 Bft) S-SW 200 0 min 0,000 mm 1,2 UV-I 183 W/m 16,5 C 16,5 C 17,7 km/h (3 Bft) 96,00 %
24.07.2017 16:26 17,9 C 23,9 C 91 % 1005,7 hPa 0,0 l/m 12,6 km/h (3 Bft) W-SW 242 0 min 0,000 mm 1,0 UV-I 159 W/m 16,4 C 15,4 C 20,9 km/h (4 Bft) 97,56 %
24.07.2017 16:28 17,9 C 23,9 C 91 % 1005,7 hPa 0,0 l/m 11,7 km/h (2 Bft) W-SW 250 0 min 0,000 mm 0,9 UV-I 135 W/m 16,4 C 15,7 C 19,3 km/h (3 Bft) 96,00 %
24.07.2017 16:30 17,8 C 23,9 C 91 % 1005,7 hPa 0,0 l/m 10,5 km/h (2 Bft) W 275 0 min 0,000 mm 0,8 UV-I 131 W/m 16,3 C 16,0 C 14,5 km/h (3 Bft) 95,45 %
24.07.2017 16:32 17,8 C 23,9 C 91 % 1005,7 hPa 0,0 l/m 10,0 km/h (2 Bft) W 259 0 min 0,000 mm 0,8 UV-I 129 W/m 16,3 C 16,2 C 14,5 km/h (3 Bft) 96,23 %
24.07.2017 16:34 17,8 C 23,9 C 92 % 1005,8 hPa 0,0 l/m 10,9 km/h (2 Bft) SW 235 0 min 0,000 mm 0,6 UV-I 104 W/m 16,5 C 15,9 C 16,1 km/h (3 Bft) 97,87 %
24.07.2017 16:36 17,8 C 23,9 C 92 % 1005,8 hPa 0,0 l/m 12,0 km/h (2 Bft) W 261 0 min 0,000 mm 0,5 UV-I 81 W/m 16,5 C 15,5 C 17,7 km/h (3 Bft) 93,62 %
24.07.2017 16:38 17,7 C 23,9 C 92 % 1005,8 hPa 0,0 l/m 11,0 km/h (2 Bft) W-SW 242 0 min 0,000 mm 0,5 UV-I 78 W/m 16,4 C 15,7 C 16,1 km/h (3 Bft) 100,00 %
24.07.2017 16:40 17,7 C 23,9 C 92 % 1005,8 hPa 0,0 l/m 11,2 km/h (2 Bft) W-SW 247 0 min 0,000 mm 0,3 UV-I 76 W/m 16,4 C 15,7 C 19,3 km/h (3 Bft) 94,00 %
24.07.2017 16:42 17,6 C 23,9 C 92 % 1005,7 hPa 0,0 l/m 16,0 km/h (3 Bft) SW 231 0 min 0,000 mm 0,4 UV-I 75 W/m 16,3 C 14,1 C 25,7 km/h (4 Bft) 96,23 %
24.07.2017 16:44 17,5 C 23,9 C 92 % 1005,8 hPa 0,0 l/m 13,0 km/h (3 Bft) W-SW 248 0 min 0,000 mm 0,0 UV-I 68 W/m 16,2 C 14,8 C 17,7 km/h (3 Bft) 97,73 %
24.07.2017 16:46 17,4 C 23,9 C 92 % 1005,8 hPa 0,0 l/m 15,1 km/h (3 Bft) SW 227 0 min 0,000 mm 0,0 UV-I 63 W/m 16,1 C 14,1 C 24,1 km/h (4 Bft) 94,74 %
24.07.2017 16:48 17,3 C 23,9 C 92 % 1005,9 hPa 0,2 l/m 15,1 km/h (3 Bft) W 265 0 min 0,000 mm 0,0 UV-I 68 W/m 16,0 C 13,9 C 24,1 km/h (4 Bft) 98,11 %
24.07.2017 16:50 17,3 C 23,9 C 93 % 1005,9 hPa 0,0 l/m 9,9 km/h (2 Bft) W-SW 251 0 min 0,000 mm 0,3 UV-I 76 W/m 16,2 C 15,7 C 14,5 km/h (3 Bft) 92,00 %
24.07.2017 16:52 17,2 C 23,9 C 93 % 1005,9 hPa 0,0 l/m 9,3 km/h (2 Bft) W-SW 249 0 min 0,000 mm 0,5 UV-I 79 W/m 16,1 C 15,8 C 12,9 km/h (3 Bft) 97,37 %
24.07.2017 16:54 17,2 C 23,9 C 93 % 1005,9 hPa 0,0 l/m 7,5 km/h (2 Bft) S-SW 207 0 min 0,000 mm 0,5 UV-I 79 W/m 16,1 C 16,7 C 12,9 km/h (3 Bft) 92,86 %
24.07.2017 16:56 17,2 C 23,9 C 93 % 1005,9 hPa 0,0 l/m 10,8 km/h (2 Bft) W 260 0 min 0,000 mm 0,5 UV-I 81 W/m 16,1 C 15,2 C 14,5 km/h (3 Bft) 96,30 %
24.07.2017 16:58 17,1 C 23,9 C 93 % 1005,8 hPa 0,0 l/m 9,4 km/h (2 Bft) SW 233 0 min 0,000 mm 0,5 UV-I 90 W/m 16,0 C 15,7 C 16,1 km/h (3 Bft) 95,16 %
24.07.2017 17:00 17,1 C 23,9 C 94 % 1005,8 hPa 0,0 l/m 10,5 km/h (2 Bft) SW 227 0 min 0,000 mm 0,6 UV-I 99 W/m 16,1 C 15,2 C 16,1 km/h (3 Bft) 94,55 %
24.07.2017 17:02 17,1 C 23,9 C 94 % 1005,8 hPa 0,2 l/m 10,6 km/h (2 Bft) SW 215 0 min 0,102 mm 0,7 UV-I 112 W/m 16,1 C 15,2 C 16,1 km/h (3 Bft) 97,62 %
24.07.2017 17:04 17,1 C 23,9 C 94 % 1005,8 hPa 0,0 l/m 11,3 km/h (2 Bft) W-SW 258 0 min 0,000 mm 0,7 UV-I 128 W/m 16,1 C 14,9 C 17,7 km/h (3 Bft) 96,00 %
24.07.2017 17:06 17,2 C 23,9 C 94 % 1005,9 hPa 0,0 l/m 9,3 km/h (2 Bft) SW 231 0 min 0,000 mm 0,8 UV-I 132 W/m 16,2 C 15,8 C 14,5 km/h (3 Bft) 97,56 %
24.07.2017 17:08 17,2 C 23,9 C 94 % 1005,9 hPa 0,0 l/m 8,4 km/h (2 Bft) W 265 0 min 0,000 mm 0,7 UV-I 121 W/m 16,2 C 16,2 C 14,5 km/h (3 Bft) 96,43 %
24.07.2017 17:10 17,2 C 23,9 C 94 % 1005,9 hPa 0,0 l/m 9,0 km/h (2 Bft) SW 232 0 min 0,000 mm 0,6 UV-I 108 W/m 16,2 C 16,0 C 16,1 km/h (3 Bft) 97,37 %
24.07.2017 17:12 17,2 C 23,9 C 93 % 1006,0 hPa 0,0 l/m 12,8 km/h (3 Bft) SW 231 0 min 0,000 mm 0,3 UV-I 84 W/m 16,1 C 14,5 C 17,7 km/h (3 Bft) 95,12 %
24.07.2017 17:14 17,2 C 23,9 C 93 % 1006,0 hPa 0,0 l/m 13,7 km/h (3 Bft) W-NW 286 0 min 0,000 mm 0,0 UV-I 78 W/m 16,1 C 14,2 C 20,9 km/h (4 Bft) 97,56 %
24.07.2017 17:16 17,2 C 23,9 C 93 % 1006,0 hPa 0,0 l/m 11,1 km/h (2 Bft) W-SW 238 0 min 0,000 mm 0,0 UV-I 72 W/m 16,1 C 15,1 C 19,3 km/h (3 Bft) 96,43 %
24.07.2017 17:18 17,2 C 23,9 C 93 % 1005,9 hPa 0,0 l/m 12,9 km/h (3 Bft) W-SW 256 0 min 0,000 mm 0,0 UV-I 59 W/m 16,1 C 14,5 C 20,9 km/h (4 Bft) 98,21 %
24.07.2017 17:20 17,2 C 23,9 C 93 % 1006,0 hPa 0,0 l/m 13,1 km/h (3 Bft) SW 220 0 min 0,000 mm 0,0 UV-I 48 W/m 16,1 C 14,4 C 19,3 km/h (3 Bft) 97,56 %
24.07.2017 17:22 17,1 C 23,9 C 93 % 1006,0 hPa 0,0 l/m 15,1 km/h (3 Bft) W-SW 246 0 min 0,000 mm 0,0 UV-I 39 W/m 16,0 C 13,7 C 20,9 km/h (4 Bft) 97,87 %
24.07.2017 17:24 17,1 C 23,9 C 93 % 1006,0 hPa 0,0 l/m 14,6 km/h (3 Bft) SW 230 0 min 0,000 mm 0,0 UV-I 34 W/m 16,0 C 13,9 C 20,9 km/h (4 Bft) 95,74 %
24.07.2017 17:26 17,0 C 23,9 C 93 % 1006,0 hPa 0,2 l/m 15,4 km/h (3 Bft) W-SW 250 0 min 0,000 mm 0,0 UV-I 45 W/m 15,9 C 13,5 C 24,1 km/h (4 Bft) 100,00 %
24.07.2017 17:28 16,9 C 23,9 C 93 % 1006,1 hPa 0,2 l/m 13,0 km/h (3 Bft) W 265 0 min 0,000 mm 0,0 UV-I 52 W/m 15,8 C 14,1 C 25,7 km/h (4 Bft) 94,74 %
24.07.2017 17:30 16,9 C 23,9 C 93 % 1006,1 hPa 0,4 l/m 14,4 km/h (3 Bft) W 273 0 min 0,000 mm 0,0 UV-I 62 W/m 15,8 C 13,7 C 20,9 km/h (4 Bft) 100,00 %
24.07.2017 17:32 16,8 C 23,9 C 93 % 1006,1 hPa 0,2 l/m 13,3 km/h (3 Bft) W-SW 255 0 min 0,000 mm 0,0 UV-I 55 W/m 15,7 C 13,9 C 22,5 km/h (4 Bft) 98,11 %
24.07.2017 17:34 16,7 C 23,9 C 94 % 1006,1 hPa 0,2 l/m 12,8 km/h (3 Bft) W 273 0 min 0,000 mm 0,0 UV-I 52 W/m 15,7 C 14,0 C 22,5 km/h (4 Bft) 87,50 %
24.07.2017 17:36 16,7 C 23,9 C 94 % 1006,1 hPa 0,8 l/m 8,4 km/h (2 Bft) W 263 0 min 0,000 mm 0,0 UV-I 35 W/m 15,7 C 15,7 C 16,1 km/h (3 Bft) 93,55 %
24.07.2017 17:38 16,7 C 23,9 C 94 % 1006,2 hPa 0,4 l/m 12,6 km/h (3 Bft) SW 232 0 min 0,000 mm 0,0 UV-I 34 W/m 15,7 C 14,0 C 19,3 km/h (3 Bft) 93,62 %
24.07.2017 17:40 16,6 C 23,9 C 94 % 1006,2 hPa 0,4 l/m 9,6 km/h (2 Bft) W-SW 252 0 min 0,000 mm 0,0 UV-I 40 W/m 15,6 C 15,1 C 14,5 km/h (3 Bft) 100,00 %
24.07.2017 17:42 16,6 C 23,9 C 94 % 1006,1 hPa 0,2 l/m 10,4 km/h (2 Bft) W 277 0 min 0,000 mm 0,0 UV-I 77 W/m 15,6 C 14,7 C 17,7 km/h (3 Bft) 94,74 %
24.07.2017 17:44 16,6 C 23,9 C 95 % 1006,1 hPa 0,0 l/m 11,7 km/h (2 Bft) SW 221 0 min 0,000 mm 0,0 UV-I 91 W/m 15,8 C 14,2 C 20,9 km/h (4 Bft) 96,23 %
24.07.2017 17:46 16,6 C 23,9 C 95 % 1006,1 hPa 0,0 l/m 10,0 km/h (2 Bft) W-SW 246 0 min 0,000 mm 0,4 UV-I 114 W/m 15,8 C 14,9 C 17,7 km/h (3 Bft) 98,11 %
24.07.2017 17:48 16,6 C 23,9 C 95 % 1006,1 hPa 0,0 l/m 10,6 km/h (2 Bft) SW 228 0 min 0,000 mm 0,7 UV-I 135 W/m 15,8 C 14,6 C 20,9 km/h (4 Bft) 100,00 %
24.07.2017 17:50 16,6 C 23,9 C 95 % 1006,1 hPa 0,2 l/m 12,4 km/h (3 Bft) W-SW 254 0 min 0,000 mm 0,7 UV-I 141 W/m 15,8 C 14,0 C 22,5 km/h (4 Bft) 95,74 %
24.07.2017 17:52 16,7 C 23,9 C 95 % 1006,1 hPa 0,0 l/m 16,8 km/h (3 Bft) W-SW 237 0 min 0,000 mm 0,7 UV-I 141 W/m 15,9 C 12,7 C 24,1 km/h (4 Bft) 98,11 %
24.07.2017 17:54 16,7 C 23,9 C 95 % 1006,1 hPa 0,0 l/m 13,6 km/h (3 Bft) SW 232 0 min 0,000 mm 0,6 UV-I 138 W/m 15,9 C 13,7 C 20,9 km/h (4 Bft) 95,12 %
24.07.2017 17:56 16,7 C 23,9 C 95 % 1006,1 hPa 0,0 l/m 11,5 km/h (2 Bft) W-SW 248 0 min 0,000 mm 0,6 UV-I 133 W/m 15,9 C 14,4 C 17,7 km/h (3 Bft) 94,64 %
24.07.2017 17:58 16,7 C 23,9 C 95 % 1006,1 hPa 0,0 l/m 14,5 km/h (3 Bft) W-SW 250 0 min 0,000 mm 0,6 UV-I 126 W/m 15,9 C 13,4 C 24,1 km/h (4 Bft) 97,56 %
24.07.2017 18:00 16,7 C 23,9 C 95 % 1006,1 hPa 0,2 l/m 16,7 km/h (3 Bft) W-SW 253 0 min 0,000 mm 0,5 UV-I 119 W/m 15,9 C 12,8 C 25,7 km/h (4 Bft) 95,12 %
24.07.2017 18:02 16,7 C 23,9 C 95 % 1006,1 hPa 0,0 l/m 15,6 km/h (3 Bft) W-SW 242 0 min 0,051 mm 0,5 UV-I 113 W/m 15,9 C 13,1 C 25,7 km/h (4 Bft) 94,00 %
24.07.2017 18:04 16,7 C 23,9 C 94 % 1006,1 hPa 0,0 l/m 16,5 km/h (3 Bft) SW 221 0 min 0,000 mm 0,5 UV-I 109 W/m 15,7 C 12,8 C 22,5 km/h (4 Bft) 96,23 %
24.07.2017 18:06 16,7 C 23,9 C 94 % 1006,1 hPa 0,0 l/m 15,4 km/h (3 Bft) SW 234 0 min 0,000 mm 0,5 UV-I 107 W/m 15,7 C 13,1 C 27,4 km/h (4 Bft) 97,56 %
24.07.2017 18:08 16,6 C 23,9 C 94 % 1006,0 hPa 0,0 l/m 18,2 km/h (3 Bft) W-SW 242 0 min 0,000 mm 0,0 UV-I 108 W/m 15,6 C 12,2 C 27,4 km/h (4 Bft) 98,00 %
24.07.2017 18:10 16,6 C 23,9 C 94 % 1006,1 hPa 0,0 l/m 16,1 km/h (3 Bft) W 273 0 min 0,000 mm 0,0 UV-I 107 W/m 15,6 C 12,8 C 22,5 km/h (4 Bft) 95,12 %
24.07.2017 18:12 16,6 C 23,9 C 94 % 1006,1 hPa 0,0 l/m 15,1 km/h (3 Bft) W-SW 252 0 min 0,000 mm 0,0 UV-I 106 W/m 15,6 C 13,1 C 19,3 km/h (3 Bft) 97,62 %
24.07.2017 18:14 16,6 C 23,9 C 94 % 1006,1 hPa 0,0 l/m 10,4 km/h (2 Bft) SW 218 0 min 0,000 mm 0,0 UV-I 104 W/m 15,6 C 14,7 C 16,1 km/h (3 Bft) 97,56 %
24.07.2017 18:16 16,6 C 23,9 C 94 % 1006,1 hPa 0,2 l/m 13,1 km/h (3 Bft) W-SW 256 0 min 0,000 mm 0,0 UV-I 99 W/m 15,6 C 13,7 C 17,7 km/h (3 Bft) 96,77 %
24.07.2017 18:18 16,6 C 23,9 C 94 % 1006,1 hPa 0,0 l/m 10,6 km/h (2 Bft) W-SW 248 0 min 0,000 mm 0,0 UV-I 95 W/m 15,6 C 14,6 C 19,3 km/h (3 Bft) 97,56 %
24.07.2017 18:20 16,6 C 23,9 C 94 % 1006,1 hPa 0,0 l/m 11,1 km/h (2 Bft) W-SW 246 0 min 0,000 mm 0,0 UV-I 87 W/m 15,6 C 14,4 C 16,1 km/h (3 Bft) 93,10 %
24.07.2017 18:22 16,5 C 23,9 C 94 % 1006,1 hPa 0,0 l/m 10,1 km/h (2 Bft) W-SW 252 0 min 0,000 mm 0,0 UV-I 82 W/m 15,5 C 14,7 C 14,5 km/h (3 Bft) 97,62 %
24.07.2017 18:24 16,5 C 23,9 C 94 % 1006,1 hPa 0,0 l/m 11,4 km/h (2 Bft) S-SW 198 0 min 0,000 mm 0,0 UV-I 83 W/m 15,5 C 14,2 C 19,3 km/h (3 Bft) 97,73 %
24.07.2017 18:26 16,6 C 23,9 C 95 % 1006,1 hPa 0,2 l/m 11,3 km/h (2 Bft) S-SW 195 0 min 0,000 mm 0,0 UV-I 82 W/m 15,8 C 14,4 C 16,1 km/h (3 Bft) 98,11 %
24.07.2017 18:28 16,6 C 23,9 C 95 % 1006,1 hPa 0,0 l/m 10,6 km/h (2 Bft) S-SW 205 0 min 0,000 mm 0,0 UV-I 78 W/m 15,8 C 14,6 C 17,7 km/h (3 Bft) 100,00 %
24.07.2017 18:30 16,6 C 23,9 C 95 % 1006,1 hPa 0,0 l/m 9,5 km/h (2 Bft) W-SW 255 0 min 0,000 mm 0,0 UV-I 76 W/m 15,8 C 15,1 C 14,5 km/h (3 Bft) 97,37 %
24.07.2017 18:32 16,6 C 23,9 C 95 % 1006,1 hPa 0,0 l/m 13,0 km/h (3 Bft) SW 221 0 min 0,000 mm 0,0 UV-I 74 W/m 15,8 C 13,8 C 19,3 km/h (3 Bft) 98,11 %
24.07.2017 18:34 16,6 C 23,9 C 95 % 1006,1 hPa 0,0 l/m 12,3 km/h (3 Bft) SW 234 0 min 0,000 mm 0,0 UV-I 71 W/m 15,8 C 14,0 C 17,7 km/h (3 Bft) 100,00 %
24.07.2017 18:36 16,6 C 23,9 C 95 % 1006,1 hPa 0,0 l/m 9,7 km/h (2 Bft) S-SW 213 0 min 0,000 mm 0,0 UV-I 69 W/m 15,8 C 15,0 C 16,1 km/h (3 Bft) 97,56 %
24.07.2017 18:38 16,6 C 23,9 C 95 % 1006,2 hPa 0,0 l/m 11,2 km/h (2 Bft) SW 222 0 min 0,000 mm 0,0 UV-I 65 W/m 15,8 C 14,4 C 17,7 km/h (3 Bft) 100,00 %
24.07.2017 18:40 16,6 C 23,9 C 95 % 1006,2 hPa 0,0 l/m 11,5 km/h (2 Bft) W-SW 253 0 min 0,000 mm 0,0 UV-I 59 W/m 15,8 C 14,3 C 19,3 km/h (3 Bft) 97,56 %
24.07.2017 18:42 16,6 C 23,9 C 95 % 1006,2 hPa 0,0 l/m 12,3 km/h (3 Bft) W-SW 254 0 min 0,000 mm 0,0 UV-I 55 W/m 15,8 C 14,0 C 20,9 km/h (4 Bft) 100,00 %
24.07.2017 18:44 16,6 C 23,9 C 95 % 1006,3 hPa 0,0 l/m 16,5 km/h (3 Bft) SW 232 0 min 0,000 mm 0,0 UV-I 53 W/m 15,8 C 12,7 C 25,7 km/h (4 Bft) 98,31 %
24.07.2017 18:46 16,6 C 23,9 C 95 % 1006,2 hPa 0,0 l/m 14,2 km/h (3 Bft) SW 234 0 min 0,000 mm 0,0 UV-I 55 W/m 15,8 C 13,4 C 22,5 km/h (4 Bft) 97,37 %
24.07.2017 18:48 16,6 C 23,9 C 95 % 1006,3 hPa 0,2 l/m 10,5 km/h (2 Bft) W-SW 243 0 min 0,000 mm 0,0 UV-I 54 W/m 15,8 C 14,7 C 16,1 km/h (3 Bft) 100,00 %
24.07.2017 18:50 16,6 C 23,9 C 95 % 1006,2 hPa 0,0 l/m 10,5 km/h (2 Bft) W-SW 240 0 min 0,000 mm 0,0 UV-I 51 W/m 15,8 C 14,7 C 20,9 km/h (4 Bft) 98,00 %
24.07.2017 18:52 16,5 C 23,9 C 95 % 1006,2 hPa 0,0 l/m 13,9 km/h (3 Bft) W-SW 240 0 min 0,000 mm 0,0 UV-I 46 W/m 15,7 C 13,4 C 20,9 km/h (4 Bft) 100,00 %
24.07.2017 18:54 16,5 C 23,9 C 95 % 1006,3 hPa 0,0 l/m 14,0 km/h (3 Bft) S-SW 209 0 min 0,000 mm 0,0 UV-I 27 W/m 15,7 C 13,3 C 22,5 km/h (4 Bft) 100,00 %
24.07.2017 18:56 16,5 C 23,9 C 95 % 1006,4 hPa 0,2 l/m 14,8 km/h (3 Bft) S-SW 192 0 min 0,000 mm 0,0 UV-I 15 W/m 15,7 C 13,1 C 22,5 km/h (4 Bft) 97,78 %
24.07.2017 18:58 16,4 C 23,9 C 95 % 1006,5 hPa 1,2 l/m 18,5 km/h (3 Bft) SW 225 0 min 0,000 mm 0,0 UV-I 16 W/m 15,6 C 11,9 C 29,0 km/h (5 Bft) 100,00 %
24.07.2017 19:00 16,4 C 23,9 C 95 % 1006,5 hPa 1,0 l/m 14,5 km/h (3 Bft) W 259 0 min 0,000 mm 0,0 UV-I 11 W/m 15,6 C 13,0 C 22,5 km/h (4 Bft) 100,00 %
24.07.2017 19:02 16,3 C 23,9 C 95 % 1006,7 hPa 0,2 l/m 10,9 km/h (2 Bft) W 269 0 min 0,051 mm 0,0 UV-I 16 W/m 15,5 C 14,2 C 20,9 km/h (4 Bft) 97,87 %
24.07.2017 19:04 16,3 C 23,9 C 95 % 1006,7 hPa 0,2 l/m 11,7 km/h (2 Bft) W-SW 238 0 min 0,000 mm 0,0 UV-I 39 W/m 15,5 C 13,9 C 22,5 km/h (4 Bft) 100,00 %
24.07.2017 19:06 16,2 C 23,9 C 94 % 1006,8 hPa 0,0 l/m 15,0 km/h (3 Bft) W-SW 254 0 min 0,000 mm 0,0 UV-I 40 W/m 15,2 C 12,6 C 22,5 km/h (4 Bft) 100,00 %
24.07.2017 19:08 16,1 C 23,9 C 94 % 1006,9 hPa 0,0 l/m 17,1 km/h (3 Bft) W 277 0 min 0,000 mm 0,0 UV-I 37 W/m 15,1 C 11,9 C 25,7 km/h (4 Bft) 98,00 %
24.07.2017 19:10 15,9 C 23,9 C 94 % 1006,9 hPa 0,2 l/m 18,4 km/h (3 Bft) W 264 0 min 0,000 mm 0,0 UV-I 35 W/m 14,9 C 11,3 C 29,0 km/h (5 Bft) 100,00 %
24.07.2017 19:12 15,8 C 23,9 C 93 % 1006,9 hPa 0,0 l/m 22,7 km/h (4 Bft) W-SW 239 0 min 0,000 mm 0,0 UV-I 33 W/m 14,7 C 10,2 C 37,0 km/h (5 Bft) 100,00 %
24.07.2017 19:14 15,7 C 23,9 C 93 % 1007,0 hPa 0,0 l/m 15,7 km/h (3 Bft) W-SW 254 0 min 0,000 mm 0,0 UV-I 33 W/m 14,6 C 11,8 C 25,7 km/h (4 Bft) 96,00 %
24.07.2017 19:16 15,7 C 23,9 C 93 % 1007,0 hPa 0,0 l/m 15,6 km/h (3 Bft) W 263 0 min 0,000 mm 0,0 UV-I 32 W/m 14,6 C 11,9 C 22,5 km/h (4 Bft) 100,00 %
24.07.2017 19:18 15,6 C 23,9 C 93 % 1007,2 hPa 0,0 l/m 15,1 km/h (3 Bft) W-SW 238 0 min 0,000 mm 0,0 UV-I 32 W/m 14,5 C 11,9 C 24,1 km/h (4 Bft) 98,21 %
24.07.2017 19:20 15,4 C 23,9 C 93 % 1007,2 hPa 0,0 l/m 17,1 km/h (3 Bft) SW 233 0 min 0,000 mm 0,0 UV-I 32 W/m 14,3 C 11,0 C 25,7 km/h (4 Bft) 100,00 %
24.07.2017 19:22 15,4 C 23,9 C 93 % 1007,2 hPa 0,2 l/m 15,7 km/h (3 Bft) W-SW 254 0 min 0,000 mm 0,0 UV-I 30 W/m 14,3 C 11,5 C 27,4 km/h (4 Bft) 96,30 %
24.07.2017 19:24 15,3 C 23,9 C 93 % 1007,2 hPa 0,0 l/m 17,4 km/h (3 Bft) W-SW 247 0 min 0,000 mm 0,0 UV-I 26 W/m 14,2 C 10,8 C 27,4 km/h (4 Bft) 100,00 %
24.07.2017 19:26 15,3 C 23,9 C 93 % 1007,3 hPa 0,0 l/m 15,1 km/h (3 Bft) W 260 0 min 0,000 mm 0,0 UV-I 29 W/m 14,2 C 11,5 C 24,1 km/h (4 Bft) 93,18 %
24.07.2017 19:28 15,2 C 23,9 C 93 % 1007,3 hPa 0,0 l/m 15,2 km/h (3 Bft) W 259 0 min 0,000 mm 0,0 UV-I 30 W/m 14,1 C 11,4 C 22,5 km/h (4 Bft) 100,00 %
24.07.2017 19:30 15,2 C 23,9 C 93 % 1007,4 hPa 0,0 l/m 15,8 km/h (3 Bft) W-NW 296 0 min 0,000 mm 0,0 UV-I 26 W/m 14,1 C 11,2 C 24,1 km/h (4 Bft) 98,18 %
24.07.2017 19:32 15,2 C 23,9 C 93 % 1007,4 hPa 0,2 l/m 16,2 km/h (3 Bft) W-SW 243 0 min 0,000 mm 0,0 UV-I 23 W/m 14,1 C 11,1 C 25,7 km/h (4 Bft) 98,00 %
24.07.2017 19:34 15,1 C 23,9 C 93 % 1007,5 hPa 0,0 l/m 18,4 km/h (3 Bft) W-SW 249 0 min 0,000 mm 0,0 UV-I 23 W/m 14,0 C 10,3 C 27,4 km/h (4 Bft) 98,00 %
24.07.2017 19:36 15,1 C 23,9 C 94 % 1007,5 hPa 0,0 l/m 13,6 km/h (3 Bft) W-SW 245 0 min 0,000 mm 0,0 UV-I 25 W/m 14,1 C 11,8 C 19,3 km/h (3 Bft) 97,62 %
24.07.2017 19:38 15,1 C 23,9 C 93 % 1007,5 hPa 0,0 l/m 13,4 km/h (3 Bft) W-SW 257 0 min 0,000 mm 0,0 UV-I 25 W/m 14,0 C 11,9 C 20,9 km/h (4 Bft) 98,08 %
24.07.2017 19:40 15,1 C 23,9 C 93 % 1007,5 hPa 0,0 l/m 13,0 km/h (3 Bft) SW 229 0 min 0,000 mm 0,0 UV-I 24 W/m 14,0 C 12,0 C 19,3 km/h (3 Bft) 95,83 %
24.07.2017 19:42 15,1 C 23,9 C 93 % 1007,5 hPa 0,0 l/m 14,1 km/h (3 Bft) W-SW 248 0 min 0,000 mm 0,0 UV-I 23 W/m 14,0 C 11,6 C 22,5 km/h (4 Bft) 100,00 %
24.07.2017 19:44 15,0 C 23,9 C 94 % 1007,5 hPa 0,0 l/m 14,6 km/h (3 Bft) W-SW 238 0 min 0,000 mm 0,0 UV-I 23 W/m 14,0 C 11,3 C 20,9 km/h (4 Bft) 98,11 %
24.07.2017 19:46 14,9 C 23,9 C 94 % 1007,5 hPa 0,0 l/m 13,0 km/h (3 Bft) W-SW 257 0 min 0,000 mm 0,0 UV-I 22 W/m 13,9 C 11,8 C 20,9 km/h (4 Bft) 97,73 %
24.07.2017 19:48 14,9 C 23,9 C 94 % 1007,5 hPa 0,0 l/m 15,7 km/h (3 Bft) W 275 0 min 0,000 mm 0,0 UV-I 21 W/m 13,9 C 10,8 C 22,5 km/h (4 Bft) 100,00 %
24.07.2017 19:50 14,9 C 23,9 C 93 % 1007,5 hPa 0,0 l/m 15,1 km/h (3 Bft) W-SW 254 0 min 0,000 mm 0,0 UV-I 19 W/m 13,8 C 11,0 C 24,1 km/h (4 Bft) 94,74 %
24.07.2017 19:52 14,9 C 23,9 C 94 % 1007,6 hPa 0,0 l/m 15,6 km/h (3 Bft) SW 221 0 min 0,000 mm 0,0 UV-I 18 W/m 13,9 C 10,9 C 22,5 km/h (4 Bft) 98,21 %
24.07.2017 19:54 14,8 C 23,9 C 94 % 1007,6 hPa 0,0 l/m 15,8 km/h (3 Bft) W 261 0 min 0,000 mm 0,0 UV-I 17 W/m 13,8 C 10,7 C 25,7 km/h (4 Bft) 95,12 %
24.07.2017 19:56 14,8 C 23,9 C 94 % 1007,6 hPa 0,0 l/m 16,3 km/h (3 Bft) S-SW 209 0 min 0,000 mm 0,0 UV-I 16 W/m 13,8 C 10,5 C 22,5 km/h (4 Bft) 96,55 %
24.07.2017 19:58 14,8 C 23,9 C 93 % 1007,6 hPa 0,0 l/m 12,9 km/h (3 Bft) W-SW 252 0 min 0,000 mm 0,0 UV-I 16 W/m 13,7 C 11,7 C 22,5 km/h (4 Bft) 95,38 %
24.07.2017 20:00 14,8 C 23,9 C 93 % 1007,6 hPa 0,0 l/m 14,9 km/h (3 Bft) SW 236 0 min 0,025 mm 0,0 UV-I 16 W/m 13,7 C 11,0 C 22,5 km/h (4 Bft) 95,74 %
24.07.2017 20:02 14,8 C 23,9 C 93 % 1007,7 hPa 0,0 l/m 14,4 km/h (3 Bft) W-SW 243 0 min 0,000 mm 0,0 UV-I 14 W/m 13,7 C 11,2 C 22,5 km/h (4 Bft) 96,23 %
24.07.2017 20:04 14,8 C 23,9 C 93 % 1007,7 hPa 0,0 l/m 15,8 km/h (3 Bft) W-SW 246 0 min 0,000 mm 0,0 UV-I 14 W/m 13,7 C 10,7 C 24,1 km/h (4 Bft) 95,12 %
24.07.2017 20:06 14,8 C 23,9 C 93 % 1007,7 hPa 0,0 l/m 13,7 km/h (3 Bft) SW 229 0 min 0,000 mm 0,0 UV-I 14 W/m 13,7 C 11,4 C 20,9 km/h (4 Bft) 94,00 %
24.07.2017 20:08 14,8 C 23,9 C 93 % 1007,7 hPa 0,0 l/m 14,4 km/h (3 Bft) W 264 0 min 0,000 mm 0,0 UV-I 13 W/m 13,7 C 11,2 C 19,3 km/h (3 Bft) 95,12 %
24.07.2017 20:10 14,8 C 23,9 C 93 % 1007,7 hPa 0,0 l/m 15,0 km/h (3 Bft) SW 233 0 min 0,000 mm 0,0 UV-I 12 W/m 13,7 C 10,9 C 25,7 km/h (4 Bft) 92,45 %
24.07.2017 20:12 14,8 C 23,9 C 93 % 1007,6 hPa 0,0 l/m 13,4 km/h (3 Bft) S-SW 213 0 min 0,000 mm 0,0 UV-I 12 W/m 13,7 C 11,5 C 24,1 km/h (4 Bft) 94,00 %
24.07.2017 20:14 14,8 C 23,3 C 93 % 1007,7 hPa 0,0 l/m 15,3 km/h (3 Bft) SW 214 0 min 0,000 mm 0,0 UV-I 12 W/m 13,7 C 10,9 C 22,5 km/h (4 Bft) 94,44 %
24.07.2017 20:16 14,8 C 23,3 C 94 % 1007,7 hPa 0,0 l/m 13,2 km/h (3 Bft) W 259 0 min 0,000 mm 0,0 UV-I 12 W/m 13,8 C 11,6 C 17,7 km/h (3 Bft) 94,00 %
24.07.2017 20:18 14,8 C 23,9 C 94 % 1007,7 hPa 0,0 l/m 14,6 km/h (3 Bft) W-SW 243 0 min 0,000 mm 0,0 UV-I 11 W/m 13,8 C 11,1 C 22,5 km/h (4 Bft) 94,34 %
24.07.2017 20:20 14,8 C 23,9 C 93 % 1007,7 hPa 0,0 l/m 11,1 km/h (2 Bft) SW 218 0 min 0,000 mm 0,0 UV-I 11 W/m 13,7 C 12,4 C 19,3 km/h (3 Bft) 95,00 %
24.07.2017 20:22 14,7 C 23,3 C 93 % 1007,7 hPa 0,0 l/m 11,3 km/h (2 Bft) SW 216 0 min 0,000 mm 0,0 UV-I 10 W/m 13,6 C 12,2 C 17,7 km/h (3 Bft) 92,68 %
24.07.2017 20:24 14,7 C 23,3 C 93 % 1007,8 hPa 0,0 l/m 11,3 km/h (2 Bft) SW 226 0 min 0,000 mm 0,0 UV-I 9 W/m 13,6 C 12,2 C 19,3 km/h (3 Bft) 94,92 %
24.07.2017 20:26 14,7 C 23,3 C 94 % 1007,7 hPa 0,0 l/m 10,9 km/h (2 Bft) S-SW 197 0 min 0,000 mm 0,0 UV-I 9 W/m 13,7 C 12,4 C 17,7 km/h (3 Bft) 94,74 %
24.07.2017 20:28 14,7 C 23,3 C 94 % 1007,8 hPa 0,0 l/m 11,2 km/h (2 Bft) SW 227 0 min 0,000 mm 0,0 UV-I 8 W/m 13,7 C 12,3 C 17,7 km/h (3 Bft) 95,74 %
24.07.2017 20:30 14,7 C 23,3 C 94 % 1007,8 hPa 0,0 l/m 13,7 km/h (3 Bft) SW 227 0 min 0,000 mm 0,0 UV-I 7 W/m 13,7 C 11,3 C 24,1 km/h (4 Bft) 94,00 %
24.07.2017 20:32 14,7 C 23,3 C 94 % 1007,8 hPa 0,0 l/m 12,5 km/h (3 Bft) SW 233 0 min 0,000 mm 0,0 UV-I 7 W/m 13,7 C 11,7 C 20,9 km/h (4 Bft) 86,79 %
24.07.2017 20:34 14,7 C 23,3 C 94 % 1007,7 hPa 0,2 l/m 12,4 km/h (3 Bft) SW 218 0 min 0,000 mm 0,0 UV-I 7 W/m 13,7 C 11,8 C 17,7 km/h (3 Bft) 93,18 %
24.07.2017 20:36 14,7 C 23,3 C 94 % 1007,8 hPa 0,0 l/m 12,5 km/h (3 Bft) SW 231 0 min 0,000 mm 0,0 UV-I 7 W/m 13,7 C 11,7 C 20,9 km/h (4 Bft) 95,12 %
24.07.2017 20:38 14,6 C 23,3 C 93 % 1007,9 hPa 0,0 l/m 17,2 km/h (3 Bft) SW 234 2 min 0,000 mm 0,0 UV-I 9 W/m 13,5 C 10,0 C 25,7 km/h (4 Bft) 92,45 %
24.07.2017 20:40 14,6 C 23,3 C 93 % 1008,0 hPa 0,0 l/m 15,7 km/h (3 Bft) SW 223 0 min 0,000 mm 0,0 UV-I 11 W/m 13,5 C 10,5 C 24,1 km/h (4 Bft) 97,87 %
24.07.2017 20:42 14,6 C 23,3 C 93 % 1008,0 hPa 0,0 l/m 17,9 km/h (3 Bft) W-SW 244 0 min 0,000 mm 0,0 UV-I 11 W/m 13,5 C 9,8 C 29,0 km/h (5 Bft) 94,00 %
24.07.2017 20:44 14,6 C 23,3 C 93 % 1008,0 hPa 0,0 l/m 16,6 km/h (3 Bft) SW 229 0 min 0,000 mm 0,0 UV-I 11 W/m 13,5 C 10,2 C 24,1 km/h (4 Bft) 89,47 %
24.07.2017 20:46 14,6 C 23,3 C 93 % 1008,0 hPa 0,0 l/m 19,3 km/h (3 Bft) W-SW 242 0 min 0,000 mm 0,0 UV-I 11 W/m 13,5 C 9,4 C 24,1 km/h (4 Bft) 93,62 %
24.07.2017 20:48 14,6 C 23,3 C 93 % 1008,2 hPa 0,0 l/m 15,7 km/h (3 Bft) S-SW 204 0 min 0,000 mm 0,0 UV-I 10 W/m 13,5 C 10,5 C 25,7 km/h (4 Bft) 95,24 %
24.07.2017 20:50 14,6 C 23,3 C 93 % 1008,1 hPa 0,0 l/m 17,9 km/h (3 Bft) SW 229 0 min 0,000 mm 0,0 UV-I 8 W/m 13,5 C 9,8 C 25,7 km/h (4 Bft) 96,15 %
24.07.2017 20:52 14,6 C 23,3 C 93 % 1008,2 hPa 0,0 l/m 18,7 km/h (3 Bft) W-SW 238 0 min 0,000 mm 0,0 UV-I 5 W/m 13,5 C 9,6 C 24,1 km/h (4 Bft) 95,24 %
24.07.2017 20:54 14,6 C 23,3 C 93 % 1008,1 hPa 0,0 l/m 15,3 km/h (3 Bft) SW 234 0 min 0,000 mm 0,0 UV-I 1 W/m 13,5 C 10,6 C 20,9 km/h (4 Bft) 96,36 %
24.07.2017 20:56 14,5 C 23,3 C 93 % 1008,2 hPa 0,0 l/m 15,1 km/h (3 Bft) SW 223 0 min 0,000 mm 0,0 UV-I 0 W/m 13,4 C 10,6 C 20,9 km/h (4 Bft) 97,22 %
24.07.2017 20:58 14,5 C 23,3 C 93 % 1008,2 hPa 0,0 l/m 15,3 km/h (3 Bft) SW 236 0 min 0,000 mm 0,0 UV-I 0 W/m 13,4 C 10,5 C 25,7 km/h (4 Bft) 94,92 %
24.07.2017 21:00 14,5 C 23,3 C 93 % 1008,2 hPa 0,0 l/m 18,6 km/h (3 Bft) SW 229 0 min 0,025 mm 0,0 UV-I 0 W/m 13,4 C 9,5 C 25,7 km/h (4 Bft) 93,18 %
24.07.2017 21:02 14,5 C 23,3 C 92 % 1008,2 hPa 0,0 l/m 16,6 km/h (3 Bft) SW 227 0 min 0,000 mm 0,0 UV-I 0 W/m 13,2 C 10,1 C 27,4 km/h (4 Bft) 94,00 %
24.07.2017 21:04 14,5 C 23,3 C 92 % 1008,2 hPa 0,0 l/m 16,1 km/h (3 Bft) S-SW 213 0 min 0,000 mm 0,0 UV-I 0 W/m 13,2 C 10,2 C 24,1 km/h (4 Bft) 97,56 %
24.07.2017 21:06 14,5 C 23,3 C 92 % 1008,3 hPa 0,0 l/m 13,8 km/h (3 Bft) SW 223 0 min 0,000 mm 0,0 UV-I 0 W/m 13,2 C 11,0 C 20,9 km/h (4 Bft) 95,74 %
24.07.2017 21:08 14,5 C 23,3 C 92 % 1008,2 hPa 0,0 l/m 17,2 km/h (3 Bft) SW 228 0 min 0,000 mm 0,0 UV-I 0 W/m 13,2 C 9,9 C 24,1 km/h (4 Bft) 96,23 %
24.07.2017 21:10 14,5 C 23,3 C 92 % 1008,3 hPa 0,0 l/m 17,5 km/h (3 Bft) W-SW 237 0 min 0,000 mm 0,0 UV-I 0 W/m 13,2 C 9,8 C 27,4 km/h (4 Bft) 97,87 %
24.07.2017 21:12 14,5 C 23,3 C 92 % 1008,3 hPa 0,0 l/m 15,0 km/h (3 Bft) S-SW 198 0 min 0,000 mm 0,0 UV-I 0 W/m 13,2 C 10,6 C 25,7 km/h (4 Bft) 94,29 %
24.07.2017 21:14 14,5 C 23,3 C 92 % 1008,3 hPa 0,0 l/m 14,3 km/h (3 Bft) W-SW 240 0 min 0,000 mm 0,0 UV-I 0 W/m 13,2 C 10,8 C 22,5 km/h (4 Bft) 98,00 %
24.07.2017 21:16 14,5 C 23,3 C 92 % 1008,3 hPa 0,0 l/m 13,9 km/h (3 Bft) W-SW 244 0 min 0,000 mm 0,0 UV-I 0 W/m 13,2 C 11,0 C 19,3 km/h (3 Bft) 100,00 %
24.07.2017 21:18 14,4 C 23,3 C 92 % 1008,3 hPa 0,0 l/m 14,6 km/h (3 Bft) S 181 0 min 0,000 mm 0,0 UV-I 0 W/m 13,1 C 10,6 C 20,9 km/h (4 Bft) 97,73 %
24.07.2017 21:20 14,4 C 23,3 C 92 % 1008,3 hPa 0,0 l/m 16,1 km/h (3 Bft) SW 225 0 min 0,000 mm 0,0 UV-I 0 W/m 13,1 C 10,1 C 29,0 km/h (5 Bft) 100,00 %
24.07.2017 21:22 14,4 C 23,3 C 91 % 1008,3 hPa 0,0 l/m 13,6 km/h (3 Bft) SW 223 0 min 0,000 mm 0,0 UV-I 0 W/m 12,9 C 11,0 C 19,3 km/h (3 Bft) 97,62 %
24.07.2017 21:24 14,4 C 23,3 C 91 % 1008,3 hPa 0,0 l/m 16,8 km/h (3 Bft) W-SW 246 0 min 0,000 mm 0,0 UV-I 0 W/m 12,9 C 9,9 C 22,5 km/h (4 Bft) 96,88 %
24.07.2017 21:26 14,4 C 23,3 C 91 % 1008,3 hPa 0,0 l/m 16,4 km/h (3 Bft) SW 232 0 min 0,000 mm 0,0 UV-I 0 W/m 12,9 C 10,0 C 24,1 km/h (4 Bft) 97,87 %
24.07.2017 21:28 14,4 C 23,3 C 91 % 1008,2 hPa 0,0 l/m 13,6 km/h (3 Bft) SW 215 0 min 0,000 mm 0,0 UV-I 0 W/m 12,9 C 11,0 C 19,3 km/h (3 Bft) 97,22 %
24.07.2017 21:30 14,4 C 23,3 C 91 % 1008,2 hPa 0,0 l/m 15,0 km/h (3 Bft) W-SW 246 0 min 0,000 mm 0,0 UV-I 0 W/m 12,9 C 10,5 C 20,9 km/h (4 Bft) 100,00 %
24.07.2017 21:32 14,4 C 23,3 C 91 % 1008,2 hPa 0,0 l/m 14,6 km/h (3 Bft) S-SW 202 0 min 0,000 mm 0,0 UV-I 0 W/m 12,9 C 10,6 C 20,9 km/h (4 Bft) 97,62 %
24.07.2017 21:34 14,4 C 23,3 C 91 % 1008,2 hPa 0,0 l/m 14,0 km/h (3 Bft) SW 227 0 min 0,000 mm 0,0 UV-I 0 W/m 12,9 C 10,8 C 19,3 km/h (3 Bft) 100,00 %
24.07.2017 21:36 14,4 C 23,3 C 91 % 1008,1 hPa 0,0 l/m 14,6 km/h (3 Bft) W-SW 248 0 min 0,000 mm 0,0 UV-I 0 W/m 12,9 C 10,6 C 19,3 km/h (3 Bft) 95,24 %
24.07.2017 21:38 14,4 C 23,3 C 91 % 1008,1 hPa 0,0 l/m 11,2 km/h (2 Bft) SW 228 0 min 0,000 mm 0,0 UV-I 0 W/m 12,9 C 11,9 C 17,7 km/h (3 Bft) 100,00 %
24.07.2017 21:40 14,4 C 23,3 C 91 % 1008,0 hPa 0,0 l/m 11,9 km/h (2 Bft) W-SW 252 0 min 0,000 mm 0,0 UV-I 0 W/m 12,9 C 11,6 C 16,1 km/h (3 Bft) 94,74 %
24.07.2017 21:42 14,4 C 23,3 C 91 % 1007,9 hPa 0,0 l/m 12,4 km/h (3 Bft) SW 217 0 min 0,000 mm 0,0 UV-I 0 W/m 12,9 C 11,4 C 19,3 km/h (3 Bft) 100,00 %
24.07.2017 21:44 14,4 C 23,3 C 91 % 1008,0 hPa 0,0 l/m 11,6 km/h (2 Bft) SW 235 0 min 0,000 mm 0,0 UV-I 0 W/m 12,9 C 11,7 C 16,1 km/h (3 Bft) 100,00 %
24.07.2017 21:46 14,4 C 23,3 C 91 % 1008,0 hPa 0,0 l/m 11,7 km/h (2 Bft) S-SW 195 0 min 0,000 mm 0,0 UV-I 0 W/m 12,9 C 11,7 C 17,7 km/h (3 Bft) 97,56 %
24.07.2017 21:48 14,4 C 23,3 C 91 % 1008,0 hPa 0,0 l/m 11,9 km/h (2 Bft) S-SW 192 0 min 0,000 mm 0,0 UV-I 0 W/m 12,9 C 11,6 C 17,7 km/h (3 Bft) 98,18 %
24.07.2017 21:50 14,3 C 23,3 C 91 % 1008,0 hPa 0,0 l/m 11,8 km/h (2 Bft) S 188 0 min 0,000 mm 0,0 UV-I 0 W/m 12,8 C 11,5 C 19,3 km/h (3 Bft) 100,00 %
24.07.2017 21:52 14,3 C 23,3 C 91 % 1008,0 hPa 0,0 l/m 14,0 km/h (3 Bft) S-SW 205 0 min 0,000 mm 0,0 UV-I 0 W/m 12,8 C 10,7 C 22,5 km/h (4 Bft) 96,43 %
24.07.2017 21:54 14,3 C 23,3 C 91 % 1008,1 hPa 0,0 l/m 10,3 km/h (2 Bft) SW 226 0 min 0,000 mm 0,0 UV-I 0 W/m 12,8 C 12,2 C 14,5 km/h (3 Bft) 94,74 %
24.07.2017 21:56 14,4 C 23,3 C 91 % 1008,1 hPa 0,0 l/m 10,8 km/h (2 Bft) S-SW 196 0 min 0,000 mm 0,0 UV-I 0 W/m 12,9 C 12,1 C 16,1 km/h (3 Bft) 96,23 %
24.07.2017 21:58 14,3 C 23,3 C 91 % 1008,1 hPa 0,0 l/m 14,2 km/h (3 Bft) SW 234 0 min 0,000 mm 0,0 UV-I 0 W/m 12,8 C 10,6 C 19,3 km/h (3 Bft) 93,10 %
24.07.2017 22:00 14,3 C 23,3 C 90 % 1008,1 hPa 0,0 l/m 11,8 km/h (2 Bft) W-SW 244 0 min 0,000 mm 0,0 UV-I 0 W/m 12,7 C 11,5 C 19,3 km/h (3 Bft) 94,34 %
24.07.2017 22:02 14,3 C 23,3 C 91 % 1008,1 hPa 0,0 l/m 9,6 km/h (2 Bft) W-SW 238 0 min 0,026 mm 0,0 UV-I 0 W/m 12,8 C 12,5 C 12,9 km/h (3 Bft) 93,22 %
24.07.2017 22:04 14,4 C 23,3 C 91 % 1008,1 hPa 0,0 l/m 13,4 km/h (3 Bft) W-SW 252 0 min 0,000 mm 0,0 UV-I 0 W/m 12,9 C 11,0 C 20,9 km/h (4 Bft) 95,12 %
24.07.2017 22:06 14,3 C 23,3 C 90 % 1008,0 hPa 0,0 l/m 14,9 km/h (3 Bft) S-SW 212 0 min 0,000 mm 0,0 UV-I 0 W/m 12,7 C 10,4 C 20,9 km/h (4 Bft) 93,62 %
24.07.2017 22:08 14,4 C 23,3 C 90 % 1008,1 hPa 0,0 l/m 13,2 km/h (3 Bft) SW 227 0 min 0,000 mm 0,0 UV-I 0 W/m 12,8 C 11,1 C 19,3 km/h (3 Bft) 92,00 %
24.07.2017 22:10 14,4 C 23,3 C 90 % 1008,0 hPa 0,0 l/m 14,8 km/h (3 Bft) W-SW 256 0 min 0,000 mm 0,0 UV-I 0 W/m 12,8 C 10,5 C 19,3 km/h (3 Bft) 94,00 %
24.07.2017 22:12 14,4 C 23,3 C 90 % 1008,1 hPa 0,0 l/m 11,5 km/h (2 Bft) SW 233 0 min 0,000 mm 0,0 UV-I 0 W/m 12,8 C 11,8 C 19,3 km/h (3 Bft) 95,24 %
24.07.2017 22:14 14,3 C 23,3 C 90 % 1008,1 hPa 0,0 l/m 13,9 km/h (3 Bft) W-SW 240 0 min 0,000 mm 0,0 UV-I 0 W/m 12,7 C 10,7 C 19,3 km/h (3 Bft) 96,15 %
24.07.2017 22:16 14,3 C 23,3 C 90 % 1008,1 hPa 0,0 l/m 12,5 km/h (3 Bft) S-SW 204 0 min 0,000 mm 0,0 UV-I 0 W/m 12,7 C 11,3 C 17,7 km/h (3 Bft) 92,00 %
24.07.2017 22:18 14,3 C 23,3 C 90 % 1008,2 hPa 0,0 l/m 14,0 km/h (3 Bft) W-SW 240 0 min 0,000 mm 0,0 UV-I 0 W/m 12,7 C 10,7 C 20,9 km/h (4 Bft) 100,00 %
24.07.2017 22:20 14,3 C 23,3 C 90 % 1008,1 hPa 0,0 l/m 10,3 km/h (2 Bft) SW 235 0 min 0,000 mm 0,0 UV-I 0 W/m 12,7 C 12,2 C 14,5 km/h (3 Bft) 94,34 %
24.07.2017 22:22 14,4 C 23,3 C 90 % 1008,2 hPa 0,0 l/m 13,3 km/h (3 Bft) SW 219 0 min 0,000 mm 0,0 UV-I 0 W/m 12,8 C 11,1 C 19,3 km/h (3 Bft) 94,74 %
24.07.2017 22:24 14,4 C 23,3 C 90 % 1008,1 hPa 0,0 l/m 14,1 km/h (3 Bft) SW 216 0 min 0,000 mm 0,0 UV-I 0 W/m 12,8 C 10,8 C 20,9 km/h (4 Bft) 96,00 %
24.07.2017 22:26 14,4 C 23,3 C 89 % 1008,0 hPa 0,0 l/m 12,1 km/h (2 Bft) W-SW 246 0 min 0,000 mm 0,0 UV-I 0 W/m 12,6 C 11,5 C 17,7 km/h (3 Bft) 95,74 %
24.07.2017 22:28 14,4 C 23,3 C 90 % 1008,0 hPa 0,0 l/m 11,7 km/h (2 Bft) W-SW 242 0 min 0,000 mm 0,0 UV-I 0 W/m 12,8 C 11,7 C 17,7 km/h (3 Bft) 97,87 %
24.07.2017 22:30 14,3 C 23,3 C 89 % 1008,0 hPa 0,0 l/m 13,6 km/h (3 Bft) W 261 0 min 0,000 mm 0,0 UV-I 0 W/m 12,5 C 10,8 C 20,9 km/h (4 Bft) 98,11 %
24.07.2017 22:32 14,4 C 23,3 C 89 % 1008,0 hPa 0,0 l/m 11,9 km/h (2 Bft) S-SW 197 0 min 0,000 mm 0,0 UV-I 0 W/m 12,6 C 11,6 C 19,3 km/h (3 Bft) 100,00 %
24.07.2017 22:34 14,4 C 23,3 C 89 % 1007,9 hPa 0,0 l/m 11,6 km/h (2 Bft) SW 234 0 min 0,000 mm 0,0 UV-I 0 W/m 12,6 C 11,7 C 19,3 km/h (3 Bft) 97,73 %
24.07.2017 22:36 14,4 C 23,3 C 89 % 1007,9 hPa 0,0 l/m 13,2 km/h (3 Bft) SW 232 0 min 0,000 mm 0,0 UV-I 0 W/m 12,6 C 11,1 C 19,3 km/h (3 Bft) 100,00 %
24.07.2017 22:38 14,3 C 23,3 C 89 % 1007,8 hPa 0,0 l/m 10,8 km/h (2 Bft) W-SW 240 0 min 0,000 mm 0,0 UV-I 0 W/m 12,5 C 12,0 C 16,1 km/h (3 Bft) 100,00 %
24.07.2017 22:40 14,4 C 23,3 C 89 % 1007,8 hPa 0,0 l/m 8,6 km/h (2 Bft) W-SW 238 0 min 0,000 mm 0,0 UV-I 0 W/m 12,6 C 13,1 C 12,9 km/h (3 Bft) 96,23 %
24.07.2017 22:42 14,3 C 23,3 C 90 % 1007,8 hPa 0,0 l/m 8,5 km/h (2 Bft) W-SW 237 0 min 0,000 mm 0,0 UV-I 0 W/m 12,7 C 13,1 C 12,9 km/h (3 Bft) 97,73 %
24.07.2017 22:44 14,3 C 23,3 C 90 % 1007,7 hPa 0,0 l/m 8,9 km/h (2 Bft) W-SW 242 0 min 0,000 mm 0,0 UV-I 0 W/m 12,7 C 12,9 C 16,1 km/h (3 Bft) 100,00 %
24.07.2017 22:46 14,3 C 23,3 C 90 % 1007,7 hPa 0,0 l/m 11,8 km/h (2 Bft) SW 235 0 min 0,000 mm 0,0 UV-I 0 W/m 12,7 C 11,5 C 19,3 km/h (3 Bft) 98,11 %
24.07.2017 22:48 14,3 C 23,3 C 90 % 1007,6 hPa 0,0 l/m 10,7 km/h (2 Bft) W-SW 257 0 min 0,000 mm 0,0 UV-I 0 W/m 12,7 C 12,0 C 16,1 km/h (3 Bft) 100,00 %
24.07.2017 22:50 14,3 C 23,3 C 90 % 1007,6 hPa 0,0 l/m 11,3 km/h (2 Bft) S-SW 212 0 min 0,000 mm 0,0 UV-I 0 W/m 12,7 C 11,8 C 17,7 km/h (3 Bft) 97,44 %
24.07.2017 22:52 14,3 C 23,3 C 90 % 1007,5 hPa 0,0 l/m 10,9 km/h (2 Bft) SW 228 0 min 0,000 mm 0,0 UV-I 0 W/m 12,7 C 11,9 C 14,5 km/h (3 Bft) 100,00 %
24.07.2017 22:54 14,2 C 23,3 C 90 % 1007,4 hPa 0,0 l/m 12,1 km/h (2 Bft) SW 231 0 min 0,000 mm 0,0 UV-I 0 W/m 12,6 C 11,3 C 19,3 km/h (3 Bft) 97,87 %
24.07.2017 22:56 14,3 C 23,3 C 90 % 1007,5 hPa 0,0 l/m 11,1 km/h (2 Bft) SW 225 0 min 0,000 mm 0,0 UV-I 0 W/m 12,7 C 11,8 C 14,5 km/h (3 Bft) 100,00 %
24.07.2017 22:58 14,2 C 23,3 C 90 % 1007,5 hPa 0,0 l/m 11,9 km/h (2 Bft) SW 233 0 min 0,000 mm 0,0 UV-I 0 W/m 12,6 C 11,4 C 16,1 km/h (3 Bft) 96,43 %
24.07.2017 23:00 14,2 C 23,3 C 90 % 1007,5 hPa 0,0 l/m 10,1 km/h (2 Bft) W-SW 242 0 min 0,025 mm 0,0 UV-I 0 W/m 12,6 C 12,2 C 14,5 km/h (3 Bft) 98,00 %
24.07.2017 23:02 14,2 C 23,3 C 90 % 1007,4 hPa 0,0 l/m 9,8 km/h (2 Bft) W-SW 239 0 min 0,000 mm 0,0 UV-I 0 W/m 12,6 C 12,3 C 14,5 km/h (3 Bft) 100,00 %
24.07.2017 23:04 14,2 C 23,3 C 90 % 1007,5 hPa 0,0 l/m 9,5 km/h (2 Bft) SW 227 0 min 0,000 mm 0,0 UV-I 0 W/m 12,6 C 12,5 C 14,5 km/h (3 Bft) 97,87 %
24.07.2017 23:06 14,2 C 23,3 C 90 % 1007,5 hPa 0,0 l/m 9,9 km/h (2 Bft) W-SW 240 0 min 0,000 mm 0,0 UV-I 0 W/m 12,6 C 12,3 C 14,5 km/h (3 Bft) 100,00 %
24.07.2017 23:08 14,2 C 23,3 C 90 % 1007,5 hPa 0,0 l/m 13,9 km/h (3 Bft) W 261 0 min 0,000 mm 0,0 UV-I 0 W/m 12,6 C 10,6 C 20,9 km/h (4 Bft) 95,74 %
24.07.2017 23:10 14,2 C 23,3 C 90 % 1007,5 hPa 0,0 l/m 9,2 km/h (2 Bft) W-SW 244 0 min 0,000 mm 0,0 UV-I 0 W/m 12,6 C 12,6 C 16,1 km/h (3 Bft) 98,21 %
24.07.2017 23:12 14,2 C 23,3 C 90 % 1007,5 hPa 0,0 l/m 10,6 km/h (2 Bft) W-SW 239 0 min 0,000 mm 0,0 UV-I 0 W/m 12,6 C 12,0 C 17,7 km/h (3 Bft) 97,56 %
24.07.2017 23:14 14,2 C 23,3 C 90 % 1007,6 hPa 0,0 l/m 12,1 km/h (2 Bft) SW 232 0 min 0,000 mm 0,0 UV-I 0 W/m 12,6 C 11,3 C 17,7 km/h (3 Bft) 97,73 %
24.07.2017 23:16 14,2 C 23,3 C 90 % 1007,6 hPa 0,0 l/m 11,1 km/h (2 Bft) SW 225 0 min 0,000 mm 0,0 UV-I 0 W/m 12,6 C 11,7 C 17,7 km/h (3 Bft) 98,11 %
24.07.2017 23:18 14,2 C 23,3 C 90 % 1007,6 hPa 0,0 l/m 9,8 km/h (2 Bft) SW 235 0 min 0,000 mm 0,0 UV-I 0 W/m 12,6 C 12,3 C 16,1 km/h (3 Bft) 97,87 %
24.07.2017 23:20 14,2 C 23,3 C 90 % 1007,6 hPa 0,0 l/m 11,2 km/h (2 Bft) S-SW 212 0 min 0,000 mm 0,0 UV-I 0 W/m 12,6 C 11,7 C 16,1 km/h (3 Bft) 95,74 %
24.07.2017 23:22 14,2 C 23,3 C 90 % 1007,6 hPa 0,0 l/m 9,6 km/h (2 Bft) SW 221 0 min 0,000 mm 0,0 UV-I 0 W/m 12,6 C 12,4 C 19,3 km/h (3 Bft) 100,00 %
24.07.2017 23:24 14,2 C 23,3 C 90 % 1007,5 hPa 0,0 l/m 9,1 km/h (2 Bft) S-SW 208 0 min 0,000 mm 0,0 UV-I 0 W/m 12,6 C 12,7 C 14,5 km/h (3 Bft) 98,00 %
24.07.2017 23:26 14,2 C 23,3 C 90 % 1007,6 hPa 0,0 l/m 10,3 km/h (2 Bft) SW 218 0 min 0,000 mm 0,0 UV-I 0 W/m 12,6 C 12,1 C 14,5 km/h (3 Bft) 94,87 %
24.07.2017 23:28 14,2 C 23,3 C 90 % 1007,6 hPa 0,0 l/m 9,8 km/h (2 Bft) S-SW 206 0 min 0,000 mm 0,0 UV-I 0 W/m 12,6 C 12,3 C 14,5 km/h (3 Bft) 100,00 %
24.07.2017 23:30 14,2 C 23,3 C 90 % 1007,7 hPa 0,0 l/m 15,3 km/h (3 Bft) W-SW 248 0 min 0,000 mm 0,0 UV-I 0 W/m 12,6 C 10,1 C 22,5 km/h (4 Bft) 97,56 %
24.07.2017 23:32 14,2 C 23,3 C 90 % 1007,6 hPa 0,0 l/m 9,6 km/h (2 Bft) W-SW 239 0 min 0,000 mm 0,0 UV-I 0 W/m 12,6 C 12,4 C 14,5 km/h (3 Bft) 100,00 %
24.07.2017 23:34 14,2 C 23,3 C 90 % 1007,7 hPa 0,0 l/m 11,8 km/h (2 Bft) S-SW 212 0 min 0,000 mm 0,0 UV-I 0 W/m 12,6 C 11,4 C 20,9 km/h (4 Bft) 97,37 %
24.07.2017 23:36 14,2 C 23,3 C 90 % 1007,7 hPa 0,0 l/m 9,8 km/h (2 Bft) SW 221 0 min 0,000 mm 0,0 UV-I 0 W/m 12,6 C 12,3 C 16,1 km/h (3 Bft) 100,00 %
24.07.2017 23:38 14,1 C 23,3 C 90 % 1007,8 hPa 0,0 l/m 12,9 km/h (3 Bft) SW 219 0 min 0,000 mm 0,0 UV-I 0 W/m 12,5 C 10,9 C 19,3 km/h (3 Bft) 97,87 %
24.07.2017 23:40 14,1 C 23,3 C 90 % 1007,8 hPa 0,0 l/m 10,6 km/h (2 Bft) SW 228 0 min 0,000 mm 0,0 UV-I 0 W/m 12,5 C 11,8 C 16,1 km/h (3 Bft) 98,00 %
24.07.2017 23:42 14,2 C 23,3 C 90 % 1007,8 hPa 0,0 l/m 14,7 km/h (3 Bft) SW 215 0 min 0,000 mm 0,0 UV-I 0 W/m 12,6 C 10,3 C 22,5 km/h (4 Bft) 100,00 %
24.07.2017 23:44 14,1 C 23,3 C 90 % 1007,8 hPa 0,0 l/m 14,9 km/h (3 Bft) SW 219 0 min 0,000 mm 0,0 UV-I 0 W/m 12,5 C 10,1 C 20,9 km/h (4 Bft) 97,56 %
24.07.2017 23:46 14,2 C 22,8 C 90 % 1007,9 hPa 0,0 l/m 11,3 km/h (2 Bft) S-SW 209 0 min 0,000 mm 0,0 UV-I 0 W/m 12,6 C 11,6 C 17,7 km/h (3 Bft) 98,18 %
24.07.2017 23:48 14,2 C 22,8 C 90 % 1007,8 hPa 0,0 l/m 13,5 km/h (3 Bft) SW 227 0 min 0,000 mm 0,0 UV-I 0 W/m 12,6 C 10,8 C 22,5 km/h (4 Bft) 100,00 %
24.07.2017 23:50 14,2 C 22,8 C 90 % 1007,8 hPa 0,0 l/m 16,5 km/h (3 Bft) SW 227 0 min 0,000 mm 0,0 UV-I 0 W/m 12,6 C 9,7 C 27,4 km/h (4 Bft) 98,00 %
24.07.2017 23:52 14,2 C 22,8 C 90 % 1007,9 hPa 0,0 l/m 16,1 km/h (3 Bft) SW 235 0 min 0,000 mm 0,0 UV-I 0 W/m 12,6 C 9,9 C 24,1 km/h (4 Bft) 100,00 %
24.07.2017 23:54 14,2 C 22,8 C 90 % 1007,9 hPa 0,0 l/m 20,6 km/h (4 Bft) W-SW 252 0 min 0,000 mm 0,0 UV-I 0 W/m 12,6 C 8,6 C 27,4 km/h (4 Bft) 97,87 %
24.07.2017 23:56 14,3 C 22,8 C 90 % 1007,9 hPa 0,0 l/m 17,4 km/h (3 Bft) SW 229 0 min 0,000 mm 0,0 UV-I 0 W/m 12,7 C 9,6 C 27,4 km/h (4 Bft) 100,00 %
24.07.2017 23:58 14,3 C 22,8 C 90 % 1007,9 hPa 0,2 l/m 19,5 km/h (3 Bft) SW 232 0 min 0,000 mm 0,0 UV-I 0 W/m 12,7 C 9,0 C 27,4 km/h (4 Bft) 100,00 %
_ Min-Zeit 23:36 23:46 16:14 14:50 - 01:50 - - - - - - 23:38 23:54 01:50 10:56
Minimum _ 14,1 C 22,8 C 89 % 1005,3 hPa - 0,0 km/h (0 Bft) - - - - - - 12,5 C 8,6 C 0,0 km/h (0 Bft) 85,71 %
_ Max-Zeit 00:00 00:00 08:42 00:02 18:58 19:12 - - 20:38 15:02 14:12 14:50 00:30 00:02 19:12 01:32
Maximum _ 18,6 C 25,6 C 97 % 1014,0 hPa 1,2 l/m 22,7 km/h
W-SW (4 Bft)
- - 2 min 0,153 mm 2,4 UV-I 327 W/m 17,4 C 18,6 C 37,0 km/h
W (5 Bft)
100,00 %
Durchschnitt _ 16,2 C 24,4 C 94 % 1008,5 hPa #43,0 l/m 6,4 km/h (2 Bft) W-SW - #2 min. #0,838 mm 1,2 UV-I 83 W/m 15,2 C 15,2 C 10,6 km/h (2 Bft) 96,81 %